[[{"header":{"parameterUnit":"m.s-1","parameterCategory":1,"la1":30.6,"la2":29.2853,"lo1":-89.7004,"lo2":-87.6739,"dy":0.0162,"dx":0.0183,"nx":112,"ny":82,"refTime":"2026-04-22T00:00:00:Z","depth":0,"parameterNumber":2,"parameterNumberName":"U-component_of_WINDS"},"data":[0.0,0.0,0.0,0.0,0.0,0.0,0.0,0.0,0.0,0.0,0.0,0.0,0.0,0.0,0.0,0.0,0.0,0.0,0.0,0.0,0.0,0.0,0.0,0.0,0.0,0.0,0.0,0.0,0.0,0.0,0.0,0.0,0.0,0.0,0.0,0.0,0.0,0.0,0.0,0.0,0.0,0.0,0.0,0.0,0.0,0.0,0.0,0.0,0.0,0.0,0.0,0.0,0.0,0.0,0.0,0.0,0.0,0.0,0.0,0.0,0.0,0.0,0.0,0.0,0.0,0.0,0.0,0.0,0.0,0.0,0.0,0.0,0.0,0.0,0.0,0.0,0.0,0.0,0.0,0.0,0.0,0.0,0.0,0.0,0.0,0.0,0.0,0.0,0.0,0.0,-3.5265,-3.5916,-3.7312,-3.7999,-3.7542,-3.65,-3.5327,-3.3971,0.0,0.0,0.0,0.0,0.0,0.0,0.0,0.0,0.0,0.0,0.0,0.0,0.0,0.0,0.0,0.0,0.0,0.0,0.0,0.0,0.0,0.0,0.0,0.0,0.0,0.0,0.0,0.0,0.0,0.0,0.0,0.0,0.0,0.0,0.0,0.0,0.0,0.0,0.0,0.0,0.0,0.0,0.0,0.0,0.0,0.0,0.0,0.0,0.0,0.0,0.0,0.0,0.0,0.0,0.0,0.0,0.0,0.0,0.0,0.0,0.0,0.0,0.0,0.0,0.0,0.0,0.0,0.0,0.0,0.0,0.0,0.0,0.0,0.0,0.0,0.0,0.0,0.0,0.0,0.0,0.0,0.0,0.0,0.0,0.0,0.0,0.0,0.0,0.0,0.0,0.0,0.0,0.0,0.0,0.0,0.0,0.0,0.0,0.0,0.0,0.0,0.0,0.0,0.0,-3.4966,-3.7025,-3.8059,-3.832,-3.756,-3.6756,-3.5592,-3.3908,0.0,0.0,0.0,0.0,0.0,0.0,0.0,0.0,0.0,0.0,0.0,0.0,0.0,0.0,0.0,0.0,0.0,0.0,0.0,0.0,0.0,0.0,0.0,0.0,0.0,0.0,0.0,0.0,0.0,0.0,0.0,0.0,0.0,0.0,0.0,0.0,0.0,0.0,0.0,0.0,0.0,0.0,0.0,0.0,0.0,0.0,0.0,0.0,0.0,0.0,0.0,0.0,0.0,0.0,0.0,0.0,0.0,0.0,0.0,0.0,0.0,0.0,0.0,0.0,0.0,0.0,0.0,0.0,0.0,0.0,0.0,0.0,0.0,0.0,0.0,0.0,0.0,0.0,0.0,0.0,0.0,0.0,0.0,0.0,0.0,0.0,0.0,0.0,0.0,0.0,0.0,0.0,0.0,0.0,0.0,0.0,0.0,0.0,0.0,0.0,0.0,0.0,0.0,-3.5166,-3.5991,-3.7943,-3.8295,-3.8135,-3.756,-3.6629,-3.5405,-3.3905,-3.3037,0.0,0.0,0.0,0.0,0.0,0.0,0.0,0.0,0.0,0.0,0.0,0.0,0.0,0.0,0.0,0.0,0.0,0.0,0.0,0.0,0.0,0.0,0.0,0.0,0.0,0.0,0.0,0.0,0.0,0.0,0.0,0.0,0.0,0.0,0.0,0.0,0.0,0.0,0.0,0.0,0.0,0.0,0.0,0.0,0.0,0.0,0.0,0.0,0.0,0.0,0.0,0.0,0.0,0.0,0.0,0.0,0.0,0.0,0.0,0.0,0.0,0.0,0.0,0.0,0.0,0.0,0.0,0.0,0.0,0.0,0.0,0.0,0.0,0.0,0.0,0.0,0.0,0.0,0.0,0.0,0.0,0.0,0.0,0.0,0.0,0.0,0.0,0.0,0.0,0.0,0.0,0.0,0.0,0.0,0.0,0.0,0.0,0.0,0.0,0.0,0.0,0.0,-3.6837,-3.7679,-3.9111,-3.8735,-3.8218,-3.7809,-3.655,-3.5231,-3.3884,-3.3037,0.0,0.0,0.0,0.0,0.0,0.0,0.0,0.0,0.0,0.0,0.0,0.0,0.0,0.0,0.0,0.0,0.0,0.0,0.0,0.0,0.0,0.0,0.0,0.0,0.0,0.0,0.0,0.0,0.0,0.0,0.0,0.0,0.0,0.0,0.0,0.0,0.0,0.0,0.0,0.0,0.0,0.0,0.0,0.0,0.0,0.0,0.0,0.0,0.0,0.0,0.0,0.0,0.0,0.0,0.0,0.0,0.0,0.0,0.0,0.0,0.0,0.0,0.0,0.0,0.0,0.0,0.0,0.0,0.0,0.0,0.0,0.0,0.0,0.0,0.0,0.0,0.0,0.0,0.0,0.0,0.0,0.0,0.0,0.0,0.0,0.0,0.0,0.0,0.0,0.0,0.0,0.0,0.0,0.0,0.0,0.0,0.0,0.0,0.0,0.0,0.0,0.0,-3.8305,-3.9974,-4.0838,-3.9917,-3.9048,-3.865,-3.6888,-3.5231,-3.3884,-3.3037,0.0,0.0,0.0,0.0,0.0,0.0,0.0,0.0,0.0,0.0,0.0,0.0,0.0,0.0,0.0,0.0,0.0,0.0,0.0,0.0,0.0,0.0,0.0,0.0,0.0,0.0,0.0,0.0,0.0,0.0,0.0,0.0,0.0,0.0,0.0,0.0,0.0,0.0,0.0,0.0,0.0,0.0,0.0,0.0,0.0,0.0,0.0,0.0,0.0,0.0,0.0,0.0,0.0,0.0,0.0,0.0,0.0,0.0,0.0,0.0,0.0,0.0,0.0,0.0,0.0,0.0,0.0,0.0,0.0,0.0,0.0,0.0,0.0,0.0,0.0,0.0,0.0,0.0,0.0,0.0,0.0,0.0,0.0,0.0,0.0,0.0,0.0,0.0,0.0,0.0,0.0,0.0,0.0,0.0,0.0,0.0,0.0,0.0,0.0,0.0,0.0,0.0,-3.7689,-3.9276,0.0,-3.9408,-3.894,-3.8024,-3.7045,-3.5717,-3.3919,0.0,0.0,0.0,0.0,0.0,0.0,0.0,0.0,0.0,0.0,0.0,0.0,0.0,0.0,0.0,0.0,0.0,0.0,0.0,0.0,0.0,0.0,0.0,0.0,0.0,0.0,0.0,0.0,0.0,0.0,0.0,0.0,0.0,0.0,0.0,0.0,0.0,0.0,0.0,0.0,0.0,0.0,0.0,0.0,0.0,0.0,0.0,0.0,0.0,0.0,0.0,0.0,0.0,0.0,0.0,0.0,0.0,0.0,0.0,0.0,0.0,0.0,0.0,0.0,0.0,0.0,0.0,0.0,0.0,0.0,0.0,0.0,0.0,0.0,0.0,0.0,0.0,0.0,0.0,0.0,0.0,0.0,0.0,0.0,0.0,0.0,0.0,0.0,0.0,0.0,0.0,0.0,0.0,0.0,0.0,0.0,0.0,0.0,0.0,0.0,0.0,0.0,-3.562,-3.7717,-3.9184,0.0,-3.9252,-3.878,-3.7952,-3.668,-3.5226,-3.3542,0.0,0.0,0.0,0.0,0.0,0.0,0.0,0.0,0.0,0.0,0.0,0.0,0.0,0.0,0.0,0.0,0.0,0.0,0.0,0.0,0.0,0.0,0.0,0.0,0.0,0.0,0.0,0.0,0.0,0.0,0.0,0.0,0.0,0.0,0.0,0.0,0.0,0.0,0.0,0.0,0.0,0.0,0.0,0.0,0.0,0.0,0.0,0.0,0.0,0.0,0.0,0.0,0.0,0.0,0.0,0.0,0.0,0.0,0.0,0.0,0.0,0.0,0.0,0.0,0.0,0.0,0.0,0.0,0.0,0.0,0.0,0.0,0.0,0.0,0.0,0.0,0.0,0.0,0.0,0.0,0.0,0.0,0.0,0.0,0.0,0.0,0.0,0.0,0.0,0.0,0.0,0.0,0.0,0.0,0.0,0.0,0.0,0.0,0.0,0.0,0.0,0.0,-3.6723,-3.8682,-4.0194,-4.0985,-3.9643,-3.8685,-3.8685,-3.5741,-3.3534,0.0,0.0,0.0,0.0,0.0,0.0,0.0,0.0,0.0,0.0,0.0,0.0,0.0,0.0,0.0,0.0,0.0,0.0,0.0,0.0,0.0,0.0,0.0,0.0,0.0,0.0,0.0,0.0,0.0,0.0,0.0,0.0,0.0,0.0,0.0,0.0,0.0,0.0,0.0,0.0,0.0,0.0,0.0,0.0,0.0,0.0,0.0,0.0,0.0,0.0,0.0,0.0,0.0,0.0,0.0,0.0,0.0,0.0,0.0,0.0,0.0,0.0,0.0,0.0,0.0,0.0,0.0,0.0,0.0,0.0,0.0,0.0,0.0,0.0,0.0,0.0,0.0,0.0,0.0,0.0,0.0,0.0,0.0,0.0,0.0,0.0,0.0,0.0,0.0,0.0,0.0,0.0,0.0,0.0,0.0,0.0,0.0,0.0,0.0,0.0,0.0,0.0,0.0,-3.488,-3.7842,-3.9674,-3.9048,-3.8816,-3.8358,-3.7503,-3.5789,-3.4137,-3.2684,0.0,0.0,0.0,0.0,0.0,0.0,0.0,0.0,0.0,0.0,0.0,0.0,0.0,0.0,0.0,0.0,0.0,0.0,0.0,0.0,0.0,0.0,0.0,0.0,0.0,0.0,0.0,0.0,0.0,0.0,0.0,0.0,0.0,0.0,0.0,0.0,0.0,0.0,0.0,0.0,0.0,0.0,0.0,0.0,0.0,0.0,0.0,0.0,0.0,0.0,0.0,0.0,0.0,0.0,0.0,0.0,0.0,0.0,0.0,0.0,0.0,0.0,0.0,0.0,0.0,0.0,0.0,0.0,0.0,0.0,0.0,0.0,0.0,0.0,0.0,0.0,0.0,0.0,0.0,0.0,0.0,0.0,0.0,0.0,0.0,0.0,0.0,0.0,0.0,0.0,0.0,0.0,0.0,0.0,0.0,0.0,0.0,0.0,0.0,0.0,0.0,0.0,-3.4245,-3.7309,-3.9077,-3.8189,-3.8169,-3.775,-3.6552,-3.5322,-3.3771,-3.1846,0.0,0.0,0.0,0.0,0.0,0.0,0.0,0.0,0.0,0.0,0.0,0.0,0.0,0.0,0.0,0.0,0.0,0.0,0.0,0.0,0.0,0.0,0.0,0.0,0.0,0.0,0.0,0.0,0.0,0.0,0.0,0.0,0.0,0.0,0.0,0.0,0.0,0.0,0.0,0.0,0.0,0.0,0.0,0.0,0.0,0.0,0.0,0.0,0.0,0.0,0.0,0.0,0.0,0.0,0.0,0.0,0.0,0.0,0.0,0.0,0.0,0.0,0.0,0.0,0.0,0.0,0.0,0.0,0.0,0.0,0.0,0.0,0.0,0.0,0.0,0.0,0.0,0.0,0.0,0.0,0.0,0.0,0.0,0.0,0.0,0.0,0.0,0.0,0.0,0.0,0.0,0.0,0.0,0.0,0.0,0.0,0.0,0.0,0.0,0.0,0.0,0.0,-3.422,-3.6806,-3.8353,-3.7867,-3.7488,-3.6805,-3.5704,-3.4426,-3.275,-3.0509,0.0,0.0,0.0,0.0,0.0,0.0,0.0,0.0,0.0,0.0,0.0,0.0,0.0,0.0,0.0,0.0,0.0,0.0,0.0,0.0,0.0,0.0,0.0,0.0,0.0,0.0,0.0,0.0,0.0,0.0,0.0,0.0,0.0,0.0,0.0,0.0,0.0,0.0,0.0,0.0,0.0,0.0,0.0,0.0,0.0,0.0,0.0,0.0,0.0,0.0,0.0,0.0,0.0,0.0,0.0,0.0,0.0,0.0,0.0,0.0,-3.2317,-3.18,0.0,0.0,0.0,0.0,0.0,0.0,0.0,0.0,0.0,0.0,0.0,0.0,0.0,0.0,0.0,0.0,0.0,0.0,0.0,0.0,0.0,0.0,0.0,0.0,0.0,0.0,0.0,0.0,0.0,0.0,0.0,0.0,0.0,0.0,0.0,0.0,0.0,0.0,0.0,0.0,-3.2454,-3.5297,-3.6977,-3.5929,-3.551,-3.5019,-3.436,-3.3416,-3.2113,-3.035,-2.9013,0.0,0.0,0.0,0.0,0.0,0.0,0.0,0.0,0.0,0.0,0.0,0.0,0.0,0.0,0.0,0.0,0.0,0.0,0.0,0.0,0.0,0.0,0.0,0.0,0.0,0.0,0.0,0.0,0.0,0.0,0.0,0.0,0.0,0.0,0.0,0.0,0.0,0.0,0.0,0.0,0.0,0.0,0.0,0.0,0.0,0.0,0.0,0.0,0.0,0.0,0.0,0.0,0.0,0.0,0.0,0.0,0.0,0.0,0.0,-3.3327,-3.2679,0.0,0.0,0.0,0.0,0.0,0.0,0.0,0.0,0.0,0.0,0.0,0.0,0.0,0.0,0.0,0.0,0.0,0.0,0.0,0.0,0.0,0.0,0.0,0.0,0.0,0.0,0.0,0.0,0.0,0.0,0.0,0.0,0.0,0.0,0.0,0.0,0.0,0.0,0.0,0.0,-3.158,-3.4353,-3.6002,-3.5066,-3.4745,-3.4271,-3.3441,-3.2869,-3.173,-2.9785,-2.8861,0.0,0.0,0.0,0.0,0.0,0.0,0.0,0.0,0.0,0.0,0.0,0.0,0.0,0.0,0.0,0.0,0.0,0.0,0.0,0.0,0.0,0.0,0.0,0.0,0.0,0.0,0.0,0.0,0.0,0.0,0.0,0.0,0.0,0.0,0.0,0.0,0.0,0.0,0.0,0.0,0.0,0.0,0.0,0.0,0.0,0.0,0.0,0.0,0.0,0.0,0.0,0.0,0.0,-3.4065,-3.4282,-3.4826,-3.493,-3.4981,-3.4963,-3.4634,-3.3955,-3.3093,-3.2955,0.0,0.0,0.0,0.0,0.0,0.0,0.0,0.0,0.0,0.0,0.0,0.0,0.0,0.0,0.0,0.0,0.0,0.0,0.0,0.0,0.0,0.0,-3.1688,-3.088,-3.1253,-3.1462,-3.0356,0.0,0.0,0.0,0.0,0.0,0.0,0.0,0.0,0.0,0.0,0.0,-3.1513,-3.3904,-3.5368,-3.4727,-3.4383,-3.3807,-3.2833,-3.2468,-3.1434,-2.9408,-2.8961,-2.7943,0.0,0.0,0.0,0.0,0.0,0.0,0.0,0.0,0.0,0.0,0.0,0.0,0.0,0.0,0.0,0.0,0.0,0.0,0.0,0.0,0.0,0.0,0.0,0.0,0.0,0.0,0.0,0.0,0.0,0.0,0.0,0.0,-2.7251,-2.9495,0.0,0.0,0.0,0.0,0.0,0.0,0.0,0.0,0.0,0.0,0.0,0.0,0.0,-3.2194,-3.3064,-3.4222,-3.4656,-3.4385,-3.5428,-3.5703,-3.5335,-3.5858,-3.6091,-3.6091,-3.6028,0.0,-3.3889,-3.3179,0.0,0.0,0.0,0.0,0.0,0.0,0.0,0.0,0.0,0.0,0.0,0.0,0.0,0.0,0.0,0.0,0.0,0.0,0.0,0.0,0.0,0.0,-3.2441,-3.329,-3.2542,-3.1584,-3.1403,-3.0333,-2.9194,-2.8451,-2.8366,-2.8161,0.0,0.0,0.0,0.0,0.0,0.0,-3.2531,-3.415,-3.5048,-3.4506,-3.359,-3.2887,-3.2579,-3.1876,-3.1019,-3.0025,-2.8704,-2.7824,-2.7519,-2.5659,0.0,0.0,0.0,0.0,0.0,0.0,0.0,0.0,0.0,0.0,0.0,0.0,0.0,0.0,0.0,0.0,0.0,0.0,0.0,0.0,0.0,0.0,0.0,0.0,0.0,0.0,0.0,0.0,0.0,-2.6897,-2.828,-2.9299,-2.8807,-2.8318,0.0,0.0,0.0,0.0,0.0,0.0,0.0,0.0,0.0,-3.2057,-3.2263,-3.3161,-3.4868,-3.4963,-3.5231,-3.5692,-3.5946,-3.6164,-3.6381,-3.6796,-3.6978,-3.6958,-3.6739,-3.6394,-3.5921,-3.4708,-3.3938,-3.349,0.0,0.0,0.0,0.0,-3.2265,-3.2921,-3.3041,-3.3095,-3.3024,-3.2733,0.0,0.0,0.0,0.0,0.0,0.0,0.0,-3.144,-3.1896,-3.2332,-3.2664,-3.2739,-3.2547,-3.2266,-3.2048,-3.1512,-3.0783,-2.9769,-2.9798,-2.9598,-2.8409,-2.8702,0.0,0.0,0.0,-3.2389,-3.2501,-3.3829,-3.4441,-3.3573,-3.299,-3.2415,-3.1856,-3.1458,-3.0927,-3.0159,-2.9076,-2.8281,-2.7824,-2.6471,-2.5676,0.0,0.0,0.0,0.0,0.0,0.0,0.0,0.0,0.0,0.0,0.0,0.0,0.0,0.0,0.0,0.0,0.0,0.0,0.0,0.0,0.0,0.0,0.0,0.0,0.0,0.0,0.0,0.0,-2.8052,-2.8983,-2.9176,-2.9211,-2.8983,0.0,0.0,0.0,0.0,0.0,0.0,-3.0932,-3.0774,-3.1519,-3.332,-3.3385,-3.4305,-3.6239,-3.5703,-3.5961,-3.7011,-3.6549,-3.6604,-3.7129,-3.7394,-3.7395,-3.7189,-3.6978,-3.7017,-3.708,-3.5757,-3.495,-3.446,-3.3565,-3.3076,-3.2835,-3.2283,-3.2421,-3.299,-3.3576,-3.3783,-3.3783,-3.3783,-3.2748,-3.1438,-3.1076,0.0,0.0,0.0,0.0,-3.1834,-3.2024,-3.2352,-3.2524,-3.2162,-3.2352,-3.253,-3.2248,-3.2022,-3.1687,-3.0953,-3.1093,-3.09,-2.9551,-2.9959,0.0,0.0,0.0,-3.2198,-3.2136,-3.2985,-3.3307,-3.2563,-3.2164,-3.1706,-3.1036,-3.0942,-3.0683,-3.0123,-2.9583,-2.8924,-2.8128,-2.7385,-2.664,-2.5896,0.0,0.0,0.0,0.0,0.0,0.0,0.0,0.0,0.0,0.0,0.0,0.0,0.0,0.0,0.0,0.0,0.0,0.0,0.0,0.0,0.0,0.0,0.0,0.0,0.0,0.0,0.0,0.0,0.0,-2.9948,-3.0053,0.0,0.0,0.0,0.0,-3.1019,-3.0475,-3.1037,-3.3213,-3.2669,-3.3037,-3.4658,-3.5433,-3.6004,-3.6399,-3.7041,-3.7524,-3.7843,-3.7613,-3.7397,-3.7207,-3.7414,-3.7094,-3.6367,-3.6741,-3.6681,-3.6295,-3.5511,-3.5407,-3.5615,-3.4478,-3.3559,-3.2904,-3.2869,-3.2869,-3.2904,-3.2955,-3.2955,-3.2955,-3.2955,-3.1955,-3.0869,-3.1541,-3.1248,0.0,0.0,-3.1231,-3.1955,-3.2662,-3.2352,-3.2024,-3.2697,-3.2334,-3.1853,-3.1818,-3.1267,-3.0959,-3.1524,-3.1666,-3.14,-3.0573,0.0,-3.06,-3.0853,-3.0743,-3.0862,-3.1555,-3.1463,-3.1411,-3.1557,-3.0919,-3.0418,-3.0178,-3.0159,-3.0142,-3.0108,-3.0074,-2.9719,-2.8976,-2.818,-2.7401,-2.6657,-2.5269,0.0,0.0,0.0,0.0,0.0,0.0,0.0,0.0,0.0,0.0,0.0,0.0,0.0,0.0,0.0,0.0,0.0,0.0,0.0,0.0,0.0,0.0,0.0,0.0,0.0,0.0,0.0,0.0,-3.1007,-3.1127,0.0,-3.054,-3.0889,-3.1249,-3.156,-3.1619,-3.2277,-3.3737,-3.3441,-3.4127,-3.6087,-3.6255,-3.6753,-3.7678,-3.7682,-3.7667,-3.7632,-3.7395,-3.715,-3.6952,-3.7207,-3.7075,-3.6698,-3.6841,-3.6958,-3.7001,-3.6238,-3.599,-3.6027,-3.5137,-3.4628,-3.4318,-3.3835,-3.3973,-3.4369,-3.4369,-3.4059,-3.3507,-3.2507,-3.2162,-3.2076,-3.1852,-3.1955,-3.2024,-3.1541,-3.1938,-3.2455,-3.2248,-3.199,-3.1869,-3.2127,-3.199,-3.1856,-3.2073,-3.1917,-3.1723,-3.1698,-3.1104,-3.0362,-2.9597,-3.0042,-3.0323,-2.9736,-3.0386,-3.1038,-3.1322,-3.1411,-3.1282,-3.0837,-3.0471,-3.002,-2.9433,-2.9837,-3.0108,-3.0108,-2.9651,-2.9281,-2.901,-2.7757,-2.6759,-2.6015,-2.5473,-2.4729,0.0,0.0,0.0,0.0,0.0,0.0,0.0,0.0,0.0,0.0,0.0,0.0,0.0,0.0,0.0,0.0,0.0,0.0,0.0,0.0,0.0,0.0,0.0,0.0,0.0,0.0,-3.0955,-3.1324,-3.1882,-3.1927,-3.1156,-3.1784,-3.2235,-3.222,-3.2811,-3.358,-3.453,-3.4703,-3.5571,-3.7281,-3.7086,-3.7405,-3.8389,-3.8133,-3.7982,-3.7947,-3.7808,-3.7596,-3.7321,-3.7614,-3.7523,-3.7113,-3.7246,-3.7395,-3.7469,-3.6919,-3.6701,-3.6626,-3.5873,-3.5421,-3.5128,-3.4645,-3.4611,-3.4818,-3.4818,-3.4318,-3.3524,-3.2507,-3.2334,-3.2438,-3.1955,-3.2145,-3.2421,-3.1938,-3.2145,-3.2421,-3.1921,-3.18,-3.18,-3.18,-3.18,-3.1856,-3.2073,-3.1934,-3.1689,-3.1413,-3.0947,-3.0329,-2.9564,-3.0027,-3.0246,-2.9478,-2.9973,-3.0421,-3.0356,-3.0197,-2.9865,-2.9314,-2.9139,-2.8846,-2.8265,-2.9144,-2.9736,-2.9736,-2.9499,-2.9264,-2.901,-2.7757,-2.6725,-2.5998,-2.5744,-2.5,-2.378,0.0,0.0,0.0,0.0,0.0,0.0,0.0,0.0,0.0,0.0,0.0,0.0,0.0,0.0,0.0,0.0,0.0,0.0,0.0,0.0,0.0,0.0,0.0,-2.8894,-3.0848,-3.1811,-3.0909,-3.2296,-3.2925,-3.196,-3.2751,-3.325,-3.3073,-3.3957,-3.4857,-3.5709,-3.6485,-3.7316,-3.818,-3.7948,-3.8017,-3.8415,-3.8415,-3.8525,-3.8807,-3.8921,-3.8737,-3.831,-3.8615,-3.8298,-3.7523,-3.7913,-3.7861,-3.7505,-3.7505,-3.7505,-3.7432,-3.6638,-3.5894,-3.5272,-3.5272,-3.4806,-3.4185,-3.4167,-3.363,-3.2972,-3.2938,-3.2438,-3.1834,-3.1834,-3.1817,-3.18,-3.18,-3.18,-3.18,-3.18,-3.18,-3.18,-3.18,-3.18,-3.18,-3.18,-3.1231,-3.0713,-3.0696,-3.1226,-3.1418,-3.0612,-3.0451,-3.0386,-3.0267,-2.9448,0.0,-2.8669,-2.7742,-2.7087,-2.7041,-2.6976,-2.6876,-2.6759,-2.8147,-2.901,-2.8976,-2.9651,-2.9753,-2.9027,-2.8213,-2.7418,-2.6708,-2.5981,-2.5253,-2.4525,0.0,0.0,0.0,0.0,0.0,0.0,0.0,0.0,0.0,0.0,0.0,0.0,0.0,0.0,0.0,0.0,0.0,0.0,0.0,0.0,0.0,-2.7912,-2.9636,-3.0291,-3.0884,-3.1669,-3.2817,-3.3364,-3.3575,-3.3337,-3.3538,-3.3904,-3.4485,-3.4615,-3.5314,-3.6851,-3.6968,-3.7442,-3.8452,-3.8423,-3.8566,-3.8898,-3.8755,-3.8728,-3.8807,-3.8652,-3.8362,-3.8012,-3.8097,-3.7911,-3.7505,-3.7614,-3.7596,-3.7505,-3.7505,-3.7505,-3.7487,-3.7265,-3.7065,-3.6871,-3.6871,-3.6557,-3.6059,-3.5518,-3.4992,-3.4473,-3.3938,-3.3231,-3.261,-3.261,-3.2214,-3.18,-3.18,-3.18,-3.18,-3.18,-3.18,-3.18,-3.18,-3.18,-3.18,-3.18,-3.1627,-3.1316,-3.0675,-3.0698,-3.0612,-2.9896,-2.9337,-2.8955,-2.8858,-2.8135,0.0,-2.7477,-2.7208,-2.7212,-2.7675,-2.7709,-2.764,-2.752,-2.8924,-2.933,-2.8213,-2.8873,-2.9213,-2.901,-2.7706,-2.6911,-2.6691,-2.5981,-2.5507,0.0,0.0,0.0,0.0,0.0,0.0,0.0,0.0,0.0,0.0,0.0,0.0,0.0,0.0,0.0,0.0,0.0,0.0,0.0,0.0,0.0,0.0,-2.8831,-3.0586,-3.1262,-3.1598,-3.2294,-3.3682,-3.3908,-3.3947,-3.3895,-3.4278,-3.4666,-3.5068,-3.568,-3.6503,-3.7542,-3.7772,-3.8177,-3.8789,-3.8737,-3.8785,-3.896,-3.8848,-3.8807,-3.8807,-3.8725,-3.8585,-3.836,-3.8328,-3.8214,-3.8032,-3.8016,-3.7999,-3.7999,-3.7999,-3.7999,-3.7965,0.0,0.0,0.0,0.0,-3.7208,-3.7042,-3.6271,-3.5865,-3.5572,-3.482,-3.4144,-3.3565,-3.3047,-3.261,-3.2196,-3.1886,-3.18,-3.18,-3.18,-3.18,-3.18,-3.18,-3.18,-3.18,-3.18,-3.1763,-3.157,-3.1067,-3.0944,0.0,-3.0398,-2.9197,-2.8356,-2.8613,-2.7741,-2.7159,-2.7384,-2.7146,-2.7112,-2.7504,-2.7488,-2.7419,-2.7351,-2.8755,0.0,0.0,0.0,-2.8705,-2.8062,-2.7182,0.0,0.0,0.0,0.0,0.0,0.0,0.0,0.0,-2.5977,-2.5858,0.0,0.0,0.0,0.0,0.0,0.0,0.0,0.0,0.0,0.0,0.0,0.0,0.0,0.0,0.0,0.0,-2.9474,-3.0828,-3.1982,-3.2654,-3.3251,-3.3867,-3.4099,-3.4136,-3.3947,-3.4877,-3.5434,-3.5288,-3.6909,-3.7931,-3.8024,-3.8711,0.0,0.0,0.0,-3.8818,-3.8818,-3.8818,-3.8818,-3.8851,-3.9017,-3.9059,-3.9011,-3.8935,-3.8862,-3.8807,-3.8735,-3.8704,-3.8723,-3.8707,-3.8707,-3.8627,-3.7861,-3.7596,-3.7578,-3.7132,-3.719,-3.7395,-3.6638,0.0,0.0,-3.5563,-3.5079,-3.4579,-3.3543,-3.3099,-3.2822,-3.2167,-3.1962,-3.1911,-3.1856,-3.1874,-3.1911,-3.1856,-3.1873,-3.1855,-3.1818,-3.1709,-3.1617,-3.1598,-3.154,-3.1517,-3.1498,-2.9671,-2.8425,-2.9,-2.7896,-2.7197,-2.7794,-2.7284,-2.691,-2.6978,0.0,0.0,-2.6826,-2.8163,-2.8653,-2.7858,-2.8636,-2.84,-2.6759,-2.6911,-2.6928,-2.6758,-2.6791,-2.6791,-2.6758,-2.7085,-2.7588,-2.8226,-2.6699,-2.6557,0.0,0.0,0.0,0.0,0.0,0.0,0.0,0.0,0.0,0.0,0.0,0.0,0.0,0.0,0.0,-2.9018,-3.0031,-3.124,-3.2753,-3.3067,-3.3433,-3.414,-3.4209,-3.4185,-3.4148,-3.4965,-3.5745,-3.6337,-3.7342,-3.8172,-3.8822,-3.9027,-3.9101,-3.9101,-3.9059,-3.9045,-3.9045,-3.9045,-3.9045,-3.9045,-3.9087,0.0,-3.8993,-3.8997,-3.8935,-3.8881,-3.8807,-3.8777,-3.8777,-3.8719,-3.8707,-3.8643,-3.8186,-3.8168,-3.8385,-3.765,-3.7414,-3.7432,-3.6958,-3.6574,-3.6287,-3.6139,-3.5638,-3.5119,-3.5219,-3.4331,0.0,-3.3212,-3.2913,-3.2553,-3.2283,-3.2403,-3.2536,-3.2266,-3.2197,-3.2126,-3.1856,-3.1781,-3.1727,-3.1617,-3.1579,-3.1559,-3.1517,-3.0098,-2.9005,-2.9104,-2.7862,-2.6927,-2.6962,-2.6826,-2.6979,-2.7571,-2.7604,-2.7587,-2.7587,-2.845,-2.8653,-2.7858,-2.9108,-2.8924,-2.6776,-2.8101,-2.8321,-2.7136,-2.7367,-2.7367,-2.7101,-2.7428,-2.7546,-2.7453,-2.8002,-2.8732,0.0,0.0,0.0,0.0,0.0,0.0,0.0,0.0,0.0,0.0,0.0,-2.6646,-2.7161,0.0,-2.9137,-3.0007,-3.1225,-3.2341,-3.3184,-3.359,-3.3926,-3.4267,-3.4269,-3.4401,-3.4822,-3.5621,-3.6439,-3.7225,-3.8042,-3.8674,-3.9082,-3.9101,-3.9101,-3.9101,-3.9101,-3.9101,-3.9101,-3.9101,-3.9101,-3.9101,-3.9101,-3.9073,-3.9064,-3.9007,-3.8979,-3.8954,-3.8881,-3.8837,-3.8792,-3.8719,-3.8707,-3.8676,-3.8252,-3.8352,-3.8627,-3.8034,-3.793,-3.7999,-3.7414,-3.7322,-3.7414,-3.7036,-3.6791,-3.6572,-3.6218,-3.5243,-3.4217,-3.3844,-3.3287,-3.2763,-3.2586,-3.2666,-3.2747,-3.2586,-3.242,-3.2249,-3.2091,-3.202,-3.1984,-3.1912,-3.1985,-3.2039,-3.202,-3.1029,-2.9989,-2.9209,-2.8271,-2.7416,-2.6775,-2.6691,-2.6843,-2.7215,-2.7249,-2.7249,-2.7249,-2.7604,-2.7912,-2.8032,-2.8425,-2.8203,-2.7247,-2.8064,-2.8195,-2.7461,-2.7609,-2.7627,-2.7461,-2.78,-2.829,-2.8931,-2.9694,-2.9962,0.0,0.0,0.0,0.0,0.0,0.0,0.0,0.0,-2.5797,-2.657,-2.6907,-2.7359,-2.8334,-2.9196,-3.013,-3.1221,-3.2466,-3.3393,-3.3596,-3.4113,-3.4397,-3.434,-3.4316,-3.4616,-3.5442,-3.6235,-3.7021,-3.7838,-3.8655,-3.9101,-3.9101,-3.9101,-3.9101,-3.9101,-3.9101,-3.9101,-3.9101,-3.9101,-3.9101,-3.9101,-3.9101,-3.9101,-3.9101,-3.9031,-3.9021,-3.9007,-3.8921,-3.8848,-3.8792,-3.8719,-3.8707,-3.8676,-3.8334,-3.8417,-3.8643,-3.8152,-3.8236,-3.8483,-3.7738,-3.7913,-3.8368,-3.7703,-3.7721,-3.7839,-3.6985,-3.6056,-3.5162,-3.4499,-3.3687,-3.2983,-3.2905,-3.2937,-3.2983,-3.2905,-3.2684,-3.247,-3.2403,-3.2352,-3.2318,-3.2318,-3.2436,-3.2551,-3.2551,-3.2038,-3.1102,-2.9524,-2.885,-2.809,-2.6943,-2.6791,-2.6775,-2.6708,-2.6691,-2.6691,-2.6691,-2.6894,-2.7333,-2.8042,-2.7881,-2.7726,-2.7686,-2.7915,-2.7944,-2.7771,-2.7829,-2.7829,-2.7786,-2.8106,-2.8914,-3.0123,-3.0817,-3.0853,-2.598,-2.5102,-2.434,-2.5691,-2.5634,-2.5768,0.0,0.0,-2.7837,-2.8478,-2.8861,-2.9334,-3.0155,-3.055,-3.1278,-3.2864,-3.3277,-3.3634,-3.4358,-3.4534,-3.455,-3.4484,-3.4363,-3.4628,-3.5504,-3.626,-3.7021,-3.7838,-3.8655,-3.9101,-3.9101,-3.9101,-3.9101,-3.9101,-3.9101,-3.9101,-3.9101,-3.9101,-3.9101,-3.9101,-3.9101,-3.9101,-3.9101,-3.9087,-3.9087,-3.9073,-3.895,-3.8848,-3.8792,-3.8719,-3.8707,-3.8692,-3.8643,-3.8676,-3.8611,-3.7844,-3.7826,-3.8101,-3.765,-3.756,-3.7614,-3.7523,-3.7542,-3.7614,-3.784,-3.6859,-3.5614,-3.5535,-3.4626,-3.3606,-3.3335,-3.3465,-3.3606,-3.3302,-3.3232,-3.3108,-3.2795,-3.2749,-3.2731,-3.2731,-3.27,-3.2685,-3.2685,-3.2743,-3.2175,-3.0272,-2.9349,-2.8441,-2.73,-2.7149,-2.7021,-2.6725,-2.6691,-2.6691,-2.6691,-2.7571,-2.7889,-2.7369,-2.8812,-2.9088,-2.7754,-2.8674,-2.8852,-2.8079,-2.8344,-2.8357,-2.8061,-2.8396,-2.8499,-2.8415,-3.0188,-3.1774,-2.6562,-2.5775,-2.5077,0.0,-2.5921,-2.6416,-2.7764,-2.7947,-2.8051,-2.8846,-2.959,-3.0205,-3.0541,-3.1572,-3.2582,0.0,-3.3794,-3.4226,-3.4545,-3.4612,-3.4602,-3.455,-3.4473,-3.4916,-3.6187,-3.6539,-3.7225,-3.8488,-3.8915,-3.9101,-3.9101,-3.9101,-3.9101,-3.9101,-3.9101,-3.9101,-3.9101,-3.9101,-3.9101,-3.9101,-3.9101,-3.9101,-3.9101,-3.9101,-3.9101,-3.9101,-3.9007,-3.8925,-3.8848,-3.8777,-3.8735,-3.8707,-3.8707,-3.8707,-3.8676,-3.8318,-3.8302,-3.8435,-3.8252,-3.8203,-3.8203,-3.8203,-3.8203,-3.8236,-3.8401,-3.732,-3.6042,-3.6054,-3.4971,-3.378,-3.3638,-3.3694,-3.3762,-3.3606,-3.3437,-3.3258,-3.3124,-3.3093,-3.3093,-3.3093,-3.3229,-3.335,-3.335,-3.3364,-3.281,-3.1008,-3.0219,-2.9251,-2.7692,-2.7491,-2.7428,-2.7289,-2.7289,-2.7305,-2.735,-2.7751,-2.794,-2.7783,-2.851,-2.8728,-2.8246,-2.8667,-2.8752,-2.8396,-2.8569,-2.8594,-2.8456,-2.8632,-2.888,-2.9225,-3.007,-3.1357,-2.6294,-2.5838,0.0,-2.5653,-2.6303,-2.7111,-2.786,-2.8099,-2.8356,-2.9047,-2.9986,-3.0752,-3.0968,-3.2333,-3.3465,-3.37,-3.4226,-3.4612,-3.4612,-3.4612,-3.4612,-3.4612,-3.4539,-3.5041,-3.636,-3.6447,-3.7065,-3.8655,-3.8767,-3.8859,-3.9082,-3.9101,-3.9101,-3.9101,-3.9101,-3.9101,-3.9101,-3.9101,-3.9101,-3.9101,-3.9101,-3.9101,-3.9101,-3.9101,-3.9101,-3.9101,-3.9036,-3.8964,-3.8921,-3.8866,-3.8792,-3.8719,-3.8719,-3.8723,-3.8707,-3.8707,-3.8707,-3.8707,-3.8707,-3.856,-3.8414,-3.8634,-3.856,-3.8377,-3.8377,-3.7404,-3.6248,-3.6009,-3.4908,-3.3807,-3.3807,-3.3807,-3.3807,-3.3807,-3.3606,-3.3437,-3.3437,-3.3437,-3.3437,-3.3437,-3.3625,-3.378,-3.378,-3.3529,-3.2839,-3.1425,-3.0708,-2.974,-2.8031,-2.7757,-2.7713,-2.7698,-2.773,-2.7742,-2.7768,-2.7855,-2.7964,-2.8156,-2.8281,-2.8422,-2.8587,-2.8612,-2.8625,-2.8625,-2.8687,-2.8706,-2.8737,-2.8773,-2.9089,-2.9685,-2.9948,-3.0826,-2.4856,0.0,-2.5476,-2.6195,-2.7076,-2.7959,-2.8697,-2.9123,-2.9355,-2.9392,-3.0195,-3.1137,-3.1907,-3.2789,-3.3663,-3.4433,-3.4583,-3.4612,-3.4612,-3.4612,-3.4612,-3.4612,-3.4539,-3.4809,-3.5649,-3.567,-3.6261,-3.7833,-3.7931,-3.8284,-3.9064,-3.9101,-3.9101,-3.9101,-3.9101,-3.9101,-3.9101,-3.9101,-3.9101,-3.9101,-3.9101,-3.9101,-3.9101,-3.9101,-3.9101,-3.9101,-3.9036,-3.8993,-3.8979,-3.8921,-3.8866,-3.8807,-3.8807,-3.8765,-3.8707,-3.8707,-3.8707,-3.8707,-3.8707,-3.8193,-3.7658,-3.845,-3.8175,-3.7547,-3.7547,-3.696,-3.6119,-3.5279,-3.4435,-3.3807,-3.3807,-3.3807,-3.3807,-3.3807,-3.3775,-3.3775,-3.3775,-3.3775,-3.3775,-3.3775,-3.3739,-3.3698,-3.3698,-3.299,-3.2169,-3.1331,-3.0511,-2.9551,-2.825,-2.7908,-2.7768,-2.7716,-2.7771,-2.7768,-2.7698,-2.7936,-2.8084,-2.8102,-2.8469,-2.8657,-2.86,-2.8657,-2.8694,-2.8694,-2.8694,-2.8737,-2.8785,-2.8798,-2.8816,-2.887,-2.963,-3.0471,-2.6665,0.0,-2.5968,-2.7109,-2.7706,-2.8178,-2.8865,-2.9209,-2.9433,-2.9569,-3.0714,-3.1785,-3.2048,-3.325,-3.4282,-3.4556,-3.4612,-3.4612,-3.4612,-3.4612,-3.4612,-3.4612,-3.4572,-3.467,-3.4884,-3.5333,0.0,-3.7777,-3.7894,-3.8247,-3.9064,-3.9101,-3.9101,-3.9101,-3.9101,-3.9101,-3.9101,-3.9101,-3.9101,-3.9101,-3.9101,-3.9101,-3.9101,-3.9101,-3.9101,-3.9101,-3.9073,-3.905,-3.9011,-3.8983,-3.891,-3.8807,-3.8807,-3.8765,-3.8707,-3.8707,-3.8707,-3.8707,-3.8707,-3.8175,-3.7639,-3.8432,-3.8157,-3.7492,-3.7492,-3.6942,-3.6119,-3.5261,-3.4417,-3.3807,-3.3807,-3.3807,-3.3807,-3.3807,-3.3807,-3.3807,-3.3807,-3.3807,-3.3807,-3.3807,-3.3793,-3.3766,-3.3766,-3.3533,-3.2838,-3.1407,-3.005,-2.9028,-2.8556,-2.843,-2.8383,-2.8291,-2.8317,-2.8344,-2.837,-2.8487,-2.8563,-2.8563,-2.8743,-2.881,-2.8737,-2.8749,-2.8761,-2.8761,-2.8822,-2.8827,-2.887,-2.887,-2.887,-2.887,-2.9144,-2.9716,-2.7131,-2.6916,-2.6795,-2.7724,-2.8188,-2.8594,-2.9116,-2.9293,-2.9477,-3.002,-3.0902,-3.1781,-3.2432,-3.3193,-3.3888,-3.4489,-3.4358,-3.4264,-3.4545,-3.4612,-3.4612,-3.4612,-3.4612,-3.4561,0.0,0.0,0.0,-3.7389,-3.748,-3.7949,-3.9045,-3.9101,-3.9101,-3.9101,-3.9101,-3.9101,-3.9101,-3.9101,-3.9101,-3.9101,-3.9101,-3.9101,-3.9101,-3.9101,-3.9101,-3.9101,-3.9101,-3.9073,-3.9036,-3.9036,-3.8964,-3.8881,-3.8881,-3.8807,-3.8698,-3.8422,-3.8465,-3.8707,-3.8707,-3.8175,-3.7639,-3.8432,-3.8157,-3.7456,-3.7162,-3.6707,-3.6064,-3.4894,-3.4197,-3.3807,-3.3807,-3.3807,-3.3807,-3.3807,-3.3807,-3.3807,-3.3807,-3.3807,-3.3807,-3.3807,-3.3807,-3.3775,-3.378,-3.3276,-3.229,-3.0604,-2.9491,-2.8798,-2.8687,-2.87,-2.8669,-2.86,-2.8625,-2.865,-2.8657,-2.8737,-2.8761,-2.8761,-2.8834,-2.8846,-2.8798,-2.8798,-2.881,-2.8834,-2.8881,-2.8917,-2.894,-2.894,-2.894,-2.894,-2.894,-2.9362,-2.6363,-2.6934,-2.7853,-2.8022,-2.8606,-2.9193,-2.9428,-2.9367,-2.9527,-3.0619,-3.0728,-3.1163,0.0,0.0,-3.2687,-3.4282,-3.3926,-3.3738,-3.4489,-3.4612,-3.4612,0.0,0.0,0.0,0.0,0.0,0.0,-3.6758,0.0,-3.7405,-3.9008,-3.9101,-3.9101,-3.9101,-3.9101,-3.9101,-3.9101,-3.9101,-3.9101,-3.9101,-3.9101,-3.9101,-3.9101,-3.9101,-3.9101,-3.9101,-3.9101,-3.9101,-3.9101,-3.9101,-3.9045,-3.8993,-3.8993,-3.8888,-3.8659,-3.7927,-3.8085,-3.8652,-3.8689,-3.8175,-3.7639,-3.8432,-3.8157,-3.7345,-3.6541,-3.6303,-3.5954,-3.4266,-3.3807,-3.3807,-3.3807,-3.3807,-3.3807,-3.3807,-3.3807,-3.3807,-3.3807,-3.3807,-3.3807,-3.3807,-3.3807,-3.3762,-3.3657,-3.2291,-3.067,-2.9089,-2.8876,-2.8834,-2.8637,-2.8675,-2.8682,-2.8612,-2.8675,-2.8687,-2.8612,-2.8675,-2.8706,-2.8706,-2.8773,-2.881,-2.881,-2.881,-2.8846,-2.8887,-2.8917,-2.894,-2.9005,-2.9005,-2.9005,-2.9005,-2.9005,-2.9409,-2.8062,-2.8234,-2.8153,-2.8746,-2.9218,-2.9533,-2.9504,-2.9542,-2.9655,-2.9945,-3.0433,-3.0967,0.0,0.0,0.0,-3.3644,-3.4038,0.0,-3.4564,-3.4612,0.0,-3.4612,0.0,-3.4846,-3.548,-3.5503,0.0,0.0,-3.7193,-3.7463,-3.9008,-3.9101,-3.9101,-3.9101,-3.9101,-3.9101,-3.9101,-3.9101,-3.9101,-3.9101,-3.9101,-3.9101,-3.9101,-3.9101,-3.9101,-3.9101,-3.9101,-3.9101,-3.9101,-3.9101,-3.9045,-3.8993,-3.8993,-3.8584,-3.8018,-3.8361,-3.8239,-3.7956,-3.8502,-3.8175,-3.7639,-3.8432,-3.8157,-3.7345,-3.6541,-3.6303,-3.5954,-3.4266,-3.3807,-3.3807,-3.3807,-3.3807,-3.3807,-3.3807,-3.3807,-3.3807,-3.3807,-3.3807,-3.3807,-3.3807,-3.3807,-3.3605,-3.2991,-3.1992,-3.0929,-2.9917,-2.9241,-2.881,-2.8749,-2.881,-2.8815,-2.8749,-2.8761,-2.8761,-2.8749,-2.8822,-2.8858,-2.8858,-2.8905,-2.8959,-2.8959,-2.8959,-2.897,-2.8964,-2.8964,-2.8975,-2.9005,-2.9005,-2.9005,-2.9005,-2.9005,-2.9115,-2.8595,-2.8781,-2.8828,-2.9344,-2.957,-2.9708,-2.9672,-2.9644,-2.9729,-3.0133,-3.0226,0.0,-3.0827,-3.1663,0.0,0.0,0.0,0.0,-3.4545,-3.4612,-3.4612,0.0,-3.4612,0.0,-3.5822,-3.5863,-3.6496,0.0,-3.7667,-3.7862,-3.9068,-3.9115,-3.9101,-3.9101,-3.9101,-3.9101,-3.9101,-3.9101,-3.9101,-3.9101,-3.9101,-3.9101,-3.9101,-3.9101,-3.9101,-3.9101,-3.9101,-3.8897,-3.8599,-3.8952,-3.8665,-3.803,-3.8382,-3.8211,-3.7752,-3.7802,-3.7962,-3.8129,-3.8213,-3.8132,-3.8102,-3.856,-3.8395,-3.7808,-3.6652,-3.6303,-3.5954,-3.4266,-3.3807,-3.3807,-3.3807,-3.3807,-3.3807,-3.3807,-3.3807,-3.3807,-3.3807,-3.3807,-3.3807,-3.3807,-3.378,-3.3386,-3.2232,-3.1594,-3.0848,-2.971,-2.915,-2.8846,-2.8846,-2.8846,-2.8834,-2.8761,-2.8773,-2.8785,-2.8761,-2.8827,-2.8905,-2.8905,-2.8952,-2.9005,-2.9005,-2.9005,-2.9005,-2.9005,-2.9005,-2.9005,-2.9005,-2.9005,-2.9005,-2.9005,-2.9005,-2.9005,-2.8614,-2.9007,-2.957,-2.975,-2.976,-2.9753,-2.9859,-2.9699,-2.9757,-3.0565,0.0,-2.9706,-3.0592,-3.0837,-3.1156,-3.1973,0.0,-3.3682,-3.4489,-3.4612,-3.4612,-3.4612,-3.4612,-3.4977,-3.5953,-3.6066,-3.67,-3.8265,-3.8271,-3.8497,-3.916,-3.9142,-3.9101,-3.9101,-3.9101,-3.9101,-3.9101,-3.9101,-3.9101,-3.9101,-3.9101,-3.9101,-3.9101,-3.9101,-3.9101,-3.9101,-3.9101,-3.8692,-3.8098,-3.8692,-3.8116,-3.6928,-3.7634,-3.7797,-3.7581,-3.7113,-3.7646,-3.8582,-3.7978,-3.8177,-3.8707,-3.8707,-3.8634,-3.8267,-3.6762,-3.6211,-3.5807,-3.4247,-3.3807,-3.3807,-3.3807,-3.3807,-3.3807,-3.3807,-3.3807,-3.3807,-3.3807,-3.3807,-3.3807,-3.3807,-3.3753,-3.3199,-3.1589,-3.1263,-3.0682,-2.9077,-2.887,-2.8917,-2.8917,-2.8858,-2.8798,-2.8731,-2.8773,-2.8773,-2.8718,-2.8827,-2.8887,-2.8917,-2.8964,-2.9005,-2.9005,-2.9005,-2.9005,-2.9005,-2.9005,-2.9005,-2.9005,-2.9005,-2.9005,-2.9005,-2.9005,-2.9005,-2.9277,-2.9595,-2.9735,-2.9716,-2.9796,-2.9866,-2.9815,-2.9745,0.0,0.0,-2.9777,-2.9692,-2.9889,-3.0443,-3.1156,-3.1973,0.0,0.0,0.0,0.0,-3.4612,0.0,0.0,0.0,0.0,-3.6885,0.0,0.0,-3.9283,-3.9236,-3.921,-3.9142,-3.9101,-3.9101,-3.9101,-3.9101,-3.9101,-3.9101,-3.9101,-3.9101,-3.9101,-3.9101,-3.9101,-3.9101,-3.9101,-3.9101,-3.9101,-3.9027,-3.8841,-3.8321,-3.7931,-3.7708,-3.7838,-3.7485,-3.7031,-3.8169,-3.8302,-3.7958,-3.8435,-3.8636,-3.8707,-3.8707,-3.8248,-3.7529,-3.6578,-3.5807,-3.5023,-3.4082,-3.3807,-3.3807,-3.3807,-3.3807,-3.3807,-3.3807,-3.3807,-3.3807,-3.3807,-3.3807,-3.3807,-3.3807,-3.3793,-3.328,-3.1665,-3.1359,-3.0815,-2.9208,-2.8982,-2.8975,-2.8975,-2.8917,-2.8881,-2.8881,-2.8834,-2.8822,-2.887,-2.8893,-2.8929,-2.8982,-2.8994,-2.9005,-2.9005,-2.9005,-2.9005,-2.9005,-2.9005,-2.9005,-2.9005,-2.9005,-2.9005,-2.9005,-2.9005,-2.9005,-2.9532,-2.9754,-2.9842,-2.9806,-2.9823,-2.9832,-2.9753,0.0,0.0,0.0,-2.9701,-2.9551,-2.9119,0.0,0.0,0.0,0.0,0.0,0.0,0.0,0.0,0.0,0.0,0.0,0.0,-3.733,-3.8074,-3.9781,-3.9859,-3.9665,-3.9328,-3.917,-3.9101,-3.9101,-3.9101,-3.9101,-3.9101,-3.9101,-3.9101,-3.9101,-3.9101,-3.9101,-3.9101,-3.9101,-3.9101,-3.9101,-3.9101,-3.8859,-3.8469,-3.8507,-3.8024,-3.7318,-3.7745,-3.7652,-3.7411,-3.815,-3.8382,-3.8379,-3.8719,-3.8795,-3.8707,-3.8707,-3.8157,-3.7272,-3.6009,-3.5334,-3.4839,-3.4027,-3.3807,-3.3807,-3.3807,-3.3807,-3.3807,-3.3807,-3.3807,-3.3807,-3.3807,-3.3807,-3.3807,-3.3807,-3.3807,-3.3293,-3.169,-3.1397,-3.0852,-2.9244,-2.9005,-2.9005,-2.9005,-2.894,-2.8905,-2.8905,-2.8905,-2.8893,-2.8905,-2.8929,-2.897,-2.9005,-2.9005,-2.9005,-2.9005,-2.9005,-2.9005,-2.9005,-2.9005,-2.9005,-2.9005,-2.9005,-2.9005,-2.9005,-2.9005,-2.9005,-2.9682,-2.9754,-2.9887,-2.9859,-2.9825,-2.9763,-2.9699,-2.969,0.0,0.0,-2.9701,-2.9495,-2.8791,0.0,-3.048,0.0,-3.1166,0.0,0.0,0.0,0.0,0.0,0.0,0.0,0.0,-3.7536,0.0,-4.0071,-4.0129,-3.9897,-3.9458,-3.9229,-3.9101,-3.9101,-3.9101,-3.9101,-3.9101,-3.9101,-3.9101,-3.9101,-3.9101,-3.9101,-3.9101,-3.9101,-3.9101,-3.9101,-3.9101,-3.8729,-3.8191,-3.8655,-3.8098,-3.7021,-3.7652,-3.7894,-3.7912,-3.8079,-3.8479,-3.8888,-3.8707,-3.8693,-3.8631,-3.8083,-3.7606,-3.7015,-3.5665,-3.5041,-3.4619,-3.3972,-3.3807,-3.3807,-3.3807,-3.3807,-3.3807,-3.3807,-3.3807,-3.3807,-3.3807,-3.3807,-3.3807,-3.3807,-3.3807,-3.333,-3.1898,-3.1513,-3.0907,-2.9464,-2.9115,-2.9005,-2.9005,-2.8952,-2.8917,-2.8917,-2.894,-2.894,-2.8887,-2.894,-2.8975,-2.9005,-2.9005,-2.9005,-2.9005,-2.9005,-2.9005,-2.9005,-2.9005,-2.9005,-2.9005,-2.9005,-2.9005,-2.9005,-2.9005,-2.9005,-2.9906,-2.9754,-2.978,-2.9726,-2.9717,-2.9699,-2.971,0.0,0.0,-2.9711,-2.9701,-2.9683,-2.9589,-2.9701,-3.0021,-3.0687,0.0,-3.2405,0.0,0.0,0.0,0.0,0.0,0.0,0.0,-3.7589,-3.8323,-4.0071,-4.0129,-3.9912,-3.9512,-3.9253,-3.9101,-3.9101,-3.9101,-3.9101,-3.9101,-3.9101,-3.9101,-3.9101,-3.9101,-3.9101,-3.9101,-3.9101,-3.9101,-3.9101,-3.9101,-3.9064,-3.8934,-3.8284,-3.7912,-3.7801,-3.7856,-3.7894,-3.7986,-3.8711,-3.899,-3.8886,-3.8075,-3.8243,-3.8409,-3.6097,-3.5844,-3.6376,-3.6229,-3.511,-3.3899,-3.3825,-3.3807,-3.3807,-3.3807,-3.3807,-3.3807,-3.3807,-3.3807,-3.3807,-3.3807,-3.3807,-3.3807,-3.3807,-3.3807,-3.3532,-3.2638,-3.188,-3.1103,-3.0228,-2.9464,-2.9005,-2.9005,-2.8994,-2.8994,-2.8994,-2.89,-2.8834,-2.8905,-2.8917,-2.894,-2.8994,-2.9005,-2.9005,-2.9005,-2.9005,-2.9005,-2.9005,-2.9005,-2.9005,-2.9005,-2.9005,-2.9005,-2.9005,-2.9005,-2.9005,-3.0518,-3.0434,-3.033,-2.9832,-2.9701,-2.9692,-2.9692,0.0,-2.9701,-2.9701,-2.9701,-2.9701,-2.9701,-2.9701,-2.9795,-3.0133,-3.0508,-3.1071,-3.1902,0.0,0.0,0.0,0.0,0.0,0.0,0.0,-3.8686,-4.0426,-4.0389,-4.0167,-3.9875,-3.9529,-3.9261,-3.9115,-3.9101,-3.9101,-3.9101,-3.9101,-3.9101,-3.9101,-3.9101,-3.9101,-3.9101,-3.9101,-3.9101,-3.9101,-3.9101,-3.9101,-3.9082,-3.8748,-3.8618,-3.8618,-3.8618,-3.8618,-3.8655,-3.8971,-3.9064,-3.8882,-3.8058,-3.7899,-3.7834,-3.6319,-3.5707,-3.5426,-3.4945,-3.4321,-3.3807,-3.3807,-3.3807,-3.3807,-3.3807,-3.3807,-3.3807,-3.3807,-3.3807,-3.3807,-3.3807,-3.3807,-3.3807,-3.3807,-3.3807,-3.3532,-3.2729,-3.1935,-3.114,-3.032,-2.9519,-2.9005,-2.9005,-2.9005,-2.9005,-2.9005,-2.8959,-2.8935,-2.897,-2.8952,-2.8964,-2.9005,-2.9005,-2.9005,-2.9005,-2.9005,-2.9005,-2.9005,-2.9005,-2.9005,-2.9005,-2.9005,-2.9005,-2.9005,-2.9005,-2.9005,-3.0968,-3.1062,-3.1119,-3.0546,-3.0227,-3.0058,0.0,-2.987,-2.9701,-2.9701,-2.9701,-2.9701,-2.9701,-2.9701,-2.9701,-2.9701,-3.0014,-3.0541,-3.1364,-3.2559,0.0,0.0,0.0,-3.6335,0.0,-3.8575,-3.9475,-4.0719,-4.0639,-4.0419,-4.0192,-3.9905,-3.9571,-3.9165,-3.9129,-3.9101,-3.9101,-3.9101,-3.9101,-3.9101,-3.9101,-3.9101,-3.9101,-3.9101,-3.9101,-3.9101,-3.9101,-3.9101,-3.9101,-3.9101,-3.9101,-3.9101,-3.9101,-3.9101,-3.9101,-3.9101,-3.9059,-3.8873,-3.7803,-3.7549,-3.7432,-3.6099,-3.54,-3.4904,-3.4045,-3.3807,-3.3807,-3.3807,-3.3807,-3.3807,-3.3807,-3.3807,-3.3807,-3.3807,-3.3807,-3.3807,-3.3807,-3.3807,-3.3807,-3.3807,-3.3807,-3.3623,-3.3041,-3.2284,-3.1549,-3.0999,-3.0014,-2.9354,-2.9354,-2.9152,-2.9005,-2.9005,-2.9005,-2.9005,-2.9005,-2.9005,-2.9005,-2.9005,-2.9005,-2.9005,-2.9005,-2.9005,-2.9005,-2.9005,-2.9005,-2.9005,-2.9005,-2.9005,-2.9005,-2.9005,-2.9005,-2.9005,-3.1119,-3.1485,-3.2086,-3.2086,-3.1485,-3.0893,0.0,-3.0265,-2.9701,-2.9701,-2.9701,-2.9701,-2.9701,-2.9701,-2.9701,-2.9701,-3.0486,-3.1402,-3.2253,-3.3949,0.0,0.0,0.0,-3.7011,-3.8084,-3.9765,-4.0777,-4.0797,-4.079,0.0,-4.0414,-4.0326,-3.9994,-3.9324,-3.9183,-3.9101,-3.9101,-3.9101,-3.9101,-3.9101,-3.9101,-3.9101,-3.9101,-3.9101,-3.9101,-3.9101,-3.9101,-3.9101,-3.9101,-3.9101,-3.9101,-3.9101,-3.9101,-3.9101,-3.9101,-3.9101,-3.9101,-3.8864,-3.7195,-3.7136,-3.7373,-3.4776,-3.4502,-3.5009,-3.4091,-3.3807,-3.3807,-3.3807,-3.3807,-3.3807,-3.3807,-3.3807,-3.3807,-3.3807,-3.3807,-3.3807,-3.3807,-3.3807,-3.3807,-3.3807,-3.3807,-3.3807,-3.3788,-3.3128,-3.2583,-3.2583,-3.1207,-3.0191,-3.0191,-2.9482,-2.9005,-2.9005,-2.9005,-2.9005,-2.9005,-2.9005,-2.9005,-2.9005,-2.9005,-2.9005,-2.9005,-2.9005,-2.9005,-2.9005,-2.9005,-2.9005,-2.9005,-2.9005,-2.9005,-2.9005,-2.9005,-2.9005,-3.0968,-3.1081,-3.1137,-3.0603,-3.0265,-3.0077,-3.0077,-2.987,-2.9701,-2.9701,-2.9701,-2.9701,-2.9701,-2.9701,-2.987,-3.0424,-3.089,-3.1463,0.0,0.0,0.0,0.0,-3.7308,-3.8717,0.0,0.0,-4.0797,-4.0797,-4.0797,-4.07,-4.0481,-4.0403,-4.0072,-3.947,-3.9408,-3.9285,-3.9101,-3.9101,-3.9101,-3.9101,-3.9101,-3.9101,-3.9101,-3.9101,-3.9101,-3.9101,-3.9101,-3.9101,-3.9101,-3.9101,-3.9101,-3.9101,-3.9101,-3.9101,-3.9101,-3.9101,-3.9101,-3.8878,-3.723,-3.6819,-3.6655,-3.4678,-3.4157,-3.4263,-3.396,-3.3847,-3.3807,-3.3807,-3.3807,-3.3807,-3.3807,-3.3807,-3.3807,-3.3807,-3.3807,-3.3807,-3.3807,-3.3807,-3.3807,-3.3807,-3.3807,-3.3807,-3.3807,-3.3115,-3.2399,-3.1861,-3.0889,-3.0008,-2.9445,-2.9152,-2.9005,-2.9005,-2.9005,-2.9005,-2.9005,-2.9005,-2.9005,-2.9005,-2.9005,-2.9005,-2.9005,-2.9005,-2.9005,-2.9005,-2.9005,-2.9005,-2.9005,-2.9005,-2.9005,-2.9005,-2.9005,-2.9005,-3.1194,-3.1344,-3.1306,-3.1147,-3.0621,-3.0152,-3.0152,-2.9927,-2.9701,-2.9701,-2.9701,-2.9701,-2.9701,-2.9945,-3.0321,-3.0818,-3.1316,-3.2087,0.0,0.0,0.0,0.0,0.0,0.0,0.0,-4.0294,-4.0797,-4.0797,-4.0797,-4.0746,-4.0621,-4.0557,-4.0309,-3.9853,-3.9625,-3.9364,-3.9101,-3.9101,-3.9101,-3.9101,-3.9101,-3.9101,-3.9101,-3.9101,-3.9101,-3.9101,-3.9101,-3.9101,0.0,-3.9101,-3.9101,-3.9064,-3.8767,-3.8655,-3.8655,-3.8655,-3.8451,-3.8042,-3.7039,-3.6456,-3.5953,-3.4556,-3.4011,-3.3895,-3.3868,-3.3829,-3.3807,-3.3807,-3.3807,-3.3807,-3.3807,-3.3807,-3.3807,-3.3807,-3.3807,-3.3807,-3.3807,-3.3807,-3.3807,-3.3807,-3.3807,-3.3807,-3.3807,-3.3385,-3.2889,-3.2375,-3.1347,-3.0467,-2.9971,-2.9372,-2.9005,-2.9005,-2.9005,-2.9005,-2.9005,-2.9005,-2.9005,-2.9005,-2.9005,-2.9005,-2.9005,-2.9005,-2.9005,-2.9005,-2.9005,-2.9005,-2.9005,-2.9005,-2.9005,-2.9005,-2.9005,-2.9228,0.0,-3.1973,-3.2123,-3.2931,-3.1963,-3.0818,-3.0818,-3.0246,0.0,-2.9701,-2.9701,-2.972,-2.9758,-3.0359,-3.0856,-3.0968,-3.1761,-3.3019,0.0,-3.4685,0.0,0.0,-3.8533,0.0,-3.9597,-4.0313,-4.0797,-4.0797,-4.0797,-4.0797,-4.0797,-4.0739,-4.0612,-4.0406,-3.9853,-3.9414,-3.9124,-3.9129,-3.9115,-3.9101,-3.9101,-3.9101,-3.9101,-3.9101,-3.9101,-3.9101,-3.9045,-3.9008,-3.9008,-3.8952,-3.8934,-3.8841,-3.8098,-3.7801,-3.7801,-3.7801,-3.7336,-3.6686,-3.663,-3.6142,-3.5349,-3.4402,-3.4023,-3.3895,-3.3815,-3.3788,-3.3807,-3.3807,-3.3807,-3.3807,-3.3807,-3.3807,-3.3807,-3.3807,-3.3807,-3.3807,-3.3807,-3.3807,-3.3807,-3.3807,-3.3752,-3.3733,-3.3788,-3.3752,-3.3715,-3.3715,-3.243,-3.147,-3.1415,-3.0099,-2.9152,-2.9097,-2.9097,-2.906,-2.9005,-2.9005,-2.9005,-2.9005,-2.9005,-2.9005,-2.9005,-2.9005,-2.9005,-2.9005,-2.9005,-2.9005,-2.9005,-2.9005,-2.9017,-2.901,-2.901,-2.961,-3.0912,0.0,-3.0302,-3.0509,-3.0265,-2.9983,0.0,-2.9833,-2.9701,-2.9701,0.0,-2.9889,-3.0499,-3.0265,-3.0377,-3.1616,-3.2071,-3.2675,-3.3868,0.0,0.0,-3.7833,-3.9437,-4.0487,-4.0487,-4.0681,-4.0797,-4.0797,-4.0797,-4.0797,-4.0797,-4.0784,-4.0666,-4.0414,-4.0257,-3.9944,-3.9402,-3.9305,-3.9192,-3.9101,-3.9101,-3.9101,-3.9101,-3.9101,-3.9101,-3.9064,-3.8451,-3.8172,-3.8135,-3.7522,-3.7262,-3.7257,-3.7058,-3.6978,-3.6978,-3.6978,-3.6866,-3.6606,-3.6012,-3.5659,-3.5349,-3.4402,-3.4086,-3.4036,-3.3908,-3.3829,-3.3807,-3.3807,-3.3807,-3.3807,-3.3807,-3.3807,-3.3807,-3.3807,-3.3807,-3.3807,-3.3807,-3.3807,-3.3807,-3.3807,-3.3311,-3.3091,-3.3697,-3.3293,-3.2876,-3.2876,-3.2559,-3.21,-3.1488,-3.1072,-3.0595,-2.9989,-2.9922,-2.9666,-2.906,-2.9005,-2.9005,-2.9005,-2.9005,-2.9005,-2.9005,-2.9005,-2.9005,-2.9005,-2.9005,-2.9005,-2.9005,-2.9005,-2.9089,-2.9238,-2.9238,-2.9791,-3.0218,-3.0021,-2.9795,-3.0152,-2.9964,-2.9701,-2.9701,0.0,0.0,0.0,0.0,-2.9833,-3.0265,-3.0603,-3.1091,-3.1954,-3.2853,0.0,0.0,0.0,0.0,-3.8284,-3.9746,-4.0797,0.0,-4.0797,-4.0797,-4.0797,-4.0797,-4.0797,-4.0797,-4.0797,-4.0733,-4.0591,-4.0492,-4.0201,-3.9694,-3.9488,-3.9364,-3.9287,-3.9165,-3.9101,-3.9082,-3.8711,-3.8544,-3.8488,-3.7689,-3.7336,-3.7318,-3.6885,-3.6699,-3.6649,-3.629,-3.616,-3.616,-3.616,-3.59,-3.5535,-3.551,-3.525,-3.481,-3.4272,-3.4099,-3.4086,-3.3972,-3.3895,-3.3829,-3.382,-3.3807,-3.3807,-3.3807,-3.3807,-3.3807,-3.3807,-3.3807,-3.3807,-3.3807,-3.3807,-3.3697,-3.333,-3.3201,-3.3183,-3.3238,-3.3201,-3.3146,-3.3146,-3.2839,-3.2436,-3.2008,-3.1311,-3.0815,-3.076,-3.0099,-2.961,-2.9555,-2.9207,-2.9005,-2.9005,-2.9005,-2.9005,-2.9005,-2.9005,-2.9005,-2.9005,-2.9005,-2.9005,-2.9005,-2.9082,-2.9195,-2.9304,-2.9395,-3.0208,-2.9814,-2.9889,-3.0021,-3.0574,-3.0208,-2.9701,-2.9701,0.0,0.0,0.0,0.0,0.0,0.0,-3.1072,0.0,0.0,0.0,0.0,-3.5518,-3.8376,-3.9901,-3.8566,-3.9823,0.0,-4.0797,-4.0797,-4.0797,-4.0797,-4.0797,-4.0797,-4.0797,-4.0797,-4.0797,-4.0797,-4.0628,-4.038,-4.0034,-3.9748,-3.9576,-3.9536,-3.9287,-3.9109,-3.8906,-3.8236,-3.7833,-3.7671,-3.6872,-3.6532,-3.6513,-3.6383,-3.6315,-3.624,-3.5566,-3.5306,-3.5306,-3.5306,-3.4829,-3.4309,-3.5045,-3.4822,-3.4185,-3.4136,-3.4124,-3.4099,-3.4036,-3.3972,-3.3908,-3.3847,-3.382,-3.3807,-3.3807,-3.3807,-3.3807,-3.3807,-3.3807,-3.3807,-3.3807,-3.3807,-3.3605,-3.2913,-3.3238,-3.344,-3.2876,-3.3256,-3.366,-3.377,-3.322,-3.2784,-3.2784,-3.1586,-3.0962,-3.1513,-3.0363,-2.9721,-3.0173,-2.9574,-2.9133,-2.9005,-2.9005,-2.9005,-2.9005,-2.9005,-2.8998,-2.9044,-2.9044,-2.9055,-2.91,-2.927,-2.9365,-2.9405,-2.9711,-3.0788,-3.0441,-3.0658,-3.0574,-3.0021,-2.9795,-2.9701,-2.9701,0.0,0.0,0.0,0.0,0.0,0.0,-3.1391,-3.155,0.0,0.0,-3.4626,0.0,0.0,-3.8779,-3.9249,0.0,-4.0797,-4.0797,-4.0797,-4.0797,-4.0797,-4.0797,-4.0797,-4.0797,-4.0797,-4.0797,-4.0797,-4.0778,-4.0713,-4.0661,-4.0227,-3.9886,-3.9675,-3.9583,-3.9089,-3.8245,-3.8069,-3.7575,-3.6835,-3.603,-3.5677,-3.564,-3.4884,-3.4569,-3.4569,-3.4439,-3.4401,-3.4401,-3.4401,-3.4309,-3.4216,-3.4346,-3.4309,-3.4197,-3.4185,-3.4185,-3.4173,-3.4099,-3.4074,-3.4049,-3.3921,-3.3842,-3.3807,-3.3807,-3.3807,-3.3807,-3.3807,-3.3807,-3.3807,-3.3807,-3.3807,-3.3752,-3.3642,-3.3183,-3.2949,-3.3532,-3.3146,-3.3023,-3.3697,-3.3697,-3.3623,-3.3623,-3.3403,-3.3036,-3.2485,-3.2179,-3.1537,-3.032,-3.0099,-2.9721,-2.9042,-2.9005,-2.9005,-2.9005,-2.9005,-2.9089,-2.9241,-2.9241,-2.9334,-2.9513,-2.9542,-2.9644,-2.9832,-3.0602,-3.1564,-3.0047,-3.0517,-3.0818,-3.0443,-3.0359,-3.0227,-2.9795,0.0,0.0,0.0,0.0,0.0,0.0,0.0,-3.2701,-3.4103,0.0,-3.5741,-3.6685,-3.8008,-3.9056,0.0,0.0,-4.0797,-4.0797,-4.0797,-4.0797,-4.0797,-4.0797,-4.0797,-4.0797,-4.0797,-4.0797,-4.0797,-4.0797,-4.0797,-4.0797,-4.0123,-3.9882,-4.0063,-3.9418,-3.8872,-3.8395,-3.7305,-3.6599,-3.6171,-3.5212,-3.4804,-3.4767,-3.4364,-3.4197,-3.4197,-3.4197,-3.4197,-3.4197,-3.4197,-3.4197,-3.4197,-3.4197,-3.4197,-3.4197,-3.4197,-3.4197,-3.4197,-3.4161,-3.4136,-3.4086,-3.3985,-3.3908,-3.386,-3.382,-3.3807,-3.3807,-3.3807,-3.3807,-3.3807,-3.3807,-3.3807,-3.3678,-3.3238,-3.3201,-3.3238,-3.3151,-3.322,-3.3366,-3.3733,-3.3807,-3.3807,-3.3807,-3.3421,-3.3183,-3.3238,-3.2467,-3.1825,-3.1531,-3.0705,-2.9849,-2.906,-2.9005,-2.9005,-2.9005,-2.9093,-2.9206,-2.9293,-2.9415,-2.9513,-2.9608,-2.9707,-2.9813,-2.9916,-3.0874,-3.1817,-2.9793,-3.0376,-3.0893,-3.0893,0.0,-3.0781,-3.0359,-3.0114,0.0,0.0,0.0,0.0,0.0,-3.3141,0.0,-3.5228,-3.5971,-3.6511,-3.6847,-3.8044,-3.8978,-3.9172,-3.9965,-4.0507,-4.0507,-4.0507,-4.0584,-4.0777,-4.0603,-4.0507,-4.0507,-4.0507,-4.041,-4.0191,-4.0191,-4.0191,-4.0191,-3.9539,-3.9515,-4.0122,-3.9028,-3.8394,-3.8109,-3.6592,-3.5788,-3.5549,-3.4674,-3.4286,-3.4293,-3.4221,-3.4197,-3.4197,-3.4197,-3.4197,-3.4197,-3.4197,-3.4197,-3.4197,-3.4197,-3.4197,-3.4197,-3.4197,-3.4197,-3.4197,-3.4197,-3.4161,-3.4111,-3.4023,-3.3959,-3.3895,-3.3815,-3.3807,-3.3807,-3.3807,-3.3807,-3.3807,-3.3807,-3.3807,-3.3623,-3.2999,-3.3385,-3.3605,-3.2986,-3.3385,-3.3807,-3.3807,-3.3807,-3.3807,-3.3807,-3.3256,-3.3128,-3.3733,-3.2687,-3.2137,-3.2564,-3.1115,-2.9946,-2.9398,-2.912,-2.901,-2.9067,-2.9217,-2.9345,-2.9445,-2.9598,-2.9698,-2.9742,-2.9897,-3.0075,-3.0265,-3.1253,-3.2164,-3.0426,-3.0758,-3.0893,-3.0893,-3.0893,0.0,-3.1767,-3.1354,0.0,-3.1842,0.0,0.0,0.0,-3.4109,-3.5126,-3.6141,-3.5848,-3.5811,-3.677,0.0,-3.7386,-3.8193,-3.905,-3.9597,-3.9597,-3.9597,-3.9926,-4.0739,-4.0042,-3.9597,-3.9597,-3.9597,-3.923,-3.8406,-3.8386,-3.8386,-3.8386,-3.8309,-3.8666,-3.936,-3.8416,-3.7463,-3.6559,-3.6365,-3.5798,-3.4945,-3.4693,-3.4567,-3.455,-3.4305,-3.4197,-3.4197,-3.4197,-3.4197,-3.4197,-3.4197,-3.4197,-3.4197,-3.4197,-3.4197,-3.4197,-3.4197,-3.4197,-3.4197,-3.4197,-3.4197,-3.4173,-3.4036,-3.3998,-3.3959,-3.3829,-3.3807,-3.3807,-3.3807,-3.3807,-3.3807,-3.3807,-3.3807,-3.377,-3.3715,-3.3752,-3.377,-3.3715,-3.3752,-3.3807,-3.3807,-3.3807,-3.3807,-3.3807,-3.3752,-3.3733,-3.3788,-3.3697,-3.3348,-3.2656,-3.1115,-3.0249,-3.0379,-2.9517,-2.9071,-2.9262,-2.9293,-2.9484,-2.9847,-2.9872,-2.998,-3.0157,-3.0164,-3.0553,-3.1309,-3.2195,-3.3062,-2.9805,-3.0756,-3.1529,-3.0967,-3.1643,0.0,0.0,-3.1119,-3.1287,-3.263,-3.2912,0.0,0.0,0.0,-3.6116,-3.6408,-3.5981,-3.5885,-3.6781,-3.6903,-3.7232,-3.8096,-3.8489,-3.8682,-3.8682,-3.8682,-3.8837,-3.9166,-3.8876,-3.8682,-3.8682,-3.8682,-3.8547,-3.8212,-3.8193,-3.8193,-3.8193,-3.7651,-3.7537,-3.779,-3.745,-3.7083,-3.6683,-3.5998,-3.548,-3.5135,-3.4943,-3.4841,-3.4841,-3.4685,-3.4561,-3.4428,-3.4281,-3.4197,-3.4197,-3.4197,-3.4197,-3.4197,-3.4197,-3.4197,-3.4197,-3.4197,-3.4197,-3.4197,-3.4197,-3.4173,-3.4124,-3.4023,-3.3972,-3.3908,-3.3815,-3.3807,-3.3807,-3.3807,-3.3807,-3.3807,-3.3807,-3.3807,-3.3807,-3.3807,-3.3807,-3.3807,-3.3807,-3.3807,-3.3807,-3.3807,-3.3807,-3.3807,-3.3807,-3.3807,-3.3807,-3.3807,-3.3807,-3.3476,-3.2674,-3.2195,-3.1765,-3.1348,-2.9979,-2.928,-2.9484,-2.9608,-2.9742,-2.9888,-3.0026,-3.0128,-3.0211,-3.0211,-3.0605,-3.1419,-3.2298,-3.3158,-2.9812,-3.0704,-3.1591,-3.1293,0.0,0.0,-3.1832,-3.1682,-3.2096,-3.3568,-3.4078,0.0,-3.5843,0.0,0.0,0.0,-3.6055,-3.5897,-3.6439,-3.6516,-3.6748,-3.7348,-3.7632,-3.7787,-3.7787,-3.7787,-3.7903,-3.8174,-3.7941,-3.7787,-3.7787,-3.7787,-3.7671,-3.7425,-3.7406,-3.7406,-3.7406,-3.6826,-3.6516,-3.6516,-3.6516,-3.6516,-3.6491,-3.5753,-3.5406,-3.5386,-3.5178,-3.5092,-3.5086,-3.4935,-3.4744,-3.4505,-3.4286,-3.4197,-3.4197,-3.4197,-3.4197,-3.4197,-3.4197,-3.4197,-3.4197,-3.4197,-3.4197,-3.4197,-3.4197,-3.4173,-3.4111,-3.4023,-3.3972,-3.3908,-3.3815,-3.3807,-3.3807,-3.3807,-3.3807,-3.3807,-3.3807,-3.3807,-3.3807,-3.3807,-3.3807,-3.3807,-3.3807,-3.3807,-3.3807,-3.3807,-3.3807,-3.3807,-3.3807,-3.3807,-3.3807,-3.3807,-3.3868,-3.37,-3.3147,-3.3096,-3.2888,-3.2395,-3.1058,-3.0236,-3.0113,-3.0236,-3.0213,-2.9996,-3.0135,-3.0345,-3.0605,-3.0605,-3.1178,-3.2248,-3.2833,-3.3566,-3.0687,-3.0692,-3.0922,0.0,0.0,0.0,-3.3004,-3.339,-3.3688,-3.4699,-3.56,-3.6245,-3.6379,-3.6457,0.0,-3.6579,-3.6093,-3.5704,-3.5704,-3.5704,-3.5704,-3.5704,-3.64,-3.6884,-3.6884,-3.6884,-3.7251,-3.8115,-3.7386,-3.6884,-3.6884,-3.6884,-3.6516,-3.5723,-3.5704,-3.5704,-3.5704,-3.5704,-3.5704,-3.5704,-3.5704,-3.5704,-3.5704,-3.5704,-3.5654,-3.5595,-3.5392,-3.5302,-3.5274,-3.4944,-3.4641,-3.4386,-3.4257,-3.4197,-3.4197,-3.4197,-3.4197,-3.4197,-3.4197,-3.4197,-3.4197,-3.4197,-3.4197,-3.4197,-3.4197,-3.4197,-3.4173,-3.4036,-3.3998,-3.3972,-3.3847,-3.3807,-3.3807,-3.3807,-3.3807,-3.3807,-3.3807,-3.3807,-3.3807,-3.3807,-3.3807,-3.3807,-3.3807,-3.3807,-3.3807,-3.3807,-3.3807,-3.3807,-3.3807,-3.3807,-3.3807,-3.3788,-3.4036,-3.4197,-3.4209,-3.3657,-3.3408,-3.3601,-3.287,-3.2064,-3.1248,-3.121,-3.0893,-3.0242,-3.023,-3.0643,-3.1503,-3.1503,-3.2363,-3.3995,-3.3995,-3.4426,-2.9938,-3.0222,0.0,-3.11,0.0,0.0,0.0,-3.339,0.0,0.0,-3.577,-3.6546,-3.6474,-3.6644,0.0,-3.6676,-3.6118,-3.5704,-3.5704,-3.5704,-3.5704,-3.5704,-3.5916,-3.6052,-3.6052,-3.6052,-3.6168,-3.6419,-3.6207,-3.6052,-3.6052,-3.6052,-3.5955,-3.5704,-3.5704,-3.5704,-3.5704,-3.5704,-3.5704,-3.5704,-3.5704,-3.5704,-3.5704,-3.5704,-3.5684,-3.5673,-3.562,-3.5577,-3.554,-3.5122,-3.4813,-3.4588,-3.4363,-3.4245,-3.4197,-3.4197,-3.4197,-3.4197,-3.4197,-3.4197,-3.4197,-3.4197,-3.4197,-3.4197,-3.4197,-3.4173,-3.4124,-3.4086,-3.3998,-3.3921,-3.3868,-3.3847,-3.3807,-3.3807,-3.3807,-3.3807,-3.3807,-3.3807,-3.3807,-3.3807,-3.3807,-3.3807,-3.3807,-3.3807,-3.3807,-3.3807,-3.3807,-3.3807,-3.3807,-3.3807,-3.3868,-3.4061,-3.4161,-3.425,-3.4405,-3.4406,-3.4453,-3.45,-3.4418,-3.3724,-3.2305,-3.2248,-3.2157,-3.1954,-3.1954,-3.2088,-3.2336,-3.2336,-3.2917,-3.3995,-3.3995,-3.4426,-3.04,-3.0748,0.0,-3.1648,-3.2505,-3.3382,-3.3824,0.0,0.0,0.0,-3.5948,-3.6579,-3.6243,-3.6524,0.0,-3.635,-3.5954,-3.5704,-3.5704,-3.5704,-3.5704,-3.5704,-3.5704,-3.5704,-3.5704,-3.5704,-3.5704,-3.5704,-3.5704,-3.5704,-3.5704,-3.5704,-3.5704,-3.5704,-3.5704,-3.5704,-3.5704,-3.5704,-3.5704,-3.5704,-3.5704,-3.5704,-3.5704,-3.5704,-3.5704,-3.5704,-3.5704,-3.5668,-3.5596,-3.5201,-3.4978,-3.4822,-3.4548,-3.4469,-3.448,-3.448,-3.448,-3.448,-3.448,-3.448,-3.448,-3.448,-3.448,-3.448,-3.448,-3.439,-3.4293,-3.4269,-3.4124,-3.3972,-3.3908,-3.3868,-3.3829,-3.382,-3.3807,-3.3807,-3.3807,-3.3807,-3.3807,-3.3807,-3.3807,-3.3807,-3.3807,-3.3807,-3.3807,-3.3807,-3.3807,-3.3807,-3.3807,-3.3895,-3.4023,-3.4185,-3.4356,-3.4534,-3.4653,-3.487,-3.5028,-3.5028,-3.5132,-3.4743,-3.3731,-3.3387,-3.3043,-3.2718,-3.2699,-3.2871,-3.3223,-3.3223,-3.3643,-3.4483,-3.4483,-3.4732,-3.1496,0.0,0.0,-3.2955,-3.3269,0.0,-3.4632,-3.4973,-3.5154,-3.5331,0.0,-3.6428,-3.5803,-3.6189,-3.6408,-3.5809,-3.5704,-3.5704,-3.5704,-3.5704,-3.5704,-3.5704,-3.5704,-3.5704,-3.5704,-3.5704,-3.5704,-3.5704,-3.5704,-3.5704,-3.5704,-3.5704,-3.5704,-3.5704,-3.5704,-3.5704,-3.5704,-3.5704,-3.5704,-3.5704,-3.5704,-3.5704,-3.5704,-3.5704,-3.5704,-3.5704,-3.5704,-3.562,-3.5477,-3.5235,-3.5117,-3.5088,-3.4822,-3.4803,-3.4898,-3.4889,-3.4908,-3.4908,-3.4908,-3.4908,-3.4908,-3.4908,-3.4908,-3.4908,-3.4889,-3.4751,-3.4572,-3.4495,-3.4293,-3.4074,-3.3947,-3.3908,-3.3881,-3.3815,-3.3788,-3.3807,-3.3807,-3.3807,-3.3807,-3.3807,-3.3807,-3.3807,-3.3807,-3.3807,-3.3807,-3.3807,-3.3807,-3.382,-3.3829,-3.4049,-3.4221,-3.4269,-3.466,-3.4917,-3.4936,-3.5089,-3.5209,-3.5209,-3.5209,-3.5209,-3.5209,-3.4503,-3.3738,-3.2947,-3.2928,-3.331,-3.4109,-3.4109,-3.4483,-3.5209,-3.5209,-3.5209,-3.0809,-3.0864,0.0,0.0,-3.3754,-3.4601,-3.577,-3.5552,-3.513,-3.522,-3.5598,-3.5875,-3.5723,-3.5822,-3.5875,-3.5723,-3.5704,-3.5704,-3.5704,-3.5704,-3.5704,-3.5704,-3.5704,-3.5704,-3.5704,-3.5704,-3.5704,-3.5704,-3.5704,-3.5704,-3.5704,-3.5704,-3.5704,-3.5704,-3.5704,-3.5704,-3.5704,-3.5704,-3.5704,-3.5704,-3.5704,-3.5704,-3.5704,-3.5704,-3.5704,-3.5704,-3.5704,-3.562,-3.5483,-3.5378,-3.525,-3.5081,-3.498,-3.4925,-3.4898,-3.4898,-3.4908,-3.4908,-3.4908,-3.4908,-3.4908,-3.4908,-3.4908,-3.4879,-3.471,-3.4626,-3.455,-3.4328,-3.4185,-3.4099,-3.4061,-3.3985,-3.3895,-3.3881,-3.3847,-3.3807,-3.3807,-3.3807,-3.3807,-3.3807,-3.3807,-3.3807,-3.3807,-3.3807,-3.3807,-3.3807,-3.3807,-3.3868,-3.4086,-3.4161,-3.4333,-3.4722,-3.4841,-3.4954,-3.5115,-3.5185,-3.5209,-3.5209,-3.5209,-3.5209,-3.5209,-3.5037,-3.4846,-3.4666,-3.4666,-3.4743,-3.4942,-3.4942,-3.5037,-3.5209,-3.5209,-3.5209,0.0,0.0,0.0,-3.4062,0.0,0.0,-3.6205,-3.5825,-3.5265,-3.5321,-3.5534,-3.5704,-3.5704,-3.5704,-3.5704,-3.5704,-3.5704,-3.5704,-3.5704,-3.5704,-3.5704,-3.5704,-3.5704,-3.5704,-3.5704,-3.5704,-3.5704,-3.5704,-3.5704,-3.5704,-3.5704,-3.5704,-3.5704,-3.5704,-3.5704,-3.5704,-3.5704,-3.5704,-3.5704,-3.5704,-3.5704,-3.5704,-3.5704,-3.5704,-3.5704,-3.5704,-3.5704,-3.5662,-3.559,-3.549,-3.5417,-3.5324,-3.5224,-3.5184,-3.5181,-3.519,-3.5193,-3.5193,-3.5193,-3.5193,-3.5193,-3.5193,-3.5115,-3.5028,-3.4927,-3.4761,-3.4561,-3.4439,-3.4269,-3.4136,-3.4111,-3.4049,-3.3985,-3.3908,-3.3842,-3.3807,-3.3807,-3.3807,-3.3807,-3.3807,-3.3807,-3.3807,-3.3807,-3.3807,-3.3842,-3.3972,-3.3985,-3.4068,-3.4314,-3.4458,-3.462,-3.487,-3.4992,-3.5089,-3.5201,-3.5209,-3.5209,-3.5209,-3.5209,-3.5209,-3.5209,-3.5209,-3.5209,-3.5209,-3.5209,-3.5209,-3.5209,-3.5209,-3.5209,-3.5209,-3.5209,-3.5209,0.0,0.0,-3.3571,-3.566,-3.5752,0.0,-3.6706,-3.625,-3.5643,-3.5734,-3.5711,-3.5704,-3.5704,-3.5704,-3.5704,-3.5704,-3.5704,-3.5704,-3.5704,-3.5704,-3.5704,-3.5704,-3.5704,-3.5704,-3.5704,-3.5704,-3.5704,-3.5704,-3.5704,-3.5704,-3.5704,-3.5704,-3.5704,-3.5704,-3.5704,-3.5704,-3.5704,-3.5704,-3.5704,-3.5704,-3.5704,-3.5704,-3.5704,-3.5704,-3.5704,-3.5704,-3.5704,-3.5704,-3.5679,-3.5584,-3.5565,-3.5601,-3.5476,-3.5463,-3.5515,-3.5508,-3.5507,-3.55,-3.55,-3.55,-3.55,-3.55,-3.5395,-3.5242,-3.5218,-3.4936,-3.4636,-3.4623,-3.445,-3.4257,-3.4197,-3.4191,-3.4191,-3.408,-3.3992,-3.3902,-3.3815,-3.3807,-3.3807,-3.3807,-3.3847,-3.3868,-3.3868,-3.3908,-3.3992,-3.4215,-3.425,-3.4333,-3.454,-3.4754,-3.4908,-3.4955,-3.5107,-3.5218,-3.5209,-3.5209,-3.5209,-3.5209,-3.5209,-3.5209,-3.5209,-3.5209,-3.5209,-3.5209,-3.5209,-3.5209,-3.5209,-3.5209,-3.5209,-3.5209,-3.5209,-3.5209,0.0,0.0,0.0,0.0,-3.6595,-3.6672,0.0,0.0,-3.6555,0.0,-3.6162,-3.5704,-3.5704,-3.5704,-3.5704,-3.5704,-3.5704,-3.5704,-3.5704,-3.5704,-3.5704,-3.5704,-3.5704,-3.5704,-3.5704,-3.5704,-3.5704,-3.5704,-3.5704,-3.5704,-3.5704,-3.5704,-3.5704,-3.5704,-3.5704,-3.5704,-3.5704,-3.5704,-3.5704,-3.5704,-3.5704,-3.5704,-3.5704,-3.5704,-3.5704,-3.5704,-3.5704,-3.5704,-3.5704,-3.5673,-3.5673,-3.5679,-3.5595,-3.5584,-3.5585,-3.5515,-3.5495,-3.55,-3.55,-3.55,-3.55,-3.55,-3.5486,-3.5424,-3.525,-3.5046,-3.4812,-3.4647,-3.4561,-3.4539,-3.4528,-3.4618,-3.4703,-3.4693,-3.4591,-3.4364,-3.3908,-3.3807,-3.3807,-3.3807,-3.3985,-3.4148,-3.4148,-3.4291,-3.442,-3.4453,-3.4464,-3.454,-3.4803,-3.4889,-3.4962,-3.5141,-3.5245,-3.5269,-3.5209,-3.5209,-3.5209,-3.5209,-3.5209,-3.5209,-3.5209,-3.5209,-3.5209,-3.5209,-3.5209,-3.5209,-3.5209,-3.5209,-3.5209,-3.5209,-3.5209,-3.5209,-3.1738,-3.2999,-3.4584,0.0,-3.6853,-3.6947,-3.8845,0.0,-3.6839,-3.6886,-3.6265,-3.5704,-3.5704,-3.5704,-3.5704,-3.5704,-3.5704,-3.5704,-3.5704,-3.5704,-3.5704,-3.5704,-3.5704,-3.5704,-3.5704,-3.5704,-3.5704,-3.5704,-3.5704,-3.5704,-3.5704,-3.5704,-3.5704,-3.5704,-3.5704,-3.5704,-3.5704,-3.5704,-3.5704,-3.5704,-3.5704,-3.5704,-3.5704,-3.5704,-3.5704,-3.5704,-3.5704,-3.5704,-3.5704,-3.5704,-3.5704,-3.5684,-3.5637,-3.5595,-3.5596,-3.5528,-3.5496,-3.5495,-3.5507,-3.55,-3.55,-3.55,-3.5424,-3.5324,-3.5226,-3.5063,-3.487,-3.4801,-3.4771,-3.4771,-3.4771,-3.4802,-3.4851,-3.4821,-3.4753,-3.4632,-3.4353,-3.4166,-3.4023,-3.4023,-3.4215,-3.4371,-3.4371,-3.4442,-3.4551,-3.4694,-3.4714,-3.4822,-3.5081,-3.5124,-3.5166,-3.5246,-3.527,-3.5297,-3.5254,-3.5258,-3.5261,-3.5261,-3.5218,-3.5209,-3.5209,-3.5209,-3.5209,-3.5209,-3.5209,-3.5209,-3.5209,-3.5209,-3.5209,-3.5209,-3.5209,-3.5209,-3.2747,-3.3625,-3.4533,-3.6625,-3.6827,-3.6991,0.0,0.0,-3.7229,0.0,-3.6588,-3.5936,-3.5742,-3.5704,-3.5704,-3.5704,-3.5704,-3.5704,-3.5704,-3.5704,-3.5704,-3.5704,-3.5704,-3.5704,-3.5704,-3.5704,-3.5704,-3.5704,-3.5704,-3.5704,-3.5704,-3.5704,-3.5704,-3.5704,-3.5704,-3.5704,-3.5704,-3.5704,-3.5704,-3.5704,-3.5704,-3.5704,-3.5704,-3.5704,-3.5704,-3.5704,-3.5704,-3.5704,-3.5704,-3.5704,-3.5704,-3.5704,-3.5643,-3.5626,-3.5589,-3.554,-3.5509,-3.5509,-3.5494,-3.55,-3.55,-3.55,-3.5403,-3.5293,-3.5293,-3.5132,-3.4982,-3.4982,-3.4982,-3.4982,-3.4982,-3.5019,-3.5046,-3.4991,-3.4954,-3.4908,-3.4743,-3.4483,-3.4298,-3.4298,-3.4461,-3.4593,-3.4593,-3.4634,-3.4754,-3.4945,-3.4992,-3.5063,-3.5269,-3.5308,-3.5289,-3.5227,-3.5235,-3.5243,-3.5227,-3.5226,-3.5245,-3.5304,-3.5253,-3.5209,-3.5209,-3.5209,-3.5209,-3.5209,-3.5209,-3.5209,-3.5209,-3.5209,-3.5209,-3.5209,-3.5209,-3.5209,-3.3152,-3.3202,0.0,-3.5798,0.0,0.0,0.0,0.0,-3.8131,-3.8137,-3.744,-3.6593,-3.5839,-3.5704,-3.5704,-3.5704,-3.5704,-3.5704,-3.5704,-3.5704,-3.5704,-3.5704,-3.5704,-3.5704,-3.5704,-3.5704,-3.5704,-3.5704,-3.5704,-3.5704,-3.5704,-3.5704,-3.5704,-3.5704,-3.5704,-3.5704,-3.5704,-3.5704,-3.5704,-3.5704,-3.5704,-3.5704,-3.5704,-3.5704,-3.5704,-3.5704,-3.5704,-3.5704,-3.5704,-3.5704,-3.5704,-3.5704,-3.5704,-3.5651,-3.5598,-3.5598,-3.5547,-3.55,-3.55,-3.55,-3.55,-3.55,-3.5493,-3.5486,-3.5486,-3.5346,-3.5174,-3.5174,-3.5174,-3.5174,-3.5174,-3.5331,-3.5479,-3.5453,-3.5424,-3.5246,-3.4793,-3.4643,-3.4591,-3.4591,-3.4743,-3.487,-3.487,-3.5046,-3.5166,-3.5174,-3.5245,-3.5277,-3.5304,-3.5354,-3.5293,-3.5032,-3.5069,-3.5077,-3.5015,-3.5028,-3.5091,-3.5296,-3.5253,-3.5209,-3.5209,-3.5209,-3.5209,-3.5209,-3.5209,-3.5209,-3.5209,-3.5209,-3.5209,-3.5209,-3.5209,-3.5209,-3.2023,-3.3019,0.0,0.0,-3.6028,-3.6791,-3.8209,-3.7892,-3.7302,-3.7352,-3.6675,-3.5991,-3.5742,-3.5704,-3.5704,-3.5704,-3.5704,-3.5704,-3.5704,-3.5704,-3.5704,-3.5704,-3.5704,-3.5704,-3.5704,-3.5704,-3.5704,-3.5704,-3.5704,-3.5704,-3.5704,-3.5168,-3.4877,-3.4877,-3.4877,-3.5129,-3.5684,-3.5704,-3.5704,-3.5704,-3.5704,-3.5704,-3.5704,-3.5704,-3.5704,-3.5704,-3.5704,-3.5704,-3.5704,-3.5704,-3.5704,-3.5704,-3.5704,-3.5693,-3.5651,-3.561,-3.5579,-3.5567,-3.552,-3.55,-3.55,-3.55,-3.55,-3.55,-3.55,-3.5446,-3.5383,-3.5383,-3.5383,-3.5383,-3.5383,-3.5439,-3.55,-3.55,-3.5474,-3.5424,-3.5239,-3.5025,-3.4832,-3.4803,-3.4981,-3.5143,-3.5098,-3.5149,-3.5218,-3.5261,-3.5277,-3.5327,-3.5361,-3.5391,-3.5335,-3.5157,-3.5157,-3.5157,-3.5122,-3.5098,-3.5149,-3.5354,-3.53,-3.5269,-3.5269,-3.5218,-3.5209,-3.5209,-3.5209,-3.5209,-3.5209,-3.5209,-3.5209,-3.5209,-3.5209,-3.5209,-3.1405,-3.2496,0.0,0.0,0.0,-3.5924,-3.7303,0.0,-3.6806,-3.6852,-3.6419,-3.596,-3.5706,-3.5679,-3.5704,-3.5704,-3.5704,-3.5704,-3.5704,-3.5704,-3.5704,-3.5704,-3.5704,-3.5704,-3.5704,-3.5704,-3.5704,-3.5704,-3.5438,-3.5264,-3.5264,-3.4447,-3.3968,-3.3959,-3.4279,-3.4705,-3.5285,-3.557,-3.5701,-3.5701,-3.569,-3.5704,-3.5704,-3.5704,-3.5704,-3.5704,-3.5704,-3.5704,-3.5704,-3.5704,-3.5704,-3.5704,-3.5704,-3.5679,-3.5668,-3.5616,-3.5591,-3.5554,-3.5527,-3.55,-3.55,-3.55,-3.55,-3.55,-3.55,-3.55,-3.55,-3.55,-3.55,-3.55,-3.55,-3.55,-3.55,-3.55,-3.55,-3.55,-3.55,-3.5312,-3.5119,-3.5086,-3.5187,-3.5281,-3.5231,-3.5231,-3.5258,-3.5289,-3.5324,-3.5346,-3.5398,-3.542,-3.5376,-3.5218,-3.5209,-3.5209,-3.5209,-3.5149,-3.5198,-3.5398,-3.5346,-3.53,-3.5312,-3.5261,-3.5218,-3.5209,-3.5209,-3.5209,-3.5209,-3.5209,-3.5209,-3.5209,-3.5209,-3.5209,0.0,0.0,0.0,0.0,0.0,0.0,-3.6202,0.0,-3.6703,-3.6748,-3.6787,-3.6566,-3.5755,-3.5648,-3.5704,-3.5704,-3.5704,-3.5704,-3.5704,-3.5704,-3.5704,-3.5704,-3.5704,-3.5704,-3.5704,-3.5704,-3.5704,-3.5704,-3.4897,-3.4394,-3.4394,-3.3557,-3.3059,-3.3069,-3.3945,-3.4439,-3.4497,-3.5272,-3.5669,-3.5707,-3.5662,-3.5684,-3.5704,-3.5665,-3.5684,-3.5704,-3.5704,-3.5704,-3.5704,-3.5704,-3.5704,-3.5704,-3.5704,-3.5668,-3.5601,-3.561,-3.556,-3.5502,-3.5494,-3.55,-3.55,-3.55,-3.55,-3.55,-3.55,-3.55,-3.55,-3.55,-3.55,-3.55,-3.55,-3.55,-3.55,-3.55,-3.55,-3.55,-3.55,-3.5453,-3.5405,-3.5405,-3.5357,-3.5289,-3.5308,-3.5308,-3.5308,-3.5289,-3.5364,-3.5405,-3.5405,-3.5453,-3.5417,-3.5226,-3.5193,-3.5193,-3.5201,-3.5122,-3.5171,-3.5398,-3.533,-3.5293,-3.5293,-3.5312,-3.5269,-3.5209,-3.5209,-3.5209,-3.5209,-3.5209,-3.5209,-3.5209,-3.5209,-3.5209,-3.0865,0.0,0.0,0.0,0.0,0.0,0.0,0.0,-3.434,-3.5599,-3.5367,-3.5078,-3.5526,-3.5614,-3.5637,-3.5637,-3.5673,-3.5704,-3.5704,-3.5704,-3.5704,-3.5704,-3.5704,-3.5704,-3.5704,-3.5704,-3.5704,0.0,-3.4897,-3.4394,-3.4394,-3.3016,-3.2232,-3.2241,-3.2477,-3.3222,-3.4497,-3.4667,-3.5083,-3.5688,-3.5062,-3.509,-3.5684,-3.5051,-3.511,-3.5704,-3.5704,-3.5704,-3.5704,-3.5704,-3.5704,-3.5704,-3.5704,-3.5684,-3.5668,-3.5616,-3.5591,-3.5573,-3.5527,-3.55,-3.55,-3.55,-3.55,-3.55,-3.55,-3.55,-3.55,-3.55,-3.55,-3.55,-3.55,-3.55,-3.55,-3.55,-3.55,-3.55,-3.55,-3.5493,-3.546,-3.5412,-3.5398,-3.5364,-3.5315,-3.5308,-3.5315,-3.5364,-3.5398,-3.5412,-3.546,-3.5361,-3.5258,-3.5209,-3.4945,-3.487,-3.5185,-3.5054,-3.5107,-3.5446,-3.5412,-3.5364,-3.5376,-3.5343,-3.5285,-3.5269,-3.5226,-3.5209,-3.5209,-3.5209,-3.5209,-3.5209,-3.5209,-3.5209,-3.0538,-3.1115,0.0,0.0,0.0,0.0,-3.3917,-3.3526,-3.3282,0.0,-3.4552,-3.4378,-3.4917,-3.5333,-3.5602,-3.5602,-3.5639,-3.5676,-3.5704,-3.5704,-3.5704,-3.5704,-3.5704,-3.5704,-3.5704,-3.538,-3.5168,-3.5168,-3.4002,-3.317,-3.2827,-3.1888,-3.1364,-3.1364,-3.1743,-3.2438,-3.3443,-3.3761,-3.4149,-3.4657,-3.4119,-3.4311,-3.5148,-3.4626,-3.4877,-3.5704,-3.5704,-3.5704,-3.5704,-3.5704,-3.5704,-3.5704,-3.5704,-3.5704,-3.5679,-3.5614,-3.561,-3.5591,-3.5509,-3.5494,-3.55,-3.55,-3.55,-3.55,-3.55,-3.55,-3.55,-3.55,-3.55,-3.55,-3.55,-3.55,-3.55,-3.55,-3.55,-3.55,-3.55,-3.55,-3.5493,-3.5453,-3.5446,-3.542,-3.5379,-3.5379,-3.5405,-3.5446,-3.5446,-3.546,-3.55,-3.5331,-3.5209,-3.5209,-3.5001,-3.4955,-3.5185,-3.5176,-3.525,-3.5486,-3.546,-3.542,-3.5405,-3.5346,-3.5308,-3.5312,-3.5226,-3.5209,-3.5209,-3.5209,-3.5209,-3.5209,-3.5209,-3.5209,-3.0404,-3.0404,0.0,-3.1365,-3.1641,0.0,-3.359,-3.3314,-3.3006,0.0,-3.3975,-3.3961,-3.4038,-3.4815,-3.5418,-3.5321,-3.5482,-3.5616,-3.5687,-3.5698,-3.5698,-3.5698,-3.5698,-3.5684,-3.5684,-3.4988,-3.451,-3.4413,-3.2783,-3.1449,-3.0631,-3.0617,-3.0603,-3.0614,-3.1428,-3.1916,-3.2013,-3.2707,-3.3109,-3.3201,-3.3045,-3.3427,-3.4258,-3.4258,-3.4723,-3.5549,-3.5665,-3.5704,-3.5704,-3.5704,-3.5704,-3.5704,-3.5704,-3.5704,-3.5684,-3.5612,-3.5602,-3.5591,-3.5522,-3.5502,-3.55,-3.55,-3.55,-3.55,-3.55,-3.55,-3.55,-3.55,-3.55,-3.55,-3.55,-3.55,-3.55,-3.55,-3.55,-3.55,-3.55,-3.55,-3.55,-3.55,-3.55,-3.55,-3.55,-3.55,-3.55,-3.55,-3.55,-3.55,-3.55,-3.5331,-3.5209,-3.5234,-3.5182,-3.5174,-3.5234,-3.5388,-3.5486,-3.55,-3.55,-3.5467,-3.5412,-3.533,-3.5293,-3.5293,-3.5234,-3.5209,-3.5209,-3.5209,-3.5209,-3.5209,-3.5209,-3.5209,-3.0404,-3.0404,-3.0442,-3.0615,-3.1173,0.0,-3.2102,-3.2064,-3.2179,0.0,-3.2647,-3.2384,-3.3038,-3.3878,-3.4263,-3.3607,-3.4673,-3.5604,-3.5616,-3.5616,-3.5616,-3.5616,-3.562,-3.5612,-3.5612,-3.5519,-3.5168,-3.4452,-3.2783,-3.1443,-3.0645,-3.0646,-3.0686,-3.0674,-3.0909,-3.1367,-3.2067,-3.2182,-3.2551,-3.3183,-3.2477,-3.2551,-3.3358,-3.3358,-3.3828,-3.4684,-3.54,-3.5704,-3.5704,-3.5704,-3.5704,-3.5704,-3.5704,-3.5704,-3.5684,-3.5612,-3.5602,-3.5591,-3.5522,-3.5502,-3.55,-3.55,-3.55,-3.55,-3.55,-3.55,-3.55,-3.55,-3.55,-3.55,-3.55,-3.55,-3.55,-3.55,-3.55,-3.55,-3.55,-3.55,-3.55,-3.55,-3.55,-3.55,-3.55,-3.55,-3.55,-3.55,-3.55,-3.55,-3.55,-3.5331,-3.5258,-3.5424,-3.5141,-3.5089,-3.5417,-3.5331,-3.5331,-3.5493,-3.55,-3.5493,-3.5486,-3.5364,-3.5308,-3.53,-3.5223,-3.5209,-3.5209,-3.5209,-3.5209,-3.5209,-3.5209,-3.5209,-3.0519,-3.0404,-3.05,-3.0942,-3.1058,0.0,0.0,-3.166,-3.1288,-3.2141,-3.1987,-3.1814,-3.2237,-3.2981,-3.3551,-3.3596,-3.4321,-3.4892,-3.4892,-3.5309,-3.5598,-3.5598,-3.559,-3.5602,-3.5602,-3.5245,-3.4475,-3.3209,-3.2295,-3.1452,-3.0648,-3.0665,-3.0691,-3.07,-3.0774,-3.1015,-3.1443,-3.1386,-3.1549,-3.1942,-3.1471,-3.1661,-3.2469,-3.2894,-3.3576,-3.4452,-3.5322,-3.5704,-3.5704,-3.5704,-3.5704,-3.5704,-3.5704,-3.5704,-3.5704,-3.5648,-3.5626,-3.5596,-3.5566,-3.5528,-3.5489,-3.5507,-3.55,-3.55,-3.55,-3.55,-3.55,-3.55,-3.55,-3.55,-3.55,-3.55,-3.55,-3.55,-3.55,-3.55,-3.55,-3.55,-3.55,-3.55,-3.55,-3.55,-3.55,-3.55,-3.55,-3.55,-3.55,-3.55,-3.55,-3.5331,-3.5242,-3.5339,-3.5157,-3.5124,-3.5339,-3.5346,-3.5383,-3.5493,-3.55,-3.55,-3.55,-3.5405,-3.5342,-3.5297,-3.5242,-3.5209,-3.5209,-3.5209,-3.5209,-3.5209,-3.5209,-3.5209,-3.1077,-3.0885,-3.1,-3.1564,0.0,-3.1154,0.0,0.0,0.0,-3.1346,-3.1448,0.0,0.0,0.0,0.0,-3.3372,0.0,0.0,0.0,-3.4751,0.0,-3.5328,-3.5335,-3.5392,-3.5566,-3.4656,-3.3583,-3.2391,-3.185,-3.1359,-3.0882,-3.0758,-3.0706,-3.0738,-3.0787,-3.0812,-3.0793,-3.0749,-3.0729,-3.0716,-3.0645,-3.0951,-3.1608,-3.2459,-3.332,-3.42,-3.5071,-3.553,-3.5704,-3.5704,-3.5704,-3.5704,-3.5704,-3.5704,-3.5704,-3.5704,-3.5662,-3.5589,-3.5604,-3.5554,-3.5489,-3.5494,-3.55,-3.55,-3.55,-3.55,-3.55,-3.55,-3.55,-3.55,-3.55,-3.55,-3.55,-3.55,-3.55,-3.55,-3.55,-3.55,-3.55,-3.55,-3.55,-3.55,-3.55,-3.55,-3.55,-3.55,-3.55,-3.55,-3.55,-3.5354,-3.5258,-3.5258,-3.5258,-3.5258,-3.5258,-3.541,-3.55,-3.55,-3.55,-3.55,-3.55,-3.542,-3.5361,-3.5312,-3.5226,-3.5209,-3.5209,-3.5209,-3.5209,-3.5209,-3.5209,-3.5209,0.0,0.0,0.0,0.0,-3.216,-3.2275,-3.0981,0.0,-3.1365,-3.0692,0.0,0.0,0.0,0.0,0.0,0.0,0.0,0.0,-3.3045,-3.3808,-3.4353,-3.4353,-3.436,-3.4667,-3.5438,-3.4137,-3.3487,-3.406,-3.201,-3.1064,-3.1799,-3.1118,-3.0753,-3.0878,-3.0875,-3.0852,-3.0809,-3.0798,-3.0781,-3.0791,-3.0722,-3.0713,-3.0754,-3.1583,-3.2411,-3.33,-3.4176,-3.4993,-3.5704,-3.5704,-3.5704,-3.5704,-3.5704,-3.5704,-3.5704,-3.5704,-3.5651,-3.5604,-3.5598,-3.5554,-3.5507,-3.55,-3.55,-3.55,-3.55,-3.55,-3.55,-3.55,-3.55,-3.55,-3.55,-3.55,-3.55,-3.55,-3.55,-3.55,-3.55,-3.55,-3.55,-3.55,-3.55,-3.55,-3.55,-3.55,-3.55,-3.55,-3.55,-3.55,-3.55,-3.5486,-3.5472,-3.5472,-3.5472,-3.5472,-3.5472,-3.5493,-3.55,-3.55,-3.55,-3.55,-3.55,-3.5372,-3.5312,-3.5312,-3.5226,-3.5209,-3.5209,-3.5209,-3.5209,-3.5209,-3.5209,-3.5209,0.0,0.0,0.0,0.0,0.0,0.0,-3.1308,-3.1038,-3.0846,0.0,0.0,0.0,0.0,0.0,0.0,0.0,-3.1737,0.0,0.0,0.0,-3.3295,-3.4776,0.0,0.0,-3.4713,-3.4171,-3.3961,-3.4309,-3.2928,-3.2034,-3.2002,-3.1648,-3.1284,-3.0915,-3.089,-3.0865,-3.08,-3.083,-3.082,-3.074,-3.0708,-3.0661,-3.0636,-3.1424,-3.2275,-3.3146,-3.4021,-3.4897,-3.5704,-3.5704,-3.5704,-3.5704,-3.5704,-3.5704,-3.5704,-3.5704,-3.5662,-3.5602,-3.5604,-3.5566,-3.5495,-3.5507,-3.55,-3.55,-3.55,-3.55,-3.55,-3.55,-3.55,-3.55,-3.55,-3.55,-3.55,-3.55,-3.55,-3.55,-3.55,-3.55,-3.55,-3.55,-3.55,-3.55,-3.55,-3.55,-3.55,-3.55,-3.55,-3.55,-3.55,-3.55,-3.55,-3.55,-3.55,-3.55,-3.55,-3.55,-3.55,-3.55,-3.55,-3.55,-3.55,-3.5372,-3.53,-3.5304,-3.5223,-3.5209,-3.5209,-3.5209,-3.5209,-3.5209,-3.5209,-3.5209,-3.3776,0.0,0.0,0.0,-3.2468,-3.191,-3.1448,-3.1038,-3.075,-3.075,0.0,0.0,0.0,0.0,-3.1212,-3.1641,0.0,-3.1698,0.0,-3.1698,0.0,0.0,0.0,0.0,0.0,-3.4391,-3.4401,-3.4635,-3.3691,-3.2979,-3.2703,-3.2248,-3.1768,-3.1248,-3.101,-3.0889,-3.0825,-3.0853,-3.082,-3.0731,-3.0681,-3.0652,-3.0619,-3.1207,-3.2063,-3.3146,-3.377,-3.4659,-3.5704,-3.5704,-3.5704,-3.5704,-3.5704,-3.5704,-3.5704,-3.5704,-3.5668,-3.5601,-3.561,-3.5566,-3.5502,-3.5494,-3.55,-3.55,-3.55,-3.55,-3.55,-3.55,-3.55,-3.55,-3.55,-3.55,-3.55,-3.55,-3.55,-3.55,-3.55,-3.55,-3.55,-3.55,-3.5673,-3.575,-3.5538,-3.55,-3.55,-3.55,-3.55,-3.55,-3.55,-3.55,-3.55,-3.55,-3.55,-3.55,-3.55,-3.55,-3.55,-3.55,-3.55,-3.55,-3.55,-3.5398,-3.5323,-3.5308,-3.5239,-3.5218,-3.5209,-3.5209,-3.5209,-3.5209,-3.5209,-3.5209,0.0,-3.5423,-3.5,-3.3314,-3.2872,-3.2449,-3.0808,-3.1077,-3.166,-3.166,-3.2275,-3.2814,-3.2814,-3.2814,-3.2564,-3.1814,-3.1698,0.0,0.0,0.0,0.0,0.0,0.0,0.0,0.0,-3.4757,-3.4652,-3.5485,-3.4019,-3.3488,-3.4375,-3.2883,-3.2015,-3.2069,-3.1307,-3.0896,-3.0894,-3.0839,-3.0795,-3.0809,-3.0677,-3.061,-3.0609,-3.0623,-3.1545,-3.3107,-3.3126,-3.4112,-3.5704,-3.5704,-3.5704,-3.5704,-3.5704,-3.5704,-3.5704,-3.5704,-3.5668,-3.5601,-3.561,-3.5567,-3.55,-3.55,-3.55,-3.55,-3.55,-3.55,-3.55,-3.55,-3.55,-3.55,-3.55,-3.55,-3.55,-3.55,-3.55,-3.55,-3.55,-3.55,-3.55,-3.55,-3.6135,-3.6404,-3.5635,-3.55,-3.55,-3.55,-3.55,-3.55,-3.55,-3.55,-3.55,-3.55,-3.55,-3.55,-3.55,-3.55,-3.55,-3.55,-3.55,-3.55,-3.55,-3.5427,-3.5364,-3.5308,-3.5308,-3.5269,-3.5209,-3.5209,-3.5209,-3.5209,-3.5209,-3.5209,-3.3776,-3.4199,-3.4353,-3.3199,-3.2891,-3.2602,-3.1506,-3.1487,-3.1698,-3.1698,-3.2333,-3.2891,-3.2891,-3.2891,-3.2641,-3.1833,-3.1698,-3.1506,0.0,0.0,0.0,0.0,0.0,0.0,0.0,0.0,-3.4371,-3.4703,-3.421,-3.4081,-3.4478,-3.3968,-3.3171,-3.2123,-3.1836,-3.1443,-3.0914,-3.0838,-3.0785,-3.0723,-3.0631,-3.0591,-3.0608,-3.0592,-3.1197,-3.2275,-3.2856,-3.3764,-3.4877,-3.5458,-3.5704,-3.5704,-3.5704,-3.5704,-3.5704,-3.5704,-3.5668,-3.5595,-3.5547,-3.5528,-3.55,-3.55,-3.55,-3.55,-3.55,-3.55,-3.55,-3.55,-3.55,-3.55,-3.55,-3.5904,-3.6154,-3.5635,-3.6346,-3.7007,-3.6423,-3.675,-3.7161,-3.7161,-3.7373,-3.7469,-3.7199,-3.6673,-3.6115,-3.5577,-3.55,-3.55,-3.55,-3.55,-3.55,-3.55,-3.55,-3.55,-3.55,-3.55,-3.55,-3.55,-3.55,-3.55,-3.55,-3.5446,-3.5372,-3.5308,-3.5308,-3.5269,-3.5209,-3.5209,-3.5209,-3.5209,-3.5209,-3.5209,-3.2891,-3.3314,-3.3526,-3.2699,-3.2468,-3.2333,-3.1814,-3.1929,-3.2218,-3.2526,-3.3256,-3.3814,-3.3814,-3.3564,-3.3083,-3.2256,-3.1891,-3.141,0.0,-3.0404,0.0,0.0,0.0,0.0,0.0,0.0,-3.4045,-3.4673,-3.4463,-3.4476,0.0,-3.4675,-3.4057,-3.3027,-3.2421,-3.1894,-3.1366,-3.0992,-3.0774,-3.0698,-3.0633,-3.0591,-3.0598,-3.0598,-3.1043,-3.185,-3.272,-3.3596,-3.4471,-3.5342,-3.5704,-3.5704,-3.5704,-3.5704,-3.5704,-3.5704,-3.5662,-3.5583,-3.554,-3.5528,-3.55,-3.55,-3.55,-3.55,-3.55,-3.55,-3.55,-3.55,-3.55,-3.55,-3.55,-3.6096,-3.6577,-3.6058,-3.6988,-3.7853,-3.7276,-3.7603,-3.8007,-3.8007,-3.8257,-3.8354,-3.8046,-3.7796,-3.7238,-3.6096,-3.5673,-3.55,-3.55,-3.55,-3.55,-3.55,-3.55,-3.55,-3.55,-3.5769,-3.5808,-3.5519,-3.55,-3.55,-3.55,-3.546,-3.5379,-3.5308,-3.5304,-3.5266,-3.5209,-3.5209,-3.5209,-3.5209,-3.5209,-3.5209]},{"header":{"parameterUnit":"m.s-1","parameterCategory":1,"la1":30.6,"la2":29.2853,"lo1":-89.7004,"lo2":-87.6739,"dy":0.0162,"dx":0.0183,"nx":112,"ny":82,"refTime":"2026-04-22T00:00:00:Z","depth":0,"parameterNumber":3,"parameterNumberName":"V-component_of_WINDS"},"data":[0.0,0.0,0.0,0.0,0.0,0.0,0.0,0.0,0.0,0.0,0.0,0.0,0.0,0.0,0.0,0.0,0.0,0.0,0.0,0.0,0.0,0.0,0.0,0.0,0.0,0.0,0.0,0.0,0.0,0.0,0.0,0.0,0.0,0.0,0.0,0.0,0.0,0.0,0.0,0.0,0.0,0.0,0.0,0.0,0.0,0.0,0.0,0.0,0.0,0.0,0.0,0.0,0.0,0.0,0.0,0.0,0.0,0.0,0.0,0.0,0.0,0.0,0.0,0.0,0.0,0.0,0.0,0.0,0.0,0.0,0.0,0.0,0.0,0.0,0.0,0.0,0.0,0.0,0.0,0.0,0.0,0.0,0.0,0.0,0.0,0.0,0.0,0.0,0.0,0.0,-1.5242,-1.4284,-1.4792,-1.5594,-1.6617,-1.702,-1.7565,-1.8397,0.0,0.0,0.0,0.0,0.0,0.0,0.0,0.0,0.0,0.0,0.0,0.0,0.0,0.0,0.0,0.0,0.0,0.0,0.0,0.0,0.0,0.0,0.0,0.0,0.0,0.0,0.0,0.0,0.0,0.0,0.0,0.0,0.0,0.0,0.0,0.0,0.0,0.0,0.0,0.0,0.0,0.0,0.0,0.0,0.0,0.0,0.0,0.0,0.0,0.0,0.0,0.0,0.0,0.0,0.0,0.0,0.0,0.0,0.0,0.0,0.0,0.0,0.0,0.0,0.0,0.0,0.0,0.0,0.0,0.0,0.0,0.0,0.0,0.0,0.0,0.0,0.0,0.0,0.0,0.0,0.0,0.0,0.0,0.0,0.0,0.0,0.0,0.0,0.0,0.0,0.0,0.0,0.0,0.0,0.0,0.0,0.0,0.0,0.0,0.0,0.0,0.0,0.0,0.0,-1.4797,-1.3797,-1.4041,-1.495,-1.6576,-1.6461,-1.6977,-1.8554,0.0,0.0,0.0,0.0,0.0,0.0,0.0,0.0,0.0,0.0,0.0,0.0,0.0,0.0,0.0,0.0,0.0,0.0,0.0,0.0,0.0,0.0,0.0,0.0,0.0,0.0,0.0,0.0,0.0,0.0,0.0,0.0,0.0,0.0,0.0,0.0,0.0,0.0,0.0,0.0,0.0,0.0,0.0,0.0,0.0,0.0,0.0,0.0,0.0,0.0,0.0,0.0,0.0,0.0,0.0,0.0,0.0,0.0,0.0,0.0,0.0,0.0,0.0,0.0,0.0,0.0,0.0,0.0,0.0,0.0,0.0,0.0,0.0,0.0,0.0,0.0,0.0,0.0,0.0,0.0,0.0,0.0,0.0,0.0,0.0,0.0,0.0,0.0,0.0,0.0,0.0,0.0,0.0,0.0,0.0,0.0,0.0,0.0,0.0,0.0,0.0,0.0,0.0,-1.4927,-1.4041,-1.3904,-1.4413,-1.5311,-1.6576,-1.6741,-1.7364,-1.8601,-1.8313,0.0,0.0,0.0,0.0,0.0,0.0,0.0,0.0,0.0,0.0,0.0,0.0,0.0,0.0,0.0,0.0,0.0,0.0,0.0,0.0,0.0,0.0,0.0,0.0,0.0,0.0,0.0,0.0,0.0,0.0,0.0,0.0,0.0,0.0,0.0,0.0,0.0,0.0,0.0,0.0,0.0,0.0,0.0,0.0,0.0,0.0,0.0,0.0,0.0,0.0,0.0,0.0,0.0,0.0,0.0,0.0,0.0,0.0,0.0,0.0,0.0,0.0,0.0,0.0,0.0,0.0,0.0,0.0,0.0,0.0,0.0,0.0,0.0,0.0,0.0,0.0,0.0,0.0,0.0,0.0,0.0,0.0,0.0,0.0,0.0,0.0,0.0,0.0,0.0,0.0,0.0,0.0,0.0,0.0,0.0,0.0,0.0,0.0,0.0,0.0,0.0,0.0,-1.4557,-1.3714,-1.4235,-1.5014,-1.5831,-1.6735,-1.7189,-1.7758,-1.8638,-1.8313,0.0,0.0,0.0,0.0,0.0,0.0,0.0,0.0,0.0,0.0,0.0,0.0,0.0,0.0,0.0,0.0,0.0,0.0,0.0,0.0,0.0,0.0,0.0,0.0,0.0,0.0,0.0,0.0,0.0,0.0,0.0,0.0,0.0,0.0,0.0,0.0,0.0,0.0,0.0,0.0,0.0,0.0,0.0,0.0,0.0,0.0,0.0,0.0,0.0,0.0,0.0,0.0,0.0,0.0,0.0,0.0,0.0,0.0,0.0,0.0,0.0,0.0,0.0,0.0,0.0,0.0,0.0,0.0,0.0,0.0,0.0,0.0,0.0,0.0,0.0,0.0,0.0,0.0,0.0,0.0,0.0,0.0,0.0,0.0,0.0,0.0,0.0,0.0,0.0,0.0,0.0,0.0,0.0,0.0,0.0,0.0,0.0,0.0,0.0,0.0,0.0,0.0,-1.5041,-1.4549,-1.4914,-1.5423,-1.6124,-1.7007,-1.725,-1.7758,-1.8638,-1.8313,0.0,0.0,0.0,0.0,0.0,0.0,0.0,0.0,0.0,0.0,0.0,0.0,0.0,0.0,0.0,0.0,0.0,0.0,0.0,0.0,0.0,0.0,0.0,0.0,0.0,0.0,0.0,0.0,0.0,0.0,0.0,0.0,0.0,0.0,0.0,0.0,0.0,0.0,0.0,0.0,0.0,0.0,0.0,0.0,0.0,0.0,0.0,0.0,0.0,0.0,0.0,0.0,0.0,0.0,0.0,0.0,0.0,0.0,0.0,0.0,0.0,0.0,0.0,0.0,0.0,0.0,0.0,0.0,0.0,0.0,0.0,0.0,0.0,0.0,0.0,0.0,0.0,0.0,0.0,0.0,0.0,0.0,0.0,0.0,0.0,0.0,0.0,0.0,0.0,0.0,0.0,0.0,0.0,0.0,0.0,0.0,0.0,0.0,0.0,0.0,0.0,0.0,-1.4846,-1.4295,0.0,-1.5276,-1.608,-1.6781,-1.7422,-1.8052,-1.8656,0.0,0.0,0.0,0.0,0.0,0.0,0.0,0.0,0.0,0.0,0.0,0.0,0.0,0.0,0.0,0.0,0.0,0.0,0.0,0.0,0.0,0.0,0.0,0.0,0.0,0.0,0.0,0.0,0.0,0.0,0.0,0.0,0.0,0.0,0.0,0.0,0.0,0.0,0.0,0.0,0.0,0.0,0.0,0.0,0.0,0.0,0.0,0.0,0.0,0.0,0.0,0.0,0.0,0.0,0.0,0.0,0.0,0.0,0.0,0.0,0.0,0.0,0.0,0.0,0.0,0.0,0.0,0.0,0.0,0.0,0.0,0.0,0.0,0.0,0.0,0.0,0.0,0.0,0.0,0.0,0.0,0.0,0.0,0.0,0.0,0.0,0.0,0.0,0.0,0.0,0.0,0.0,0.0,0.0,0.0,0.0,0.0,0.0,0.0,0.0,0.0,0.0,-1.5257,-1.4667,-1.4262,0.0,-1.5462,-1.6361,-1.6798,-1.7643,-1.824,-1.8449,0.0,0.0,0.0,0.0,0.0,0.0,0.0,0.0,0.0,0.0,0.0,0.0,0.0,0.0,0.0,0.0,0.0,0.0,0.0,0.0,0.0,0.0,0.0,0.0,0.0,0.0,0.0,0.0,0.0,0.0,0.0,0.0,0.0,0.0,0.0,0.0,0.0,0.0,0.0,0.0,0.0,0.0,0.0,0.0,0.0,0.0,0.0,0.0,0.0,0.0,0.0,0.0,0.0,0.0,0.0,0.0,0.0,0.0,0.0,0.0,0.0,0.0,0.0,0.0,0.0,0.0,0.0,0.0,0.0,0.0,0.0,0.0,0.0,0.0,0.0,0.0,0.0,0.0,0.0,0.0,0.0,0.0,0.0,0.0,0.0,0.0,0.0,0.0,0.0,0.0,0.0,0.0,0.0,0.0,0.0,0.0,0.0,0.0,0.0,0.0,0.0,0.0,-1.4791,-1.4607,-1.4629,-1.4968,-1.6269,-1.7122,-1.7122,-1.7917,-1.8302,0.0,0.0,0.0,0.0,0.0,0.0,0.0,0.0,0.0,0.0,0.0,0.0,0.0,0.0,0.0,0.0,0.0,0.0,0.0,0.0,0.0,0.0,0.0,0.0,0.0,0.0,0.0,0.0,0.0,0.0,0.0,0.0,0.0,0.0,0.0,0.0,0.0,0.0,0.0,0.0,0.0,0.0,0.0,0.0,0.0,0.0,0.0,0.0,0.0,0.0,0.0,0.0,0.0,0.0,0.0,0.0,0.0,0.0,0.0,0.0,0.0,0.0,0.0,0.0,0.0,0.0,0.0,0.0,0.0,0.0,0.0,0.0,0.0,0.0,0.0,0.0,0.0,0.0,0.0,0.0,0.0,0.0,0.0,0.0,0.0,0.0,0.0,0.0,0.0,0.0,0.0,0.0,0.0,0.0,0.0,0.0,0.0,0.0,0.0,0.0,0.0,0.0,0.0,-1.4851,-1.4669,-1.4686,-1.5234,-1.6376,-1.7279,-1.7688,-1.8383,-1.8583,-1.8024,0.0,0.0,0.0,0.0,0.0,0.0,0.0,0.0,0.0,0.0,0.0,0.0,0.0,0.0,0.0,0.0,0.0,0.0,0.0,0.0,0.0,0.0,0.0,0.0,0.0,0.0,0.0,0.0,0.0,0.0,0.0,0.0,0.0,0.0,0.0,0.0,0.0,0.0,0.0,0.0,0.0,0.0,0.0,0.0,0.0,0.0,0.0,0.0,0.0,0.0,0.0,0.0,0.0,0.0,0.0,0.0,0.0,0.0,0.0,0.0,0.0,0.0,0.0,0.0,0.0,0.0,0.0,0.0,0.0,0.0,0.0,0.0,0.0,0.0,0.0,0.0,0.0,0.0,0.0,0.0,0.0,0.0,0.0,0.0,0.0,0.0,0.0,0.0,0.0,0.0,0.0,0.0,0.0,0.0,0.0,0.0,0.0,0.0,0.0,0.0,0.0,0.0,-1.4448,-1.4368,-1.461,-1.5333,-1.63,-1.7154,-1.7729,-1.8436,-1.8479,-1.7562,0.0,0.0,0.0,0.0,0.0,0.0,0.0,0.0,0.0,0.0,0.0,0.0,0.0,0.0,0.0,0.0,0.0,0.0,0.0,0.0,0.0,0.0,0.0,0.0,0.0,0.0,0.0,0.0,0.0,0.0,0.0,0.0,0.0,0.0,0.0,0.0,0.0,0.0,0.0,0.0,0.0,0.0,0.0,0.0,0.0,0.0,0.0,0.0,0.0,0.0,0.0,0.0,0.0,0.0,0.0,0.0,0.0,0.0,0.0,0.0,0.0,0.0,0.0,0.0,0.0,0.0,0.0,0.0,0.0,0.0,0.0,0.0,0.0,0.0,0.0,0.0,0.0,0.0,0.0,0.0,0.0,0.0,0.0,0.0,0.0,0.0,0.0,0.0,0.0,0.0,0.0,0.0,0.0,0.0,0.0,0.0,0.0,0.0,0.0,0.0,0.0,0.0,-1.3739,-1.399,-1.4483,-1.5347,-1.6203,-1.6919,-1.7462,-1.8209,-1.8107,-1.6911,0.0,0.0,0.0,0.0,0.0,0.0,0.0,0.0,0.0,0.0,0.0,0.0,0.0,0.0,0.0,0.0,0.0,0.0,0.0,0.0,0.0,0.0,0.0,0.0,0.0,0.0,0.0,0.0,0.0,0.0,0.0,0.0,0.0,0.0,0.0,0.0,0.0,0.0,0.0,0.0,0.0,0.0,0.0,0.0,0.0,0.0,0.0,0.0,0.0,0.0,0.0,0.0,0.0,0.0,0.0,0.0,0.0,0.0,0.0,0.0,-1.7183,-1.6908,0.0,0.0,0.0,0.0,0.0,0.0,0.0,0.0,0.0,0.0,0.0,0.0,0.0,0.0,0.0,0.0,0.0,0.0,0.0,0.0,0.0,0.0,0.0,0.0,0.0,0.0,0.0,0.0,0.0,0.0,0.0,0.0,0.0,0.0,0.0,0.0,0.0,0.0,0.0,0.0,-1.3818,-1.4306,-1.4893,-1.5576,-1.6323,-1.7175,-1.8125,-1.8191,-1.7846,-1.6997,-1.6583,0.0,0.0,0.0,0.0,0.0,0.0,0.0,0.0,0.0,0.0,0.0,0.0,0.0,0.0,0.0,0.0,0.0,0.0,0.0,0.0,0.0,0.0,0.0,0.0,0.0,0.0,0.0,0.0,0.0,0.0,0.0,0.0,0.0,0.0,0.0,0.0,0.0,0.0,0.0,0.0,0.0,0.0,0.0,0.0,0.0,0.0,0.0,0.0,0.0,0.0,0.0,0.0,0.0,0.0,0.0,0.0,0.0,0.0,0.0,-1.7488,-1.7376,0.0,0.0,0.0,0.0,0.0,0.0,0.0,0.0,0.0,0.0,0.0,0.0,0.0,0.0,0.0,0.0,0.0,0.0,0.0,0.0,0.0,0.0,0.0,0.0,0.0,0.0,0.0,0.0,0.0,0.0,0.0,0.0,0.0,0.0,0.0,0.0,0.0,0.0,0.0,0.0,-1.435,-1.4494,-1.5005,-1.6119,-1.6666,-1.7274,-1.8063,-1.8173,-1.777,-1.6766,-1.6495,0.0,0.0,0.0,0.0,0.0,0.0,0.0,0.0,0.0,0.0,0.0,0.0,0.0,0.0,0.0,0.0,0.0,0.0,0.0,0.0,0.0,0.0,0.0,0.0,0.0,0.0,0.0,0.0,0.0,0.0,0.0,0.0,0.0,0.0,0.0,0.0,0.0,0.0,0.0,0.0,0.0,0.0,0.0,0.0,0.0,0.0,0.0,0.0,0.0,0.0,0.0,0.0,0.0,-1.7077,-1.6859,-1.708,-1.7178,-1.7251,-1.7289,-1.7981,-1.8054,-1.7596,-1.7523,0.0,0.0,0.0,0.0,0.0,0.0,0.0,0.0,0.0,0.0,0.0,0.0,0.0,0.0,0.0,0.0,0.0,0.0,0.0,0.0,0.0,0.0,-1.6364,-1.5103,-1.5625,-1.5687,-1.2963,0.0,0.0,0.0,0.0,0.0,0.0,0.0,0.0,0.0,0.0,0.0,-1.4821,-1.4698,-1.515,-1.6704,-1.7096,-1.7412,-1.7873,-1.809,-1.7739,-1.6638,-1.6595,-1.6133,0.0,0.0,0.0,0.0,0.0,0.0,0.0,0.0,0.0,0.0,0.0,0.0,0.0,0.0,0.0,0.0,0.0,0.0,0.0,0.0,0.0,0.0,0.0,0.0,0.0,0.0,0.0,0.0,0.0,0.0,0.0,0.0,-1.3365,-1.4466,0.0,0.0,0.0,0.0,0.0,0.0,0.0,0.0,0.0,0.0,0.0,0.0,0.0,-1.6404,-1.6892,-1.7673,-1.7897,-1.7568,-1.8443,-1.8635,-1.8199,-1.8716,-1.8988,-1.8988,-1.9106,0.0,-1.7972,-1.7642,0.0,0.0,0.0,0.0,0.0,0.0,0.0,0.0,0.0,0.0,0.0,0.0,0.0,0.0,0.0,0.0,0.0,0.0,0.0,0.0,0.0,0.0,-1.5822,-1.5259,-1.483,-1.4435,-1.3982,-1.4753,-1.536,-1.4969,-1.5003,-1.4974,0.0,0.0,0.0,0.0,0.0,0.0,-1.4569,-1.516,-1.5972,-1.711,-1.7533,-1.7856,-1.8292,-1.7989,-1.7639,-1.7291,-1.6572,-1.6105,-1.5928,-1.4814,0.0,0.0,0.0,0.0,0.0,0.0,0.0,0.0,0.0,0.0,0.0,0.0,0.0,0.0,0.0,0.0,0.0,0.0,0.0,0.0,0.0,0.0,0.0,0.0,0.0,0.0,0.0,0.0,0.0,-1.3155,-1.3793,-1.429,-1.405,-1.385,0.0,0.0,0.0,0.0,0.0,0.0,0.0,0.0,0.0,-1.4948,-1.5518,-1.6129,-1.6725,-1.7289,-1.7758,-1.8186,-1.8118,-1.8031,-1.799,-1.7897,-1.7836,-1.7876,-1.8367,-1.8096,-1.7375,-1.7924,-1.8045,-1.7807,0.0,0.0,0.0,0.0,-1.7156,-1.7504,-1.7568,-1.7551,-1.7559,-1.7359,0.0,0.0,0.0,0.0,0.0,0.0,0.0,-1.6585,-1.6472,-1.6607,-1.6643,-1.6234,-1.6094,-1.5868,-1.5243,-1.5455,-1.5474,-1.4439,-1.4735,-1.4959,-1.4281,-1.3999,0.0,0.0,0.0,-1.4505,-1.5199,-1.6045,-1.6845,-1.7524,-1.7912,-1.8107,-1.8023,-1.7934,-1.7721,-1.7412,-1.6787,-1.6328,-1.6105,-1.5283,-1.4824,0.0,0.0,0.0,0.0,0.0,0.0,0.0,0.0,0.0,0.0,0.0,0.0,0.0,0.0,0.0,0.0,0.0,0.0,0.0,0.0,0.0,0.0,0.0,0.0,0.0,0.0,0.0,0.0,-1.3682,-1.4136,-1.423,-1.4247,-1.4136,0.0,0.0,0.0,0.0,0.0,0.0,-1.5128,-1.5051,-1.4991,-1.5053,-1.5612,-1.6088,-1.6372,-1.6696,-1.7201,-1.7902,-1.7238,-1.7166,-1.761,-1.6992,-1.6944,-1.7391,-1.7836,-1.7755,-1.7439,-1.8317,-1.8388,-1.7891,-1.7706,-1.7587,-1.7458,-1.7165,-1.7238,-1.7541,-1.7853,-1.7963,-1.7963,-1.7963,-1.7413,-1.6716,-1.6523,0.0,0.0,0.0,0.0,-1.6927,-1.7027,-1.7202,-1.7293,-1.7101,-1.7202,-1.7115,-1.6254,-1.6009,-1.5497,-1.3984,-1.4334,-1.4656,-1.3898,-1.3574,0.0,0.0,0.0,-1.4547,-1.5285,-1.6177,-1.7017,-1.7634,-1.7875,-1.7893,-1.7649,-1.7774,-1.7715,-1.7435,-1.708,-1.6699,-1.6281,-1.5811,-1.5381,-1.4951,0.0,0.0,0.0,0.0,0.0,0.0,0.0,0.0,0.0,0.0,0.0,0.0,0.0,0.0,0.0,0.0,0.0,0.0,0.0,0.0,0.0,0.0,0.0,0.0,0.0,0.0,0.0,0.0,0.0,-1.4607,-1.4658,0.0,0.0,0.0,0.0,-1.5129,-1.4863,-1.518,-1.6244,-1.5934,-1.598,-1.6485,-1.6901,-1.6789,-1.6111,-1.6492,-1.6413,-1.5869,-1.6257,-1.6797,-1.7399,-1.6903,-1.7594,-1.9134,-1.8318,-1.8439,-1.9146,-1.8832,-1.8187,-1.7467,-1.79,-1.7844,-1.7495,-1.7477,-1.7477,-1.7495,-1.7523,-1.7523,-1.7523,-1.7523,-1.6991,-1.6413,-1.6771,-1.6615,0.0,0.0,-1.6606,-1.6991,-1.7367,-1.7202,-1.7027,-1.7385,-1.7193,-1.6892,-1.6874,-1.6538,-1.5817,-1.4283,-1.4016,-1.3939,-1.3492,0.0,-1.3186,-1.2583,-1.305,-1.366,-1.4215,-1.4881,-1.5876,-1.7358,-1.7139,-1.7035,-1.7379,-1.7412,-1.7402,-1.7383,-1.7363,-1.7158,-1.6687,-1.6269,-1.586,-1.5391,-1.4552,0.0,0.0,0.0,0.0,0.0,0.0,0.0,0.0,0.0,0.0,0.0,0.0,0.0,0.0,0.0,0.0,0.0,0.0,0.0,0.0,0.0,0.0,0.0,0.0,0.0,0.0,0.0,0.0,-1.4335,-1.4308,0.0,-1.3757,-1.4077,-1.4323,-1.43,-1.487,-1.5352,-1.5598,-1.5861,-1.5823,-1.5457,-1.6,-1.5885,-1.5032,-1.5898,-1.6329,-1.6363,-1.6944,-1.7521,-1.8023,-1.7399,-1.7634,-1.8447,-1.8118,-1.7876,-1.7698,-1.8664,-1.8885,-1.8605,-1.8536,-1.8412,-1.8247,-1.799,-1.8064,-1.8275,-1.8275,-1.8109,-1.7816,-1.7284,-1.7101,-1.7055,-1.6936,-1.6991,-1.7027,-1.6771,-1.6982,-1.7257,-1.7147,-1.7009,-1.6945,-1.7082,-1.7009,-1.676,-1.6298,-1.6087,-1.5601,-1.4279,-1.4216,-1.4239,-1.3801,-1.3533,-1.3382,-1.3356,-1.4048,-1.4638,-1.4814,-1.5789,-1.6633,-1.7005,-1.7021,-1.6985,-1.695,-1.7227,-1.7383,-1.7383,-1.7119,-1.6863,-1.6707,-1.6025,-1.5449,-1.5019,-1.4707,-1.4277,0.0,0.0,0.0,0.0,0.0,0.0,0.0,0.0,0.0,0.0,0.0,0.0,0.0,0.0,0.0,0.0,0.0,0.0,0.0,0.0,0.0,0.0,0.0,0.0,0.0,0.0,-1.4026,-1.3824,-1.3863,-1.3758,-1.3426,-1.3696,-1.3933,-1.3968,-1.4565,-1.4951,-1.4924,-1.5405,-1.542,-1.4921,-1.5551,-1.5446,-1.4496,-1.5262,-1.5636,-1.567,-1.6,-1.6494,-1.7107,-1.6453,-1.6657,-1.7553,-1.7269,-1.6944,-1.678,-1.7957,-1.8399,-1.8461,-1.8774,-1.8834,-1.8678,-1.8421,-1.8403,-1.8513,-1.8513,-1.8247,-1.7825,-1.7284,-1.7193,-1.7248,-1.6991,-1.7092,-1.7238,-1.6982,-1.7092,-1.7238,-1.6972,-1.6908,-1.6908,-1.6908,-1.6908,-1.676,-1.6298,-1.6053,-1.5713,-1.4941,-1.4555,-1.4264,-1.3825,-1.3566,-1.3506,-1.3824,-1.4377,-1.4796,-1.4929,-1.5761,-1.63,-1.6207,-1.636,-1.6403,-1.6278,-1.6826,-1.7168,-1.7168,-1.7031,-1.6853,-1.6707,-1.6025,-1.543,-1.501,-1.4863,-1.4434,-1.3695,0.0,0.0,0.0,0.0,0.0,0.0,0.0,0.0,0.0,0.0,0.0,0.0,0.0,0.0,0.0,0.0,0.0,0.0,0.0,0.0,0.0,0.0,0.0,-1.3551,-1.3253,-1.2974,-1.316,-1.3336,-1.3554,-1.3731,-1.3566,-1.3688,-1.4209,-1.4022,-1.4039,-1.4382,-1.4649,-1.4887,-1.5039,-1.5718,-1.5602,-1.465,-1.465,-1.4356,-1.3695,-1.3307,-1.3717,-1.4706,-1.4055,-1.4845,-1.6657,-1.5801,-1.5925,-1.6698,-1.6698,-1.6698,-1.6862,-1.8567,-1.8985,-1.8656,-1.8656,-1.841,-1.8081,-1.8072,-1.7834,-1.7532,-1.7513,-1.7248,-1.6927,-1.6927,-1.6917,-1.6908,-1.6908,-1.6908,-1.6908,-1.6908,-1.6908,-1.6908,-1.6908,-1.6908,-1.6908,-1.6908,-1.6606,-1.6331,-1.6321,-1.5104,-1.3947,-1.3549,-1.3478,-1.3529,-1.3793,-1.3888,0.0,-1.4372,-1.4596,-1.4784,-1.4989,-1.5146,-1.5283,-1.541,-1.621,-1.6707,-1.6687,-1.7119,-1.7178,-1.6716,-1.6289,-1.587,-1.542,-1.5,-1.458,-1.4124,0.0,0.0,0.0,0.0,0.0,0.0,0.0,0.0,0.0,0.0,0.0,0.0,0.0,0.0,0.0,0.0,0.0,0.0,0.0,0.0,0.0,-1.0995,-1.1413,-1.2663,-1.2714,-1.2595,-1.2556,-1.2599,-1.2595,-1.2506,-1.2581,-1.2718,-1.2893,-1.3374,-1.3733,-1.387,-1.433,-1.4513,-1.4329,-1.4461,-1.4132,-1.3252,-1.3724,-1.3857,-1.3695,-1.4068,-1.4678,-1.5406,-1.5247,-1.5703,-1.6698,-1.6453,-1.6494,-1.6698,-1.6698,-1.6698,-1.6739,-1.7229,-1.7333,-1.7242,-1.7242,-1.7584,-1.7979,-1.7708,-1.7926,-1.833,-1.8045,-1.7669,-1.7339,-1.7339,-1.7128,-1.6908,-1.6908,-1.6908,-1.6908,-1.6908,-1.6908,-1.6908,-1.6908,-1.6908,-1.6908,-1.6908,-1.6817,-1.6695,-1.6568,-1.6194,-1.5724,-1.5151,-1.4827,-1.4674,-1.4863,-1.4646,0.0,-1.4803,-1.4888,-1.5084,-1.5538,-1.5597,-1.5718,-1.5889,-1.6699,-1.6934,-1.6289,-1.667,-1.6824,-1.6707,-1.5996,-1.5537,-1.541,-1.5,-1.4727,0.0,0.0,0.0,0.0,0.0,0.0,0.0,0.0,0.0,0.0,0.0,0.0,0.0,0.0,0.0,0.0,0.0,0.0,0.0,0.0,0.0,0.0,-1.0387,-1.0756,-1.1301,-1.1579,-1.1834,-1.2134,-1.1966,-1.1855,-1.2003,-1.1971,-1.2106,-1.2375,-1.281,-1.3061,-1.311,-1.3515,-1.366,-1.3451,-1.3717,-1.3639,-1.313,-1.3519,-1.3695,-1.3695,-1.3808,-1.4139,-1.4629,-1.4713,-1.5005,-1.5462,-1.5553,-1.5594,-1.5594,-1.5594,-1.5594,-1.5677,0.0,0.0,0.0,0.0,-1.735,-1.752,-1.8035,-1.7931,-1.7687,-1.8174,-1.7822,-1.7241,-1.7433,-1.7339,-1.7119,-1.6954,-1.6908,-1.6908,-1.6908,-1.6908,-1.6908,-1.6908,-1.6908,-1.6908,-1.6908,-1.6978,-1.7007,-1.6868,-1.6932,0.0,-1.6505,-1.5811,-1.5436,-1.5738,-1.5258,-1.4938,-1.5297,-1.5203,-1.5183,-1.5522,-1.5591,-1.5671,-1.5791,-1.6602,0.0,0.0,0.0,-1.6531,-1.6161,-1.5654,0.0,0.0,0.0,0.0,0.0,0.0,0.0,0.0,-1.481,-1.4704,0.0,0.0,0.0,0.0,0.0,0.0,0.0,0.0,0.0,0.0,0.0,0.0,0.0,0.0,0.0,0.0,-0.9719,-1.0166,-0.9892,-1.0296,-1.0924,-1.1786,-1.1409,-1.1298,-1.1855,-1.167,-1.1727,-1.228,-1.2305,-1.2324,-1.2355,-1.2578,0.0,0.0,0.0,-1.3603,-1.3603,-1.3603,-1.3603,-1.3568,-1.296,-1.2833,-1.31,-1.3264,-1.3476,-1.3695,-1.3955,-1.4039,-1.4046,-1.4088,-1.4088,-1.425,-1.5925,-1.6494,-1.6535,-1.7513,-1.7342,-1.6944,-1.8567,0.0,0.0,-1.8267,-1.797,-1.7052,-1.7369,-1.746,-1.7314,-1.6924,-1.6727,-1.6656,-1.676,-1.6726,-1.6656,-1.676,-1.6769,-1.6804,-1.6874,-1.7038,-1.7166,-1.7201,-1.7348,-1.747,-1.7505,-1.6489,-1.5837,-1.6408,-1.5662,-1.5192,-1.5685,-1.5436,-1.5225,-1.5302,0.0,0.0,-1.5488,-1.6219,-1.6543,-1.6124,-1.6533,-1.6356,-1.5449,-1.542,-1.539,-1.5294,-1.5235,-1.5235,-1.5294,-1.4706,-1.4553,-1.4851,-1.4761,-1.4532,0.0,0.0,0.0,0.0,0.0,0.0,0.0,0.0,0.0,0.0,0.0,0.0,0.0,0.0,0.0,-0.9289,-0.9325,-0.9514,-0.9975,-1.0149,-1.0421,-1.0969,-1.1074,-1.1149,-1.126,-1.1403,-1.1657,-1.1982,-1.2178,-1.2403,-1.2614,-1.2681,-1.2705,-1.2705,-1.2833,-1.2875,-1.2875,-1.2875,-1.2875,-1.2875,-1.2747,0.0,-1.3094,-1.3143,-1.3264,-1.3483,-1.3695,-1.3779,-1.3779,-1.3997,-1.4088,-1.4208,-1.5235,-1.5228,-1.4783,-1.637,-1.6854,-1.6862,-1.7876,-1.8435,-1.8739,-1.9064,-1.88,-1.8233,-1.7607,-1.7024,0.0,-1.6378,-1.5698,-1.518,-1.5833,-1.5542,-1.5215,-1.5868,-1.6009,-1.6193,-1.676,-1.6943,-1.7003,-1.7166,-1.7235,-1.7314,-1.747,-1.6727,-1.616,-1.6383,-1.5683,-1.5234,-1.5449,-1.541,-1.5498,-1.5878,-1.5937,-1.5968,-1.5968,-1.6426,-1.6543,-1.6124,-1.6848,-1.6699,-1.5459,-1.5616,-1.5377,-1.4695,-1.4133,-1.4133,-1.4677,-1.4013,-1.3998,-1.4558,-1.4306,-1.4247,0.0,0.0,0.0,0.0,0.0,0.0,0.0,0.0,0.0,0.0,0.0,-0.9764,-0.9718,0.0,-0.8977,-0.9138,-0.936,-0.958,-0.983,-1.0109,-1.0413,-1.0763,-1.0887,-1.1053,-1.1273,-1.1531,-1.1796,-1.2095,-1.2361,-1.2566,-1.2699,-1.2705,-1.2705,-1.2705,-1.2705,-1.2705,-1.2705,-1.2705,-1.2705,-1.2705,-1.2705,-1.279,-1.2881,-1.3052,-1.3137,-1.327,-1.3483,-1.361,-1.3737,-1.3997,-1.4088,-1.4173,-1.5068,-1.4866,-1.425,-1.556,-1.576,-1.5594,-1.6903,-1.7058,-1.6854,-1.7715,-1.7548,-1.7005,-1.6793,-1.6434,-1.6001,-1.5737,-1.5126,-1.4673,-1.5108,-1.4887,-1.4708,-1.5108,-1.5507,-1.5903,-1.6263,-1.6403,-1.6473,-1.6568,-1.6385,-1.6237,-1.6315,-1.5895,-1.5695,-1.6316,-1.5631,-1.5119,-1.5381,-1.541,-1.5498,-1.5713,-1.5732,-1.5732,-1.5732,-1.5937,-1.5912,-1.5619,-1.5837,-1.5513,-1.4488,-1.457,-1.4444,-1.3992,-1.3653,-1.3662,-1.3992,-1.326,-1.3229,-1.3838,-1.3259,-1.3184,0.0,0.0,0.0,0.0,0.0,0.0,0.0,0.0,-1.0129,-1.0567,-1.0127,-0.9688,-0.9618,-0.9311,-0.9068,-0.9026,-0.9501,-0.9812,-0.9673,-1.0064,-1.0475,-1.0663,-1.0738,-1.0956,-1.1388,-1.173,-1.2029,-1.2294,-1.256,-1.2705,-1.2705,-1.2705,-1.2705,-1.2705,-1.2705,-1.2705,-1.2705,-1.2705,-1.2705,-1.2705,-1.2705,-1.2705,-1.2705,-1.2918,-1.3009,-1.3052,-1.3307,-1.3519,-1.3737,-1.3997,-1.4088,-1.4173,-1.4859,-1.4699,-1.4208,-1.5269,-1.511,-1.458,-1.6165,-1.5801,-1.4824,-1.6247,-1.6206,-1.5674,-1.589,-1.5724,-1.538,-1.5045,-1.456,-1.4171,-1.435,-1.4279,-1.4171,-1.435,-1.4895,-1.5401,-1.5542,-1.5648,-1.5719,-1.5719,-1.5428,-1.5136,-1.5136,-1.4897,-1.5002,-1.5864,-1.5259,-1.4857,-1.5166,-1.5235,-1.5264,-1.5381,-1.541,-1.541,-1.541,-1.5371,-1.5229,-1.4989,-1.4669,-1.4203,-1.3541,-1.3427,-1.3366,-1.3321,-1.3199,-1.3199,-1.329,-1.2551,-1.246,-1.3059,-1.2412,-1.227,-1.0038,-0.9762,-0.9619,-1.0185,-0.9904,-0.9827,0.0,0.0,-0.9858,-1.0612,-1.0008,-0.939,-0.958,-0.9231,-0.9043,-0.9462,-0.9581,-0.9684,-0.9852,-0.9943,-1.003,-1.0255,-1.0588,-1.0918,-1.1194,-1.1651,-1.2029,-1.2294,-1.256,-1.2705,-1.2705,-1.2705,-1.2705,-1.2705,-1.2705,-1.2705,-1.2705,-1.2705,-1.2705,-1.2705,-1.2705,-1.2705,-1.2705,-1.2747,-1.2747,-1.279,-1.3222,-1.3519,-1.3737,-1.3997,-1.4088,-1.413,-1.4208,-1.4173,-1.4292,-1.5966,-1.6008,-1.5394,-1.637,-1.6576,-1.6453,-1.6657,-1.6617,-1.6404,-1.5722,-1.5079,-1.4615,-1.4447,-1.3509,-1.2732,-1.3426,-1.3098,-1.2732,-1.3455,-1.368,-1.3926,-1.4601,-1.4752,-1.4744,-1.4744,-1.4859,-1.4939,-1.4939,-1.4621,-1.4409,-1.452,-1.4275,-1.4219,-1.4554,-1.4588,-1.4824,-1.5352,-1.541,-1.541,-1.541,-1.5243,-1.4985,-1.4591,-1.4523,-1.4187,-1.3536,-1.3143,-1.2846,-1.2612,-1.2104,-1.2073,-1.2604,-1.1981,-1.1987,-1.2577,-1.2504,-1.2596,-0.9766,-0.9128,-0.8757,0.0,-0.953,-0.9712,-1.0623,-1.0414,-1.0071,-1.0286,-0.9865,-0.9487,-0.9593,-0.9427,-0.9381,0.0,-0.969,-0.9814,-0.9906,-0.9884,-0.9922,-1.003,-1.0293,-1.0716,-1.1366,-1.174,-1.2095,-1.2506,-1.2644,-1.2705,-1.2705,-1.2705,-1.2705,-1.2705,-1.2705,-1.2705,-1.2705,-1.2705,-1.2705,-1.2705,-1.2705,-1.2705,-1.2705,-1.2705,-1.2705,-1.2705,-1.3052,-1.3355,-1.3519,-1.3779,-1.3955,-1.4088,-1.4088,-1.4088,-1.4173,-1.4901,-1.4943,-1.4706,-1.5068,-1.5193,-1.5193,-1.5193,-1.5193,-1.511,-1.4741,-1.4232,-1.3745,-1.366,-1.2988,-1.2378,-1.2703,-1.2556,-1.2372,-1.2732,-1.3171,-1.3564,-1.389,-1.3962,-1.3962,-1.3962,-1.3637,-1.339,-1.339,-1.3353,-1.3214,-1.2923,-1.3375,-1.3757,-1.3882,-1.3932,-1.4013,-1.4282,-1.4282,-1.4252,-1.4124,-1.4025,-1.3778,-1.3252,-1.3219,-1.2979,-1.2428,-1.2242,-1.2093,-1.1981,-1.1615,-1.1553,-1.1787,-1.1459,-1.1522,-1.1919,-1.1807,-1.1998,-0.9182,-0.8645,0.0,-0.9179,-0.9508,-0.9801,-1.0312,-1.0227,-0.9972,-0.9825,-0.9598,-0.9439,-0.9468,-0.9539,-0.9635,-0.9663,-0.9814,-0.9884,-0.9884,-0.9884,-0.9884,-0.9884,-1.0067,-1.0505,-1.1334,-1.1579,-1.1954,-1.256,-1.2596,-1.2626,-1.2699,-1.2705,-1.2705,-1.2705,-1.2705,-1.2705,-1.2705,-1.2705,-1.2705,-1.2705,-1.2705,-1.2705,-1.2705,-1.2705,-1.2705,-1.2705,-1.2966,-1.3179,-1.3307,-1.3525,-1.3737,-1.3997,-1.3997,-1.4046,-1.4088,-1.4088,-1.4088,-1.4088,-1.4088,-1.4035,-1.3981,-1.4062,-1.4035,-1.3968,-1.3968,-1.3614,-1.3193,-1.3106,-1.2705,-1.2305,-1.2305,-1.2305,-1.2305,-1.2305,-1.2732,-1.3171,-1.3171,-1.3171,-1.3171,-1.3171,-1.2739,-1.2378,-1.2378,-1.2494,-1.2442,-1.1984,-1.2524,-1.3009,-1.3183,-1.3351,-1.3442,-1.3472,-1.345,-1.3381,-1.3282,-1.31,-1.2818,-1.2389,-1.2151,-1.1919,-1.1622,-1.156,-1.1529,-1.1529,-1.1373,-1.1272,-1.1247,-1.1153,-1.1203,-1.1395,-1.1309,-1.1525,-0.8256,0.0,-0.9493,-1.0023,-1.0123,-1.0211,-1.0694,-1.0028,-0.9326,-0.9338,-0.9123,-0.8965,-0.9187,-0.9441,-0.9653,-0.9873,-0.9916,-0.9884,-0.9884,-0.9884,-0.9884,-0.9884,-1.0067,-1.0394,-1.0857,-1.1119,-1.152,-1.2247,-1.2324,-1.2439,-1.2693,-1.2705,-1.2705,-1.2705,-1.2705,-1.2705,-1.2705,-1.2705,-1.2705,-1.2705,-1.2705,-1.2705,-1.2705,-1.2705,-1.2705,-1.2705,-1.2966,-1.3094,-1.3137,-1.3307,-1.3525,-1.3695,-1.3695,-1.387,-1.4088,-1.4088,-1.4088,-1.4088,-1.4088,-1.3901,-1.366,-1.3995,-1.3895,-1.362,-1.362,-1.3407,-1.3146,-1.2884,-1.2576,-1.2305,-1.2305,-1.2305,-1.2305,-1.2305,-1.2335,-1.2335,-1.2335,-1.2335,-1.2335,-1.2335,-1.2489,-1.2599,-1.2599,-1.254,-1.2389,-1.2066,-1.175,-1.179,-1.2467,-1.294,-1.3282,-1.348,-1.3321,-1.3282,-1.3472,-1.2879,-1.2504,-1.2512,-1.1756,-1.1397,-1.1591,-1.1397,-1.1303,-1.1303,-1.1303,-1.1247,-1.1122,-1.109,-1.1097,-1.1118,-1.1374,-1.1582,-0.8696,0.0,-0.8438,-0.9633,-0.9642,-0.9531,-1.0115,-0.9773,-0.921,-0.8829,-0.8952,-0.9114,-0.919,-0.9534,-0.983,-0.9868,-0.9884,-0.9884,-0.9884,-0.9884,-0.9884,-0.9884,-0.9954,-1.0106,-1.0416,-1.0887,0.0,-1.2229,-1.2312,-1.2427,-1.2693,-1.2705,-1.2705,-1.2705,-1.2705,-1.2705,-1.2705,-1.2705,-1.2705,-1.2705,-1.2705,-1.2705,-1.2705,-1.2705,-1.2705,-1.2705,-1.279,-1.2924,-1.31,-1.3185,-1.3398,-1.3695,-1.3695,-1.387,-1.4088,-1.4088,-1.4088,-1.4088,-1.4088,-1.3895,-1.3653,-1.3988,-1.3888,-1.36,-1.36,-1.34,-1.3146,-1.2878,-1.2569,-1.2305,-1.2305,-1.2305,-1.2305,-1.2305,-1.2305,-1.2305,-1.2305,-1.2305,-1.2305,-1.2305,-1.2342,-1.2415,-1.2415,-1.2371,-1.2278,-1.1977,-1.1535,-1.1361,-1.1646,-1.1849,-1.2011,-1.2228,-1.2166,-1.2104,-1.2042,-1.1763,-1.1577,-1.1577,-1.1178,-1.1059,-1.1247,-1.1216,-1.1185,-1.1185,-1.1028,-1.0958,-1.0902,-1.0902,-1.0902,-1.0902,-1.1005,-1.1147,-0.8587,-0.8551,-0.8609,-0.9411,-0.95,-0.9394,-0.9495,-0.9518,-0.9329,-0.875,-0.9007,-0.9339,-0.9338,-0.9518,-0.9717,-0.989,-0.9852,-0.9825,-0.9906,-0.9884,-0.9884,-0.9884,-0.9884,-0.9992,0.0,0.0,0.0,-1.1968,-1.2133,-1.233,-1.2687,-1.2705,-1.2705,-1.2705,-1.2705,-1.2705,-1.2705,-1.2705,-1.2705,-1.2705,-1.2705,-1.2705,-1.2705,-1.2705,-1.2705,-1.2705,-1.2705,-1.279,-1.2966,-1.2966,-1.3179,-1.3483,-1.3483,-1.3695,-1.3942,-1.3842,-1.3953,-1.4088,-1.4088,-1.3895,-1.3653,-1.3988,-1.3888,-1.3586,-1.348,-1.336,-1.3126,-1.2744,-1.2489,-1.2305,-1.2305,-1.2305,-1.2305,-1.2305,-1.2305,-1.2305,-1.2305,-1.2305,-1.2305,-1.2305,-1.2305,-1.2335,-1.2378,-1.2276,-1.2073,-1.1671,-1.1247,-1.109,-1.1373,-1.1341,-1.1365,-1.1591,-1.1529,-1.1466,-1.1397,-1.1247,-1.1185,-1.1185,-1.0996,-1.0965,-1.109,-1.109,-1.1059,-1.0996,-1.087,-1.0776,-1.0713,-1.0713,-1.0713,-1.0713,-1.0713,-1.0868,-0.8029,-0.8816,-0.9932,-0.9444,-0.9606,-0.9697,-0.8892,-0.9224,-0.9558,-0.8997,-0.9248,-0.9565,0.0,0.0,-0.9373,-0.983,-0.9728,-0.9674,-0.989,-0.9884,-0.9884,0.0,0.0,0.0,0.0,0.0,0.0,-1.1502,0.0,-1.2109,-1.2674,-1.2705,-1.2705,-1.2705,-1.2705,-1.2705,-1.2705,-1.2705,-1.2705,-1.2705,-1.2705,-1.2705,-1.2705,-1.2705,-1.2705,-1.2705,-1.2705,-1.2705,-1.2705,-1.2705,-1.2875,-1.3094,-1.3094,-1.3343,-1.3643,-1.343,-1.3627,-1.4068,-1.4082,-1.3895,-1.3653,-1.3988,-1.3888,-1.3547,-1.33,-1.3213,-1.3086,-1.2472,-1.2305,-1.2305,-1.2305,-1.2305,-1.2305,-1.2305,-1.2305,-1.2305,-1.2305,-1.2305,-1.2305,-1.2305,-1.2305,-1.2372,-1.2542,-1.2234,-1.1773,-1.1203,-1.094,-1.0996,-1.1498,-1.1404,-1.1334,-1.156,-1.1404,-1.1373,-1.156,-1.1404,-1.1272,-1.1272,-1.1153,-1.1059,-1.1059,-1.1059,-1.0965,-1.08,-1.0776,-1.0713,-1.0593,-1.0593,-1.0593,-1.0593,-1.0593,-1.074,-0.8814,-0.9174,-0.942,-0.9618,-0.9177,-0.8678,-0.8705,-0.8646,-0.8608,-0.8587,-0.887,-0.9063,0.0,0.0,0.0,-0.9647,-0.976,0.0,-0.9911,-0.9884,0.0,-0.9884,0.0,-0.9992,-1.0258,-1.039,0.0,0.0,-1.1549,-1.1992,-1.2674,-1.2705,-1.2705,-1.2705,-1.2705,-1.2705,-1.2705,-1.2705,-1.2705,-1.2705,-1.2705,-1.2705,-1.2705,-1.2705,-1.2705,-1.2705,-1.2705,-1.2705,-1.2705,-1.2705,-1.2875,-1.3094,-1.3094,-1.3144,-1.323,-1.349,-1.3541,-1.3581,-1.3966,-1.3895,-1.3653,-1.3988,-1.3888,-1.3547,-1.33,-1.3213,-1.3086,-1.2472,-1.2305,-1.2305,-1.2305,-1.2305,-1.2305,-1.2305,-1.2305,-1.2305,-1.2305,-1.2305,-1.2305,-1.2305,-1.2305,-1.2231,-1.2089,-1.1921,-1.1641,-1.1223,-1.1078,-1.1059,-1.1216,-1.1059,-1.0989,-1.1216,-1.1185,-1.1185,-1.1216,-1.1028,-1.0933,-1.0933,-1.0807,-1.0719,-1.0719,-1.0719,-1.0688,-1.0649,-1.0649,-1.0618,-1.0593,-1.0593,-1.0593,-1.0593,-1.0593,-1.0633,-0.8811,-0.8937,-0.8917,-0.8901,-0.8549,-0.8204,-0.8264,-0.8361,-0.849,-0.8641,-0.8882,0.0,-0.8912,-0.9117,0.0,0.0,0.0,0.0,-0.9906,-0.9884,-0.9884,0.0,-0.9884,0.0,-1.0272,-1.0411,-1.0681,0.0,-1.1606,-1.2029,-1.2553,-1.2662,-1.2705,-1.2705,-1.2705,-1.2705,-1.2705,-1.2705,-1.2705,-1.2705,-1.2705,-1.2705,-1.2705,-1.2705,-1.2705,-1.2705,-1.2705,-1.2638,-1.2542,-1.2656,-1.2656,-1.2586,-1.2703,-1.2785,-1.2861,-1.3016,-1.3211,-1.3502,-1.3673,-1.3785,-1.3868,-1.4035,-1.3975,-1.3761,-1.334,-1.3213,-1.3086,-1.2472,-1.2305,-1.2305,-1.2305,-1.2305,-1.2305,-1.2305,-1.2305,-1.2305,-1.2305,-1.2305,-1.2305,-1.2305,-1.2378,-1.2317,-1.1891,-1.1813,-1.1687,-1.1219,-1.1044,-1.0965,-1.0965,-1.0965,-1.0996,-1.1185,-1.1153,-1.1122,-1.1185,-1.0958,-1.0807,-1.0807,-1.0681,-1.0593,-1.0593,-1.0593,-1.0593,-1.0593,-1.0593,-1.0593,-1.0593,-1.0593,-1.0593,-1.0593,-1.0593,-1.0593,-0.8408,-0.8386,-0.8479,-0.7902,-0.7939,-0.8042,-0.7792,-0.8236,-0.8744,-0.8836,0.0,-0.9118,-0.8881,-0.8879,-0.8971,-0.9168,0.0,-0.9658,-0.989,-0.9884,-0.9884,-0.9884,-0.9884,-1.003,-1.0309,-1.0342,-1.061,-1.1244,-1.1701,-1.2092,-1.2394,-1.2577,-1.2705,-1.2705,-1.2705,-1.2705,-1.2705,-1.2705,-1.2705,-1.2705,-1.2705,-1.2705,-1.2705,-1.2705,-1.2705,-1.2705,-1.2705,-1.2572,-1.2379,-1.2572,-1.2385,-1.1999,-1.2228,-1.2418,-1.2574,-1.2373,-1.2871,-1.3568,-1.3402,-1.366,-1.4088,-1.4088,-1.4062,-1.3928,-1.338,-1.318,-1.3033,-1.2465,-1.2305,-1.2305,-1.2305,-1.2305,-1.2305,-1.2305,-1.2305,-1.2305,-1.2305,-1.2305,-1.2305,-1.2305,-1.2452,-1.2372,-1.1771,-1.1806,-1.1739,-1.1125,-1.0902,-1.0776,-1.0776,-1.0933,-1.109,-1.1209,-1.1153,-1.1153,-1.124,-1.0958,-1.08,-1.0776,-1.0649,-1.0593,-1.0593,-1.0593,-1.0593,-1.0593,-1.0593,-1.0593,-1.0593,-1.0593,-1.0593,-1.0593,-1.0593,-1.0593,-0.8223,-0.8173,-0.8107,-0.8102,-0.7879,-0.7689,-0.7884,-0.8144,0.0,0.0,-0.8609,-0.8619,-0.8571,-0.8765,-0.8971,-0.9168,0.0,0.0,0.0,0.0,-0.9884,0.0,0.0,0.0,0.0,-1.0533,0.0,0.0,-1.159,-1.1949,-1.2363,-1.2577,-1.2705,-1.2705,-1.2705,-1.2705,-1.2705,-1.2705,-1.2705,-1.2705,-1.2705,-1.2705,-1.2705,-1.2705,-1.2705,-1.2705,-1.2705,-1.2681,-1.262,-1.2451,-1.2324,-1.2252,-1.2294,-1.218,-1.2122,-1.2725,-1.3002,-1.3163,-1.3516,-1.3824,-1.4088,-1.4088,-1.3921,-1.3613,-1.3313,-1.3033,-1.279,-1.2405,-1.2305,-1.2305,-1.2305,-1.2305,-1.2305,-1.2305,-1.2305,-1.2305,-1.2305,-1.2305,-1.2305,-1.2305,-1.2342,-1.2154,-1.1564,-1.1491,-1.133,-1.0776,-1.0656,-1.0618,-1.0618,-1.0776,-1.087,-1.087,-1.0996,-1.1028,-1.0902,-1.0839,-1.0744,-1.0656,-1.0624,-1.0593,-1.0593,-1.0593,-1.0593,-1.0593,-1.0593,-1.0593,-1.0593,-1.0593,-1.0593,-1.0593,-1.0593,-1.0593,-0.8329,-0.8112,-0.7857,-0.7917,-0.7852,-0.7819,-0.8042,0.0,0.0,0.0,-0.8517,-0.8474,-0.835,0.0,0.0,0.0,0.0,0.0,0.0,0.0,0.0,0.0,0.0,0.0,0.0,-0.9481,-0.9405,-0.9826,-1.0077,-1.0814,-1.2118,-1.2491,-1.2705,-1.2705,-1.2705,-1.2705,-1.2705,-1.2705,-1.2705,-1.2705,-1.2705,-1.2705,-1.2705,-1.2705,-1.2705,-1.2705,-1.2705,-1.2626,-1.2499,-1.2512,-1.2355,-1.2125,-1.2264,-1.2234,-1.2155,-1.2534,-1.2889,-1.3262,-1.3474,-1.3786,-1.4088,-1.4088,-1.3888,-1.352,-1.3106,-1.2904,-1.2723,-1.2385,-1.2305,-1.2305,-1.2305,-1.2305,-1.2305,-1.2305,-1.2305,-1.2305,-1.2305,-1.2305,-1.2305,-1.2305,-1.2305,-1.2118,-1.1495,-1.1389,-1.1229,-1.068,-1.0593,-1.0593,-1.0593,-1.0713,-1.0807,-1.0807,-1.0807,-1.0839,-1.0807,-1.0744,-1.0688,-1.0593,-1.0593,-1.0593,-1.0593,-1.0593,-1.0593,-1.0593,-1.0593,-1.0593,-1.0593,-1.0593,-1.0593,-1.0593,-1.0593,-1.0593,-0.8441,-0.8112,-0.7764,-0.7792,-0.7922,-0.8079,-0.8236,-0.8269,0.0,0.0,-0.8517,-0.8458,-0.829,0.0,-0.8776,0.0,-0.8937,0.0,0.0,0.0,0.0,0.0,0.0,0.0,0.0,-0.8365,0.0,-0.8472,-0.8759,-0.9763,-1.1688,-1.2369,-1.2705,-1.2705,-1.2705,-1.2705,-1.2705,-1.2705,-1.2705,-1.2705,-1.2705,-1.2705,-1.2705,-1.2705,-1.2705,-1.2705,-1.2705,-1.2584,-1.2409,-1.256,-1.2379,-1.2029,-1.2234,-1.2312,-1.2318,-1.2373,-1.2782,-1.3343,-1.3328,-1.3607,-1.4013,-1.3861,-1.3687,-1.3427,-1.3025,-1.2797,-1.2643,-1.2365,-1.2305,-1.2305,-1.2305,-1.2305,-1.2305,-1.2305,-1.2305,-1.2305,-1.2305,-1.2305,-1.2305,-1.2305,-1.2305,-1.2131,-1.161,-1.147,-1.1249,-1.076,-1.0633,-1.0593,-1.0593,-1.0681,-1.0776,-1.0776,-1.0713,-1.0713,-1.08,-1.0713,-1.0618,-1.0593,-1.0593,-1.0593,-1.0593,-1.0593,-1.0593,-1.0593,-1.0593,-1.0593,-1.0593,-1.0593,-1.0593,-1.0593,-1.0593,-1.0593,-0.8294,-0.8112,-0.8014,-0.8139,-0.8172,-0.8236,-0.8414,0.0,0.0,-0.8484,-0.8517,-0.8511,-0.8484,-0.8517,-0.8608,-0.8836,0.0,-0.9292,0.0,0.0,0.0,0.0,0.0,0.0,0.0,-0.8033,-0.8146,-0.8472,-0.8759,-0.9536,-1.1004,-1.2095,-1.2705,-1.2705,-1.2705,-1.2705,-1.2705,-1.2705,-1.2705,-1.2705,-1.2705,-1.2705,-1.2705,-1.2705,-1.2705,-1.2705,-1.2705,-1.2693,-1.265,-1.2439,-1.2318,-1.2282,-1.23,-1.2312,-1.2343,-1.2578,-1.2857,-1.3105,-1.3064,-1.3355,-1.3648,-1.3094,-1.3046,-1.324,-1.3186,-1.2779,-1.2338,-1.2311,-1.2305,-1.2305,-1.2305,-1.2305,-1.2305,-1.2305,-1.2305,-1.2305,-1.2305,-1.2305,-1.2305,-1.2305,-1.2305,-1.2204,-1.1919,-1.1603,-1.1282,-1.1002,-1.076,-1.0593,-1.0593,-1.0624,-1.0624,-1.0624,-1.0877,-1.0996,-1.0807,-1.0776,-1.0713,-1.0624,-1.0593,-1.0593,-1.0593,-1.0593,-1.0593,-1.0593,-1.0593,-1.0593,-1.0593,-1.0593,-1.0593,-1.0593,-1.0593,-1.0593,-0.8643,-0.8583,-0.8518,-0.8414,-0.8376,-0.8409,-0.8479,0.0,-0.8517,-0.8517,-0.8517,-0.8517,-0.8517,-0.8517,-0.8544,-0.8641,-0.8389,-0.8253,-0.8473,0.0,0.0,0.0,0.0,0.0,0.0,0.0,-0.6561,-0.681,-0.7577,-0.8492,-0.9435,-1.0869,-1.2003,-1.2662,-1.2705,-1.2705,-1.2705,-1.2705,-1.2705,-1.2705,-1.2705,-1.2705,-1.2705,-1.2705,-1.2705,-1.2705,-1.2705,-1.2705,-1.2699,-1.259,-1.2548,-1.2548,-1.2548,-1.2548,-1.256,-1.2662,-1.2881,-1.3057,-1.2873,-1.3096,-1.3398,-1.2995,-1.2908,-1.2938,-1.2719,-1.2492,-1.2305,-1.2305,-1.2305,-1.2305,-1.2305,-1.2305,-1.2305,-1.2305,-1.2305,-1.2305,-1.2305,-1.2305,-1.2305,-1.2305,-1.2305,-1.2204,-1.1953,-1.1623,-1.1295,-1.1035,-1.078,-1.0593,-1.0593,-1.0593,-1.0593,-1.0593,-1.0719,-1.0782,-1.0688,-1.0681,-1.0649,-1.0593,-1.0593,-1.0593,-1.0593,-1.0593,-1.0593,-1.0593,-1.0593,-1.0593,-1.0593,-1.0593,-1.0593,-1.0593,-1.0593,-1.0593,-0.8917,-0.8944,-0.896,-0.8759,-0.8667,-0.8619,0.0,-0.8565,-0.8517,-0.8517,-0.8517,-0.8517,-0.8517,-0.8517,-0.8517,-0.8517,-0.7972,-0.765,-0.782,-0.7442,0.0,0.0,0.0,-0.6284,0.0,-0.5765,-0.5548,-0.5677,-0.6482,-0.7309,-0.8177,-0.9396,-1.0788,-1.2443,-1.2619,-1.2705,-1.2705,-1.2705,-1.2705,-1.2705,-1.2705,-1.2705,-1.2705,-1.2705,-1.2705,-1.2705,-1.2705,-1.2705,-1.2705,-1.2705,-1.2705,-1.2705,-1.2705,-1.2705,-1.2705,-1.2705,-1.2833,-1.296,-1.2649,-1.2792,-1.3072,-1.2739,-1.2666,-1.2661,-1.2392,-1.2305,-1.2305,-1.2305,-1.2305,-1.2305,-1.2305,-1.2305,-1.2305,-1.2305,-1.2305,-1.2305,-1.2305,-1.2305,-1.2305,-1.2305,-1.2305,-1.2238,-1.2067,-1.175,-1.1483,-1.1283,-1.0961,-1.072,-1.072,-1.0646,-1.0593,-1.0593,-1.0593,-1.0593,-1.0593,-1.0593,-1.0593,-1.0593,-1.0593,-1.0593,-1.0593,-1.0593,-1.0593,-1.0593,-1.0593,-1.0593,-1.0593,-1.0593,-1.0593,-1.0593,-1.0593,-1.0593,-0.896,-0.9028,-0.92,-0.92,-0.9028,-0.8895,0.0,-0.8678,-0.8517,-0.8517,-0.8517,-0.8517,-0.8517,-0.8517,-0.8517,-0.8517,-0.8097,-0.7829,-0.7967,-0.776,0.0,0.0,0.0,-0.6276,-0.548,-0.5589,-0.5686,-0.5688,-0.5733,0.0,-0.7445,-0.7702,-0.9096,-1.1929,-1.2448,-1.2705,-1.2705,-1.2705,-1.2705,-1.2705,-1.2705,-1.2705,-1.2705,-1.2705,-1.2705,-1.2705,-1.2705,-1.2705,-1.2705,-1.2705,-1.2705,-1.2705,-1.2705,-1.2705,-1.2705,-1.2705,-1.2705,-1.2675,-1.231,-1.2426,-1.2641,-1.2144,-1.2218,-1.2483,-1.2324,-1.2305,-1.2305,-1.2305,-1.2305,-1.2305,-1.2305,-1.2305,-1.2305,-1.2305,-1.2305,-1.2305,-1.2305,-1.2305,-1.2305,-1.2305,-1.2305,-1.2305,-1.2298,-1.2058,-1.1899,-1.1899,-1.1397,-1.0989,-1.0989,-1.0767,-1.0593,-1.0593,-1.0593,-1.0593,-1.0593,-1.0593,-1.0593,-1.0593,-1.0593,-1.0593,-1.0593,-1.0593,-1.0593,-1.0593,-1.0593,-1.0593,-1.0593,-1.0593,-1.0593,-1.0593,-1.0593,-1.0593,-0.8917,-0.8949,-0.8965,-0.8775,-0.8678,-0.8624,-0.8624,-0.8565,-0.8517,-0.8517,-0.8517,-0.8517,-0.8517,-0.8517,-0.8565,-0.876,-0.8097,-0.7663,0.0,0.0,0.0,0.0,-0.5909,-0.5743,0.0,0.0,-0.5688,-0.5688,-0.5688,-0.6083,-0.6956,-0.7397,-0.8746,-1.1225,-1.158,-1.2057,-1.2705,-1.2705,-1.2705,-1.2705,-1.2705,-1.2705,-1.2705,-1.2705,-1.2705,-1.2705,-1.2705,-1.2705,-1.2705,-1.2705,-1.2705,-1.2705,-1.2705,-1.2705,-1.2705,-1.2705,-1.2705,-1.2632,-1.2142,-1.2141,-1.2265,-1.1771,-1.1845,-1.2133,-1.2109,-1.2194,-1.2305,-1.2305,-1.2305,-1.2305,-1.2305,-1.2305,-1.2305,-1.2305,-1.2305,-1.2305,-1.2305,-1.2305,-1.2305,-1.2305,-1.2305,-1.2305,-1.2305,-1.2094,-1.1832,-1.1597,-1.1243,-1.0922,-1.0754,-1.0646,-1.0593,-1.0593,-1.0593,-1.0593,-1.0593,-1.0593,-1.0593,-1.0593,-1.0593,-1.0593,-1.0593,-1.0593,-1.0593,-1.0593,-1.0593,-1.0593,-1.0593,-1.0593,-1.0593,-1.0593,-1.0593,-1.0593,-0.8981,-0.9025,-0.9014,-0.8931,-0.8781,-0.8646,-0.8646,-0.8581,-0.8517,-0.8517,-0.8517,-0.8517,-0.8517,-0.8587,-0.8694,-0.8873,-0.8245,-0.7741,0.0,0.0,0.0,0.0,0.0,0.0,0.0,-0.5618,-0.5688,-0.5688,-0.5688,-0.5908,-0.6343,-0.6741,-0.779,-0.9614,-1.0664,-1.166,-1.2705,-1.2705,-1.2705,-1.2705,-1.2705,-1.2705,-1.2705,-1.2705,-1.2705,-1.2705,-1.2705,-1.2705,0.0,-1.2705,-1.2705,-1.2693,-1.2596,-1.256,-1.256,-1.256,-1.2493,-1.2361,-1.2035,-1.1933,-1.1899,-1.152,-1.1669,-1.2003,-1.2077,-1.2187,-1.2305,-1.2305,-1.2305,-1.2305,-1.2305,-1.2305,-1.2305,-1.2305,-1.2305,-1.2305,-1.2305,-1.2305,-1.2305,-1.2305,-1.2305,-1.2305,-1.2305,-1.2151,-1.1971,-1.1784,-1.141,-1.1089,-1.0909,-1.0727,-1.0593,-1.0593,-1.0593,-1.0593,-1.0593,-1.0593,-1.0593,-1.0593,-1.0593,-1.0593,-1.0593,-1.0593,-1.0593,-1.0593,-1.0593,-1.0593,-1.0593,-1.0593,-1.0593,-1.0593,-1.0593,-1.0494,0.0,-0.9168,-0.9211,-0.9443,-0.9203,-0.8873,-0.8873,-0.8673,0.0,-0.8517,-0.8517,-0.8522,-0.8533,-0.8705,-0.8884,-0.8917,-0.8547,-0.8042,0.0,-0.6624,0.0,0.0,-0.5373,0.0,-0.5521,-0.5621,-0.5688,-0.5688,-0.5688,-0.5688,-0.5688,-0.5952,-0.6523,-0.7489,-0.9614,-1.1348,-1.2571,-1.2619,-1.2662,-1.2705,-1.2705,-1.2705,-1.2705,-1.2705,-1.2705,-1.2705,-1.2687,-1.2674,-1.2674,-1.2656,-1.265,-1.262,-1.2379,-1.2282,-1.2282,-1.2282,-1.2131,-1.192,-1.1902,-1.17,-1.1486,-1.1427,-1.1632,-1.2003,-1.2224,-1.2298,-1.2305,-1.2305,-1.2305,-1.2305,-1.2305,-1.2305,-1.2305,-1.2305,-1.2305,-1.2305,-1.2305,-1.2305,-1.2305,-1.2305,-1.2285,-1.2278,-1.2298,-1.2285,-1.2271,-1.2271,-1.1804,-1.1415,-1.1395,-1.0955,-1.0646,-1.0626,-1.0626,-1.0613,-1.0593,-1.0593,-1.0593,-1.0593,-1.0593,-1.0593,-1.0593,-1.0593,-1.0593,-1.0593,-1.0593,-1.0593,-1.0593,-1.0593,-1.0561,-1.0523,-1.0523,-1.0232,-0.89,0.0,-0.8689,-0.8748,-0.8678,-0.8597,0.0,-0.8554,-0.8517,-0.8517,0.0,-0.8571,-0.8782,-0.8678,-0.8711,-0.9066,-0.8894,-0.8527,-0.7936,0.0,0.0,-0.5443,-0.5542,-0.5645,-0.5645,-0.5672,-0.5688,-0.5688,-0.5688,-0.5688,-0.5688,-0.5777,-0.6305,-0.7445,-0.8053,-0.9314,-1.1391,-1.1923,-1.2357,-1.2705,-1.2705,-1.2705,-1.2705,-1.2705,-1.2705,-1.2693,-1.2493,-1.2403,-1.2391,-1.2192,-1.2107,-1.206,-1.2041,-1.197,-1.197,-1.197,-1.1934,-1.185,-1.1657,-1.1543,-1.1486,-1.1427,-1.1446,-1.1595,-1.1966,-1.2187,-1.2305,-1.2305,-1.2305,-1.2305,-1.2305,-1.2305,-1.2305,-1.2305,-1.2305,-1.2305,-1.2305,-1.2305,-1.2305,-1.2305,-1.2124,-1.2044,-1.2265,-1.2118,-1.2007,-1.2007,-1.185,-1.1683,-1.1422,-1.1309,-1.1136,-1.0915,-1.0928,-1.0834,-1.0613,-1.0593,-1.0593,-1.0593,-1.0593,-1.0593,-1.0593,-1.0593,-1.0593,-1.0593,-1.0593,-1.0593,-1.0593,-1.0593,-1.0301,-0.9748,-0.9748,-0.95,-0.87,-0.8608,-0.8544,-0.8646,-0.8592,-0.8517,-0.8517,0.0,0.0,0.0,0.0,-0.8554,-0.8678,-0.8775,-0.8915,-0.9163,-0.8995,0.0,0.0,0.0,0.0,-0.5466,-0.5586,-0.5688,0.0,-0.5688,-0.5688,-0.5688,-0.5688,-0.5688,-0.5688,-0.5688,-0.5997,-0.6656,-0.7003,-0.8133,-1.0173,-1.109,-1.166,-1.1918,-1.2443,-1.2705,-1.2699,-1.2578,-1.2524,-1.2506,-1.2246,-1.2131,-1.2125,-1.194,-1.188,-1.1908,-1.1748,-1.1706,-1.1706,-1.1706,-1.1621,-1.1546,-1.1495,-1.1411,-1.131,-1.1384,-1.1409,-1.1446,-1.1781,-1.2003,-1.2187,-1.2268,-1.2305,-1.2305,-1.2305,-1.2305,-1.2305,-1.2305,-1.2305,-1.2305,-1.2305,-1.2305,-1.2265,-1.2131,-1.2084,-1.2078,-1.2098,-1.2084,-1.2064,-1.2064,-1.1993,-1.1846,-1.165,-1.1396,-1.1216,-1.1196,-1.0955,-1.0814,-1.0794,-1.0667,-1.0593,-1.0593,-1.0593,-1.0593,-1.0593,-1.0593,-1.0593,-1.0593,-1.0593,-1.0593,-1.0593,-1.0263,-0.9875,-0.9486,-0.9198,-0.8805,-0.8619,-0.8571,-0.8608,-0.8803,-0.8662,-0.8517,-0.8517,0.0,0.0,0.0,0.0,0.0,0.0,-0.891,0.0,0.0,0.0,0.0,-0.6423,-0.5907,-0.5608,-0.542,-0.5597,0.0,-0.5688,-0.5688,-0.5688,-0.5688,-0.5688,-0.5688,-0.5688,-0.5688,-0.5688,-0.5688,-0.6299,-0.7302,-0.8646,-0.9956,-1.0697,-1.0918,-1.1918,-1.2425,-1.2547,-1.2332,-1.2247,-1.224,-1.198,-1.1826,-1.182,-1.1778,-1.1799,-1.1775,-1.1513,-1.1429,-1.1429,-1.1429,-1.1317,-1.1148,-1.1345,-1.1273,-1.1149,-1.1298,-1.1335,-1.1409,-1.1595,-1.1781,-1.1966,-1.2194,-1.2268,-1.2305,-1.2305,-1.2305,-1.2305,-1.2305,-1.2305,-1.2305,-1.2305,-1.2305,-1.2231,-1.202,-1.2098,-1.2171,-1.2007,-1.2104,-1.2251,-1.2291,-1.2091,-1.1973,-1.1973,-1.1496,-1.1269,-1.147,-1.1089,-1.0854,-1.0982,-1.0801,-1.064,-1.0593,-1.0593,-1.0593,-1.0593,-1.0593,-1.0555,-1.0428,-1.0428,-1.0396,-1.0269,-0.9652,-0.9294,-0.9166,-0.8625,-0.8178,-0.8981,-0.8936,-0.8803,-0.8608,-0.8544,-0.8517,-0.8517,0.0,0.0,0.0,0.0,0.0,0.0,-0.9001,-0.9084,0.0,0.0,-0.7124,0.0,0.0,-0.545,-0.5472,0.0,-0.5688,-0.5688,-0.5688,-0.5688,-0.5688,-0.5688,-0.5688,-0.5688,-0.5688,-0.5688,-0.5688,-0.5822,-0.5994,-0.6213,-0.8002,-0.9392,-1.0399,-1.0745,-1.1209,-1.1784,-1.1957,-1.2028,-1.1968,-1.1663,-1.1549,-1.1537,-1.1335,-1.1232,-1.1232,-1.119,-1.1178,-1.1178,-1.1178,-1.1148,-1.1117,-1.116,-1.1148,-1.1111,-1.1149,-1.1149,-1.1186,-1.1409,-1.1484,-1.1558,-1.1929,-1.215,-1.2305,-1.2305,-1.2305,-1.2305,-1.2305,-1.2305,-1.2305,-1.2305,-1.2305,-1.2285,-1.2245,-1.2078,-1.2033,-1.2204,-1.2064,-1.206,-1.2265,-1.2265,-1.2238,-1.2238,-1.2158,-1.2024,-1.1824,-1.1752,-1.1517,-1.1035,-1.0955,-1.0854,-1.0606,-1.0593,-1.0593,-1.0593,-1.0593,-1.0301,-0.9678,-0.9678,-0.939,-0.8812,-0.8716,-0.8361,-0.7819,-0.7807,-0.7578,-0.8936,-0.8931,-0.8873,-0.8765,-0.8705,-0.8667,-0.8544,0.0,0.0,0.0,0.0,0.0,0.0,0.0,-0.9107,-0.8542,0.0,-0.6503,-0.5851,-0.5596,-0.5445,0.0,0.0,-0.5688,-0.5688,-0.5688,-0.5688,-0.5688,-0.5688,-0.5688,-0.5688,-0.5688,-0.5688,-0.5688,-0.5688,-0.5688,-0.5688,-0.649,-0.7527,-0.879,-0.9418,-0.9917,-1.0198,-1.0697,-1.0885,-1.0886,-1.1145,-1.1266,-1.1254,-1.1166,-1.1111,-1.1111,-1.1111,-1.1111,-1.1111,-1.1111,-1.1111,-1.1111,-1.1111,-1.1111,-1.1111,-1.1111,-1.1111,-1.1111,-1.1223,-1.1298,-1.1446,-1.1744,-1.1966,-1.2157,-1.2268,-1.2305,-1.2305,-1.2305,-1.2305,-1.2305,-1.2305,-1.2305,-1.2258,-1.2098,-1.2084,-1.2098,-1.2107,-1.2091,-1.2144,-1.2278,-1.2305,-1.2305,-1.2305,-1.2164,-1.2078,-1.2098,-1.1817,-1.1583,-1.1476,-1.1176,-1.0901,-1.0613,-1.0593,-1.0593,-1.0593,-1.0231,-0.9843,-0.9518,-0.9134,-0.8812,-0.849,-0.8134,-0.7814,-0.7493,-0.727,-0.709,-0.8967,-0.8926,-0.8895,-0.8895,0.0,-0.8863,-0.8705,-0.8635,0.0,0.0,0.0,0.0,0.0,-0.9347,0.0,-0.7769,-0.687,-0.6069,-0.5302,-0.5347,-0.5435,-0.5462,-0.5572,-0.5648,-0.5648,-0.5648,-0.5659,-0.5686,-0.5661,-0.5648,-0.5648,-0.5648,-0.5634,-0.5648,-0.5648,-0.5648,-0.5648,-0.5513,-0.6082,-0.7301,-0.8118,-0.8556,-0.8754,-0.9293,-0.9589,-0.965,-1.0436,-1.0769,-1.0812,-1.1037,-1.1111,-1.1111,-1.1111,-1.1111,-1.1111,-1.1111,-1.1111,-1.1111,-1.1111,-1.1111,-1.1111,-1.1111,-1.1111,-1.1111,-1.1111,-1.1223,-1.1372,-1.1632,-1.1818,-1.2003,-1.2224,-1.2305,-1.2305,-1.2305,-1.2305,-1.2305,-1.2305,-1.2305,-1.2238,-1.2011,-1.2151,-1.2231,-1.2047,-1.2151,-1.2305,-1.2305,-1.2305,-1.2305,-1.2305,-1.2104,-1.2058,-1.2278,-1.1897,-1.1697,-1.1893,-1.1363,-1.0863,-1.0483,-1.0563,-1.0523,-1.0364,-0.9811,-0.9358,-0.9037,-0.8522,-0.8166,-0.8004,-0.7489,-0.7255,-0.7301,-0.6929,-0.6873,-0.9302,-0.9148,-0.8895,-0.8895,-0.8895,0.0,-0.9109,-0.899,0.0,-0.913,0.0,0.0,0.0,-0.914,-0.8555,-0.7888,-0.6887,-0.5993,-0.529,0.0,-0.5254,-0.541,-0.5488,-0.5521,-0.5521,-0.5521,-0.5567,-0.568,-0.5583,-0.5521,-0.5521,-0.5521,-0.547,-0.544,-0.5438,-0.5438,-0.5438,-0.5427,-0.5822,-0.6675,-0.686,-0.7282,-0.7896,-0.8145,-0.8347,-0.8551,-0.9377,-0.983,-1.003,-1.0775,-1.1111,-1.1111,-1.1111,-1.1111,-1.1111,-1.1111,-1.1111,-1.1111,-1.1111,-1.1111,-1.1111,-1.1111,-1.1111,-1.1111,-1.1111,-1.1111,-1.1186,-1.1595,-1.1706,-1.1818,-1.2187,-1.2305,-1.2305,-1.2305,-1.2305,-1.2305,-1.2305,-1.2305,-1.2291,-1.2271,-1.2285,-1.2291,-1.2271,-1.2285,-1.2305,-1.2305,-1.2305,-1.2305,-1.2305,-1.2285,-1.2278,-1.2298,-1.2265,-1.2138,-1.1926,-1.1363,-1.0712,-1.0091,-1.038,-1.0295,-0.9614,-0.9518,-0.8909,-0.7684,-0.7587,-0.7232,-0.6548,-0.6515,-0.6564,-0.6762,-0.6917,-0.7065,-0.9326,-0.9293,-0.9227,-0.9063,-0.9186,0.0,0.0,-0.896,-0.9008,-0.9357,-0.9437,0.0,0.0,0.0,-0.7348,-0.7573,-0.6385,-0.5403,-0.521,-0.5186,-0.5233,-0.5396,-0.5409,-0.5436,-0.5436,-0.5436,-0.5458,-0.5504,-0.5464,-0.5436,-0.5436,-0.5436,-0.5417,-0.5413,-0.541,-0.541,-0.541,-0.5333,-0.5443,-0.5732,-0.5764,-0.5956,-0.6221,-0.6834,-0.7138,-0.7268,-0.8228,-0.8727,-0.8808,-0.9253,-0.9707,-1.0239,-1.085,-1.1111,-1.1111,-1.1111,-1.1111,-1.1111,-1.1111,-1.1111,-1.1111,-1.1111,-1.1111,-1.1111,-1.1111,-1.1186,-1.1335,-1.1632,-1.1781,-1.1966,-1.2224,-1.2305,-1.2305,-1.2305,-1.2305,-1.2305,-1.2305,-1.2305,-1.2305,-1.2305,-1.2305,-1.2305,-1.2305,-1.2305,-1.2305,-1.2305,-1.2305,-1.2305,-1.2305,-1.2305,-1.2305,-1.2305,-1.2305,-1.2184,-1.1933,-1.1243,-1.0628,-1.0148,-0.9995,-0.962,-0.8909,-0.849,-0.8004,-0.7521,-0.7036,-0.6679,-0.6387,-0.6387,-0.6505,-0.6714,-0.6902,-0.7086,-0.9435,-0.9461,-0.9433,-0.9269,0.0,0.0,-0.9165,-0.9122,-0.9165,-0.927,-0.9331,0.0,-0.9228,0.0,0.0,0.0,-0.5953,-0.5045,-0.5121,-0.5132,-0.5165,-0.5249,-0.5331,-0.5353,-0.5353,-0.5353,-0.5369,-0.5407,-0.5375,-0.5353,-0.5353,-0.5353,-0.5336,-0.526,-0.5257,-0.5257,-0.5257,-0.5175,-0.5132,-0.5132,-0.5132,-0.5132,-0.5169,-0.5743,-0.6044,-0.616,-0.7157,-0.7659,-0.7778,-0.8347,-0.9107,-0.9976,-1.0769,-1.1111,-1.1111,-1.1111,-1.1111,-1.1111,-1.1111,-1.1111,-1.1111,-1.1111,-1.1111,-1.1111,-1.1111,-1.1186,-1.1372,-1.1632,-1.1781,-1.1966,-1.2224,-1.2305,-1.2305,-1.2305,-1.2305,-1.2305,-1.2305,-1.2305,-1.2305,-1.2305,-1.2305,-1.2305,-1.2305,-1.2305,-1.2305,-1.2305,-1.2305,-1.2305,-1.2305,-1.2305,-1.2305,-1.2305,-1.2077,-1.1851,-1.1657,-1.0833,-1.0133,-0.9673,-0.9237,-0.8777,-0.828,-0.7819,-0.7428,-0.7167,-0.6646,-0.6415,-0.6505,-0.6505,-0.6627,-0.6855,-0.7016,-0.7135,-0.9712,-0.9567,-0.9417,0.0,0.0,0.0,-0.9542,-0.9614,-0.9422,-0.8812,-0.867,-0.8493,-0.7899,-0.7625,0.0,-0.6697,-0.5717,-0.5018,-0.5018,-0.5018,-0.5018,-0.5018,-0.5116,-0.5184,-0.5184,-0.5184,-0.5235,-0.5399,-0.5254,-0.5184,-0.5184,-0.5184,-0.5132,-0.5021,-0.5018,-0.5018,-0.5018,-0.5018,-0.5018,-0.5018,-0.5018,-0.5018,-0.5018,-0.5018,-0.509,-0.5359,-0.6121,-0.6623,-0.6976,-0.8389,-0.9566,-1.0513,-1.0925,-1.1111,-1.1111,-1.1111,-1.1111,-1.1111,-1.1111,-1.1111,-1.1111,-1.1111,-1.1111,-1.1111,-1.1111,-1.1111,-1.1186,-1.1595,-1.1706,-1.1781,-1.2194,-1.2305,-1.2305,-1.2305,-1.2305,-1.2305,-1.2305,-1.2305,-1.2305,-1.2305,-1.2305,-1.2305,-1.2305,-1.2305,-1.2305,-1.2305,-1.2305,-1.2305,-1.2305,-1.2305,-1.2305,-1.2298,-1.1595,-1.1111,-1.1074,-1.009,-0.9187,-0.8456,-0.8157,-0.792,-0.7719,-0.7709,-0.7274,-0.6428,-0.6391,-0.6513,-0.6696,-0.6696,-0.6879,-0.7187,-0.7187,-0.7317,-0.9619,-0.9565,0.0,-0.9434,0.0,0.0,0.0,-0.9614,0.0,0.0,-0.7848,-0.7187,-0.7545,-0.6668,0.0,-0.6261,-0.5559,-0.5018,-0.5018,-0.5018,-0.5018,-0.5018,-0.5048,-0.5067,-0.5067,-0.5067,-0.5083,-0.5118,-0.5089,-0.5067,-0.5067,-0.5067,-0.5053,-0.5018,-0.5018,-0.5018,-0.5018,-0.5018,-0.5018,-0.5018,-0.5018,-0.5018,-0.5018,-0.5018,-0.5015,-0.5093,-0.5323,-0.5476,-0.5709,-0.7425,-0.8761,-0.9755,-1.0588,-1.0962,-1.1111,-1.1111,-1.1111,-1.1111,-1.1111,-1.1111,-1.1111,-1.1111,-1.1111,-1.1111,-1.1111,-1.1186,-1.1335,-1.1446,-1.1706,-1.1929,-1.2077,-1.2194,-1.2305,-1.2305,-1.2305,-1.2305,-1.2305,-1.2305,-1.2305,-1.2305,-1.2305,-1.2305,-1.2305,-1.2305,-1.2305,-1.2305,-1.2305,-1.2305,-1.2305,-1.2305,-1.2077,-1.1521,-1.1223,-1.0881,-1.0314,-0.9461,-0.883,-0.8642,-0.7986,-0.7515,-0.7236,-0.7223,-0.7092,-0.6829,-0.6829,-0.6857,-0.691,-0.691,-0.6997,-0.7187,-0.7187,-0.7317,-0.9841,-0.9843,0.0,-0.9714,-0.9783,-0.9849,-0.9659,0.0,0.0,0.0,-0.6988,-0.6368,-0.6472,-0.5989,0.0,-0.5717,-0.5333,-0.5018,-0.5018,-0.5018,-0.5018,-0.5018,-0.5018,-0.5018,-0.5018,-0.5018,-0.5018,-0.5018,-0.5018,-0.5018,-0.5018,-0.5018,-0.5018,-0.5018,-0.5018,-0.5018,-0.5018,-0.5018,-0.5018,-0.5018,-0.5018,-0.5018,-0.5018,-0.5018,-0.5018,-0.5018,-0.5018,-0.5132,-0.5479,-0.7042,-0.8075,-0.8803,-0.9825,-1.0169,-1.0132,-1.0132,-1.0132,-1.0132,-1.0132,-1.0132,-1.0132,-1.0132,-1.0132,-1.0132,-1.0132,-1.0432,-1.0812,-1.0887,-1.1335,-1.1781,-1.1966,-1.2077,-1.2187,-1.2268,-1.2305,-1.2305,-1.2305,-1.2305,-1.2305,-1.2305,-1.2305,-1.2305,-1.2305,-1.2305,-1.2305,-1.2305,-1.2305,-1.2305,-1.2305,-1.2003,-1.1632,-1.1149,-1.0545,-0.9943,-0.9448,-0.8694,-0.8208,-0.8208,-0.7748,-0.7424,-0.7208,-0.7135,-0.7061,-0.6992,-0.6988,-0.7024,-0.7062,-0.7062,-0.7151,-0.733,-0.733,-0.7382,-1.0196,0.0,0.0,-1.0115,-1.0092,0.0,-0.9523,-0.8437,-0.7272,-0.6468,0.0,-0.5851,-0.5151,-0.561,-0.5848,-0.5112,-0.5018,-0.5018,-0.5018,-0.5018,-0.5018,-0.5018,-0.5018,-0.5018,-0.5018,-0.5018,-0.5018,-0.5018,-0.5018,-0.5018,-0.5018,-0.5018,-0.5018,-0.5018,-0.5018,-0.5018,-0.5018,-0.5018,-0.5018,-0.5018,-0.5018,-0.5018,-0.5018,-0.5018,-0.5018,-0.5018,-0.5018,-0.5323,-0.5977,-0.6969,-0.7544,-0.7859,-0.8803,-0.896,-0.8661,-0.8699,-0.8703,-0.8703,-0.8703,-0.8703,-0.8703,-0.8703,-0.8703,-0.8703,-0.878,-0.9311,-0.9954,-1.0218,-1.0812,-1.1484,-1.1855,-1.1966,-1.204,-1.2224,-1.2298,-1.2305,-1.2305,-1.2305,-1.2305,-1.2305,-1.2305,-1.2305,-1.2305,-1.2305,-1.2305,-1.2305,-1.2305,-1.2268,-1.2187,-1.1558,-1.1037,-1.0887,-0.9571,-0.8665,-0.8589,-0.794,-0.7484,-0.7484,-0.7484,-0.7484,-0.7484,-0.7334,-0.7171,-0.7041,-0.7037,-0.7118,-0.7211,-0.7211,-0.733,-0.7484,-0.7484,-0.7484,-0.9973,-0.9991,0.0,0.0,-1.0038,-0.9636,-0.8464,-0.7841,-0.7387,-0.7046,-0.6077,-0.5202,-0.5021,-0.5154,-0.5202,-0.5021,-0.5018,-0.5018,-0.5018,-0.5018,-0.5018,-0.5018,-0.5018,-0.5018,-0.5018,-0.5018,-0.5018,-0.5018,-0.5018,-0.5018,-0.5018,-0.5018,-0.5018,-0.5018,-0.5018,-0.5018,-0.5018,-0.5018,-0.5018,-0.5018,-0.5018,-0.5018,-0.5018,-0.5018,-0.5018,-0.5018,-0.5018,-0.5323,-0.5938,-0.6318,-0.6892,-0.7617,-0.8156,-0.8385,-0.8499,-0.8661,-0.8703,-0.8703,-0.8703,-0.8703,-0.8703,-0.8703,-0.8703,-0.8818,-0.9463,-0.9765,-1.003,-1.07,-1.1149,-1.1409,-1.1521,-1.1744,-1.2003,-1.204,-1.2194,-1.2305,-1.2305,-1.2305,-1.2305,-1.2305,-1.2305,-1.2305,-1.2305,-1.2305,-1.2305,-1.2305,-1.2305,-1.2077,-1.1446,-1.1223,-1.0619,-0.9344,-0.8889,-0.8432,-0.7825,-0.7599,-0.7484,-0.7484,-0.7484,-0.7484,-0.7484,-0.7447,-0.7407,-0.7408,-0.7408,-0.7424,-0.7427,-0.7427,-0.7447,-0.7484,-0.7484,-0.7484,0.0,0.0,0.0,-0.9888,0.0,0.0,-0.7778,-0.7207,-0.6815,-0.6626,-0.5747,-0.5018,-0.5018,-0.5018,-0.5018,-0.5018,-0.5018,-0.5018,-0.5018,-0.5018,-0.5018,-0.5018,-0.5018,-0.5018,-0.5018,-0.5018,-0.5018,-0.5018,-0.5018,-0.5018,-0.5018,-0.5018,-0.5018,-0.5018,-0.5018,-0.5018,-0.5018,-0.5018,-0.5018,-0.5018,-0.5018,-0.5018,-0.5018,-0.5018,-0.5018,-0.5018,-0.5018,-0.5171,-0.5518,-0.5899,-0.6205,-0.6507,-0.7126,-0.7318,-0.7238,-0.748,-0.7561,-0.7561,-0.7561,-0.7561,-0.7561,-0.7561,-0.7825,-0.8208,-0.8627,-0.9273,-0.9992,-1.0406,-1.0887,-1.1298,-1.1372,-1.1558,-1.1744,-1.1966,-1.215,-1.2305,-1.2305,-1.2305,-1.2305,-1.2305,-1.2305,-1.2305,-1.2305,-1.2305,-1.215,-1.1781,-1.1744,-1.144,-1.0614,-1.0207,-0.9642,-0.8775,-0.836,-0.794,-0.7522,-0.7484,-0.7484,-0.7484,-0.7484,-0.7484,-0.7484,-0.7484,-0.7484,-0.7484,-0.7484,-0.7484,-0.7484,-0.7484,-0.7484,-0.7484,-0.7484,-0.7484,0.0,0.0,-1.0304,-0.9764,-0.8707,0.0,-0.7385,-0.6759,-0.6165,-0.586,-0.5377,-0.5018,-0.5018,-0.5018,-0.5018,-0.5018,-0.5018,-0.5018,-0.5018,-0.5018,-0.5018,-0.5018,-0.5018,-0.5018,-0.5018,-0.5018,-0.5018,-0.5018,-0.5018,-0.5018,-0.5018,-0.5018,-0.5018,-0.5018,-0.5018,-0.5018,-0.5018,-0.5018,-0.5018,-0.5018,-0.5018,-0.5018,-0.5018,-0.5018,-0.5018,-0.5018,-0.5018,-0.5018,-0.5054,-0.5556,-0.5553,-0.5321,-0.6096,-0.6173,-0.5864,-0.6141,-0.6261,-0.63,-0.63,-0.63,-0.63,-0.63,-0.676,-0.733,-0.7446,-0.8508,-0.9728,-0.9846,-1.0368,-1.0925,-1.1111,-1.1068,-1.1068,-1.1403,-1.1663,-1.1922,-1.2224,-1.2305,-1.2305,-1.2305,-1.2194,-1.2077,-1.2077,-1.1966,-1.1663,-1.0993,-1.0881,-1.0619,-0.9782,-0.9069,-0.8623,-0.8513,-0.7863,-0.7446,-0.7484,-0.7484,-0.7484,-0.7484,-0.7484,-0.7484,-0.7484,-0.7484,-0.7484,-0.7484,-0.7484,-0.7484,-0.7484,-0.7484,-0.7484,-0.7484,-0.7484,-0.7484,0.0,0.0,0.0,0.0,-0.9039,-0.7837,0.0,0.0,-0.6158,0.0,-0.5123,-0.5018,-0.5018,-0.5018,-0.5018,-0.5018,-0.5018,-0.5018,-0.5018,-0.5018,-0.5018,-0.5018,-0.5018,-0.5018,-0.5018,-0.5018,-0.5018,-0.5018,-0.5018,-0.5018,-0.5018,-0.5018,-0.5018,-0.5018,-0.5018,-0.5018,-0.5018,-0.5018,-0.5018,-0.5018,-0.5018,-0.5018,-0.5018,-0.5018,-0.5018,-0.5018,-0.5018,-0.5018,-0.5018,-0.5093,-0.5093,-0.5054,-0.5359,-0.5556,-0.5676,-0.5864,-0.6099,-0.63,-0.63,-0.63,-0.63,-0.63,-0.6377,-0.6606,-0.7292,-0.8131,-0.9003,-0.969,-0.9992,-1.0067,-1.0105,-0.9722,-0.9339,-0.9377,-0.9674,-1.0383,-1.1966,-1.2305,-1.2305,-1.2305,-1.1744,-1.126,-1.126,-1.0689,-1.0196,-1.0083,-1.0045,-0.9782,-0.896,-0.8618,-0.8232,-0.771,-0.7411,-0.7296,-0.7484,-0.7484,-0.7484,-0.7484,-0.7484,-0.7484,-0.7484,-0.7484,-0.7484,-0.7484,-0.7484,-0.7484,-0.7484,-0.7484,-0.7484,-0.7484,-0.7484,-0.7484,-1.0083,-0.9971,-0.955,0.0,-0.8551,-0.7475,-0.6675,0.0,-0.5752,-0.5307,-0.5097,-0.5018,-0.5018,-0.5018,-0.5018,-0.5018,-0.5018,-0.5018,-0.5018,-0.5018,-0.5018,-0.5018,-0.5018,-0.5018,-0.5018,-0.5018,-0.5018,-0.5018,-0.5018,-0.5018,-0.5018,-0.5018,-0.5018,-0.5018,-0.5018,-0.5018,-0.5018,-0.5018,-0.5018,-0.5018,-0.5018,-0.5018,-0.5018,-0.5018,-0.5018,-0.5018,-0.5018,-0.5018,-0.5018,-0.5018,-0.5018,-0.5015,-0.5207,-0.5359,-0.5479,-0.5786,-0.598,-0.6099,-0.6261,-0.63,-0.63,-0.63,-0.6606,-0.7026,-0.7407,-0.8055,-0.8775,-0.9122,-0.9236,-0.9236,-0.9236,-0.9041,-0.8851,-0.8965,-0.915,-0.9523,-1.0421,-1.1143,-1.1632,-1.1632,-1.0993,-1.0426,-1.0426,-1.0121,-0.9744,-0.9296,-0.9221,-0.8884,-0.7978,-0.7787,-0.7595,-0.7211,-0.7096,-0.7061,-0.7173,-0.7253,-0.7334,-0.7334,-0.7446,-0.7484,-0.7484,-0.7484,-0.7484,-0.7484,-0.7484,-0.7484,-0.7484,-0.7484,-0.7484,-0.7484,-0.7484,-0.7484,-0.9584,-0.9642,-0.9293,-0.8666,-0.7954,-0.7149,0.0,0.0,-0.5522,0.0,-0.5183,-0.505,-0.5023,-0.5018,-0.5018,-0.5018,-0.5018,-0.5018,-0.5018,-0.5018,-0.5018,-0.5018,-0.5018,-0.5018,-0.5018,-0.5018,-0.5018,-0.5018,-0.5018,-0.5018,-0.5018,-0.5018,-0.5018,-0.5018,-0.5018,-0.5018,-0.5018,-0.5018,-0.5018,-0.5018,-0.5018,-0.5018,-0.5018,-0.5018,-0.5018,-0.5018,-0.5018,-0.5018,-0.5018,-0.5018,-0.5018,-0.5018,-0.5168,-0.5285,-0.5398,-0.5709,-0.5902,-0.6022,-0.6219,-0.63,-0.63,-0.63,-0.6721,-0.718,-0.718,-0.7748,-0.8399,-0.8399,-0.8399,-0.8399,-0.8399,-0.8246,-0.8131,-0.828,-0.8351,-0.8542,-0.9188,-1.0051,-1.0732,-1.0732,-1.0126,-0.9593,-0.9593,-0.9442,-0.9069,-0.847,-0.836,-0.8055,-0.7296,-0.7103,-0.7099,-0.7207,-0.7169,-0.713,-0.7207,-0.7407,-0.7411,-0.7223,-0.7373,-0.7484,-0.7484,-0.7484,-0.7484,-0.7484,-0.7484,-0.7484,-0.7484,-0.7484,-0.7484,-0.7484,-0.7484,-0.7484,-0.7387,-0.778,0.0,-0.7813,0.0,0.0,0.0,0.0,-0.5699,-0.5657,-0.5429,-0.5143,-0.5037,-0.5018,-0.5018,-0.5018,-0.5018,-0.5018,-0.5018,-0.5018,-0.5018,-0.5018,-0.5018,-0.5018,-0.5018,-0.5018,-0.5018,-0.5018,-0.5018,-0.5018,-0.5018,-0.5018,-0.5018,-0.5018,-0.5018,-0.5018,-0.5018,-0.5018,-0.5018,-0.5018,-0.5018,-0.5018,-0.5018,-0.5018,-0.5018,-0.5018,-0.5018,-0.5018,-0.5018,-0.5018,-0.5018,-0.5018,-0.5018,-0.5249,-0.5598,-0.5598,-0.5909,-0.63,-0.63,-0.63,-0.63,-0.63,-0.6338,-0.6377,-0.6377,-0.6911,-0.7557,-0.7557,-0.7557,-0.7557,-0.7557,-0.6988,-0.6416,-0.6451,-0.6606,-0.7211,-0.8917,-0.9485,-0.9674,-0.9674,-0.9188,-0.8775,-0.8775,-0.8131,-0.7595,-0.7557,-0.7411,-0.7257,-0.7223,-0.6872,-0.698,-0.7927,-0.7855,-0.7817,-0.8003,-0.8208,-0.8021,-0.7261,-0.7373,-0.7484,-0.7484,-0.7484,-0.7484,-0.7484,-0.7484,-0.7484,-0.7484,-0.7484,-0.7484,-0.7484,-0.7484,-0.7484,-0.7504,-0.8042,0.0,0.0,-0.7576,-0.736,-0.6566,-0.6214,-0.595,-0.5624,-0.5399,-0.5218,-0.5023,-0.5018,-0.5018,-0.5018,-0.5018,-0.5018,-0.5018,-0.5018,-0.5018,-0.5018,-0.5018,-0.5018,-0.5018,-0.5018,-0.5018,-0.5018,-0.5018,-0.5018,-0.5018,-0.4903,-0.4863,-0.4863,-0.4863,-0.4898,-0.5015,-0.5018,-0.5018,-0.5018,-0.5018,-0.5018,-0.5018,-0.5018,-0.5018,-0.5018,-0.5018,-0.5018,-0.5018,-0.5018,-0.5018,-0.5018,-0.5018,-0.5096,-0.5249,-0.5521,-0.5715,-0.5912,-0.6183,-0.63,-0.63,-0.63,-0.63,-0.63,-0.63,-0.649,-0.6718,-0.6718,-0.6718,-0.6718,-0.6718,-0.6528,-0.63,-0.63,-0.6335,-0.6606,-0.7249,-0.8046,-0.8685,-0.8799,-0.8237,-0.7791,-0.7902,-0.7672,-0.7446,-0.7334,-0.7257,-0.7107,-0.6834,-0.6679,-0.6868,-0.7633,-0.7633,-0.7633,-0.7706,-0.7902,-0.7672,-0.6872,-0.7142,-0.7296,-0.7296,-0.7446,-0.7484,-0.7484,-0.7484,-0.7484,-0.7484,-0.7484,-0.7484,-0.7484,-0.7484,-0.7484,-0.6962,-0.754,0.0,0.0,0.0,-0.7309,-0.6536,0.0,-0.6077,-0.5796,-0.5524,-0.5294,-0.5137,-0.5054,-0.5018,-0.5018,-0.5018,-0.5018,-0.5018,-0.5018,-0.5018,-0.5018,-0.5018,-0.5018,-0.5018,-0.5018,-0.5018,-0.5018,-0.4941,-0.4917,-0.4917,-0.4841,-0.4736,-0.4659,-0.4627,-0.4685,-0.4763,-0.4841,-0.4898,-0.4898,-0.4976,-0.5018,-0.5018,-0.5018,-0.5018,-0.5018,-0.5018,-0.5018,-0.5018,-0.5018,-0.5018,-0.5018,-0.5018,-0.5054,-0.5132,-0.5482,-0.5637,-0.575,-0.6145,-0.63,-0.63,-0.63,-0.63,-0.63,-0.63,-0.63,-0.63,-0.63,-0.63,-0.63,-0.63,-0.63,-0.63,-0.63,-0.63,-0.63,-0.63,-0.6984,-0.7625,-0.7778,-0.7399,-0.7138,-0.7288,-0.7288,-0.7253,-0.7099,-0.7026,-0.6911,-0.6641,-0.6525,-0.6756,-0.7446,-0.7484,-0.7484,-0.7484,-0.7672,-0.7442,-0.6641,-0.6911,-0.7142,-0.7184,-0.7334,-0.7446,-0.7484,-0.7484,-0.7484,-0.7484,-0.7484,-0.7484,-0.7484,-0.7484,-0.7484,0.0,0.0,0.0,0.0,0.0,0.0,-0.6587,0.0,-0.6101,-0.6191,-0.5827,-0.5465,-0.5344,-0.5129,-0.5018,-0.5018,-0.5018,-0.5018,-0.5018,-0.5018,-0.5018,-0.5018,-0.5018,-0.5018,-0.5018,-0.5018,-0.5018,-0.5018,-0.4866,-0.4795,-0.4795,-0.4716,-0.4609,-0.439,-0.4318,-0.4305,-0.4312,-0.4565,-0.4696,-0.4701,-0.4893,-0.5015,-0.5018,-0.5012,-0.5015,-0.5018,-0.5018,-0.5018,-0.5018,-0.5018,-0.5018,-0.5018,-0.5018,-0.5132,-0.5321,-0.5521,-0.5712,-0.5941,-0.6219,-0.63,-0.63,-0.63,-0.63,-0.63,-0.63,-0.63,-0.63,-0.63,-0.63,-0.63,-0.63,-0.63,-0.63,-0.63,-0.63,-0.63,-0.63,-0.6451,-0.6602,-0.6602,-0.6753,-0.6899,-0.6903,-0.6903,-0.6903,-0.6899,-0.6714,-0.6602,-0.6602,-0.6451,-0.6644,-0.7407,-0.7561,-0.7561,-0.7522,-0.7706,-0.7476,-0.6641,-0.6788,-0.698,-0.718,-0.7184,-0.7296,-0.7484,-0.7484,-0.7484,-0.7484,-0.7484,-0.7484,-0.7484,-0.7484,-0.7484,-0.5477,0.0,0.0,0.0,0.0,0.0,0.0,0.0,-0.5901,-0.5957,-0.58,-0.5634,-0.5547,-0.5362,-0.5207,-0.5207,-0.5093,-0.5018,-0.5018,-0.5018,-0.5018,-0.5018,-0.5018,-0.5018,-0.5018,-0.5018,-0.5018,0.0,-0.4866,-0.4795,-0.4795,-0.4493,-0.4315,-0.4245,-0.4096,-0.4116,-0.4312,-0.4525,-0.4658,-0.4698,-0.4811,-0.4893,-0.5015,-0.4887,-0.4895,-0.5018,-0.5018,-0.5018,-0.5018,-0.5018,-0.5018,-0.5018,-0.5018,-0.5015,-0.5132,-0.5482,-0.5637,-0.5754,-0.6145,-0.63,-0.63,-0.63,-0.63,-0.63,-0.63,-0.63,-0.63,-0.63,-0.63,-0.63,-0.63,-0.63,-0.63,-0.63,-0.63,-0.63,-0.63,-0.6338,-0.6412,-0.6563,-0.6641,-0.6714,-0.6865,-0.6903,-0.6865,-0.6714,-0.6641,-0.6563,-0.6412,-0.6834,-0.7253,-0.7484,-0.8551,-0.8775,-0.7599,-0.8093,-0.7863,-0.649,-0.6563,-0.6714,-0.6756,-0.703,-0.7219,-0.7296,-0.7407,-0.7484,-0.7484,-0.7484,-0.7484,-0.7484,-0.7484,-0.7484,-0.5419,-0.5521,0.0,0.0,0.0,0.0,-0.5942,-0.5911,-0.5831,0.0,-0.5821,-0.5676,-0.5648,-0.5517,-0.544,-0.544,-0.5326,-0.5212,-0.5018,-0.5018,-0.5018,-0.5018,-0.5018,-0.5018,-0.5018,-0.4933,-0.4903,-0.4903,-0.4779,-0.4662,-0.4577,-0.4234,-0.4025,-0.4025,-0.3827,-0.3768,-0.3921,-0.422,-0.442,-0.4447,-0.4643,-0.4822,-0.4901,-0.4828,-0.4863,-0.5018,-0.5018,-0.5018,-0.5018,-0.5018,-0.5018,-0.5018,-0.5018,-0.5018,-0.5054,-0.5362,-0.5521,-0.5637,-0.6022,-0.6219,-0.63,-0.63,-0.63,-0.63,-0.63,-0.63,-0.63,-0.63,-0.63,-0.63,-0.63,-0.63,-0.63,-0.63,-0.63,-0.63,-0.63,-0.63,-0.6338,-0.6451,-0.649,-0.6525,-0.6637,-0.6637,-0.6602,-0.649,-0.649,-0.6412,-0.63,-0.6988,-0.7484,-0.7484,-0.8322,-0.8513,-0.7599,-0.7638,-0.7292,-0.6377,-0.6412,-0.6525,-0.6602,-0.6911,-0.7103,-0.7184,-0.7407,-0.7484,-0.7484,-0.7484,-0.7484,-0.7484,-0.7484,-0.7484,-0.5395,-0.5395,0.0,-0.5566,-0.5579,0.0,-0.5885,-0.5874,-0.582,0.0,-0.5838,-0.5683,-0.5696,-0.567,-0.561,-0.5594,-0.558,-0.5482,-0.5135,-0.5057,-0.5057,-0.5057,-0.5057,-0.5015,-0.5015,-0.4917,-0.4812,-0.4798,-0.4607,-0.442,-0.4203,-0.3861,-0.3656,-0.3556,-0.3303,-0.3143,-0.3153,-0.3654,-0.3919,-0.3966,-0.4424,-0.4661,-0.4777,-0.4777,-0.4841,-0.4996,-0.5012,-0.5018,-0.5018,-0.5018,-0.5018,-0.5018,-0.5018,-0.5018,-0.5015,-0.5243,-0.544,-0.5637,-0.5825,-0.606,-0.63,-0.63,-0.63,-0.63,-0.63,-0.63,-0.63,-0.63,-0.63,-0.63,-0.63,-0.63,-0.63,-0.63,-0.63,-0.63,-0.63,-0.63,-0.63,-0.63,-0.63,-0.63,-0.63,-0.63,-0.63,-0.63,-0.63,-0.63,-0.63,-0.6988,-0.7484,-0.7369,-0.7518,-0.7557,-0.7369,-0.6799,-0.6377,-0.63,-0.63,-0.6374,-0.6563,-0.6788,-0.698,-0.718,-0.7369,-0.7484,-0.7484,-0.7484,-0.7484,-0.7484,-0.7484,-0.7484,-0.5395,-0.5395,-0.5402,-0.5433,-0.5532,0.0,-0.5661,-0.5654,-0.5674,0.0,-0.572,-0.5637,-0.5751,-0.5707,-0.5657,-0.5549,-0.5569,-0.5559,-0.5482,-0.5482,-0.5482,-0.5482,-0.5323,-0.5243,-0.5243,-0.5071,-0.4903,-0.4804,-0.4607,-0.4174,-0.3458,-0.3086,-0.2651,-0.2044,-0.1721,-0.1575,-0.1645,-0.2321,-0.2848,-0.3232,-0.3772,-0.4285,-0.4725,-0.4725,-0.4754,-0.4836,-0.4936,-0.5018,-0.5018,-0.5018,-0.5018,-0.5018,-0.5018,-0.5018,-0.5015,-0.5243,-0.544,-0.5637,-0.5825,-0.606,-0.63,-0.63,-0.63,-0.63,-0.63,-0.63,-0.63,-0.63,-0.63,-0.63,-0.63,-0.63,-0.63,-0.63,-0.63,-0.63,-0.63,-0.63,-0.63,-0.63,-0.63,-0.63,-0.63,-0.63,-0.63,-0.63,-0.63,-0.63,-0.63,-0.6988,-0.7253,-0.6606,-0.771,-0.794,-0.6644,-0.6988,-0.6988,-0.6338,-0.63,-0.6338,-0.6377,-0.6714,-0.6903,-0.6942,-0.7326,-0.7484,-0.7484,-0.7484,-0.7484,-0.7484,-0.7484,-0.7484,-0.5416,-0.5395,-0.5412,-0.5491,-0.5511,0.0,0.0,-0.5583,-0.5552,-0.5667,-0.564,-0.561,-0.5684,-0.5741,-0.5765,-0.5735,-0.5782,-0.58,-0.58,-0.5671,-0.5598,-0.5598,-0.5518,-0.544,-0.544,-0.5189,-0.4922,-0.4667,-0.4575,-0.4106,-0.3255,-0.2885,-0.2348,-0.1609,-0.1276,-0.1117,-0.1167,-0.1576,-0.2137,-0.2865,-0.3273,-0.3852,-0.4599,-0.466,-0.4719,-0.4804,-0.4925,-0.5018,-0.5018,-0.5018,-0.5018,-0.5018,-0.5018,-0.5018,-0.5018,-0.5129,-0.5285,-0.5479,-0.5673,-0.5906,-0.6138,-0.6261,-0.63,-0.63,-0.63,-0.63,-0.63,-0.63,-0.63,-0.63,-0.63,-0.63,-0.63,-0.63,-0.63,-0.63,-0.63,-0.63,-0.63,-0.63,-0.63,-0.63,-0.63,-0.63,-0.63,-0.63,-0.63,-0.63,-0.63,-0.6988,-0.733,-0.6949,-0.7633,-0.7787,-0.6949,-0.6911,-0.6718,-0.6338,-0.63,-0.63,-0.63,-0.6602,-0.683,-0.7061,-0.733,-0.7484,-0.7484,-0.7484,-0.7484,-0.7484,-0.7484,-0.7484,-0.5515,-0.5481,-0.5501,-0.5566,0.0,-0.5528,0.0,0.0,0.0,-0.5562,-0.5545,0.0,0.0,0.0,0.0,-0.5884,0.0,0.0,0.0,-0.5815,0.0,-0.5674,-0.5636,-0.5645,-0.5673,-0.5295,-0.4944,-0.4588,-0.4512,-0.4059,-0.3076,-0.2725,-0.2147,-0.1208,-0.0907,-0.0706,-0.0672,-0.0872,-0.1409,-0.2283,-0.2681,-0.3356,-0.4267,-0.4526,-0.472,-0.4769,-0.489,-0.4993,-0.5018,-0.5018,-0.5018,-0.5018,-0.5018,-0.5018,-0.5018,-0.5018,-0.5171,-0.5398,-0.5559,-0.575,-0.6018,-0.6219,-0.63,-0.63,-0.63,-0.63,-0.63,-0.63,-0.63,-0.63,-0.63,-0.63,-0.63,-0.63,-0.63,-0.63,-0.63,-0.63,-0.63,-0.63,-0.63,-0.63,-0.63,-0.63,-0.63,-0.63,-0.63,-0.63,-0.63,-0.6872,-0.7253,-0.7253,-0.7253,-0.7253,-0.7253,-0.6683,-0.63,-0.63,-0.63,-0.63,-0.63,-0.6525,-0.6834,-0.7184,-0.7407,-0.7484,-0.7484,-0.7484,-0.7484,-0.7484,-0.7484,-0.7484,0.0,0.0,0.0,0.0,-0.5671,-0.5691,-0.5498,0.0,-0.5566,-0.5446,0.0,0.0,0.0,0.0,0.0,0.0,0.0,0.0,-0.5827,-0.5885,-0.5942,-0.5942,-0.5788,-0.5724,-0.5851,-0.533,-0.493,-0.4787,-0.4499,-0.3745,-0.2468,-0.2142,-0.1309,0.0202,0.0472,0.0673,0.084,0.037,-0.0168,-0.0773,-0.1913,-0.2788,-0.3368,-0.4158,-0.4591,-0.4717,-0.4803,-0.4879,-0.5018,-0.5018,-0.5018,-0.5018,-0.5018,-0.5018,-0.5018,-0.5018,-0.5249,-0.5559,-0.5598,-0.587,-0.6261,-0.63,-0.63,-0.63,-0.63,-0.63,-0.63,-0.63,-0.63,-0.63,-0.63,-0.63,-0.63,-0.63,-0.63,-0.63,-0.63,-0.63,-0.63,-0.63,-0.63,-0.63,-0.63,-0.63,-0.63,-0.63,-0.63,-0.63,-0.63,-0.6377,-0.6454,-0.6454,-0.6454,-0.6454,-0.6454,-0.6338,-0.63,-0.63,-0.63,-0.63,-0.63,-0.6676,-0.6984,-0.7184,-0.7407,-0.7484,-0.7484,-0.7484,-0.7484,-0.7484,-0.7484,-0.7484,0.0,0.0,0.0,0.0,0.0,0.0,-0.5556,-0.5508,-0.5474,0.0,0.0,0.0,0.0,0.0,0.0,0.0,-0.5596,0.0,0.0,0.0,-0.5871,-0.6132,0.0,0.0,-0.5809,-0.5489,-0.5189,-0.4975,-0.4701,-0.3862,-0.2378,-0.2109,-0.1229,0.0438,0.0708,0.0909,0.1109,0.0774,0.0,-0.1141,-0.1811,-0.2716,-0.3863,-0.4312,-0.4572,-0.4695,-0.4781,-0.4866,-0.5018,-0.5018,-0.5018,-0.5018,-0.5018,-0.5018,-0.5018,-0.5018,-0.5171,-0.544,-0.5559,-0.5792,-0.6099,-0.6261,-0.63,-0.63,-0.63,-0.63,-0.63,-0.63,-0.63,-0.63,-0.63,-0.63,-0.63,-0.63,-0.63,-0.63,-0.63,-0.63,-0.63,-0.63,-0.63,-0.63,-0.63,-0.63,-0.63,-0.63,-0.63,-0.63,-0.63,-0.63,-0.63,-0.63,-0.63,-0.63,-0.63,-0.63,-0.63,-0.63,-0.63,-0.63,-0.63,-0.6676,-0.6942,-0.7022,-0.7326,-0.7484,-0.7484,-0.7484,-0.7484,-0.7484,-0.7484,-0.7484,-0.5956,0.0,0.0,0.0,-0.5725,-0.5627,-0.5545,-0.5508,-0.5457,-0.5457,0.0,0.0,0.0,0.0,-0.5539,-0.5579,0.0,-0.5589,0.0,-0.5589,0.0,0.0,0.0,0.0,0.0,-0.5601,-0.541,-0.5176,-0.4885,-0.4013,-0.243,-0.222,-0.1352,0.0375,0.0575,0.0741,0.0942,0.0606,-0.0168,-0.1375,-0.1944,-0.2817,-0.3997,-0.4316,-0.4542,-0.4695,-0.4746,-0.4871,-0.5018,-0.5018,-0.5018,-0.5018,-0.5018,-0.5018,-0.5018,-0.5018,-0.5132,-0.5321,-0.5521,-0.5792,-0.606,-0.6219,-0.63,-0.63,-0.63,-0.63,-0.63,-0.63,-0.63,-0.63,-0.63,-0.63,-0.63,-0.63,-0.63,-0.63,-0.63,-0.63,-0.63,-0.63,-0.633,-0.6344,-0.6306,-0.63,-0.63,-0.63,-0.63,-0.63,-0.63,-0.63,-0.63,-0.63,-0.63,-0.63,-0.63,-0.63,-0.63,-0.63,-0.63,-0.63,-0.63,-0.6641,-0.6826,-0.6903,-0.7249,-0.7446,-0.7484,-0.7484,-0.7484,-0.7484,-0.7484,-0.7484,0.0,-0.6286,-0.6211,-0.5874,-0.5796,-0.5722,-0.5467,-0.5515,-0.5583,-0.5583,-0.5691,-0.5786,-0.5786,-0.5786,-0.5742,-0.561,-0.5589,0.0,0.0,0.0,0.0,0.0,0.0,0.0,0.0,-0.5661,-0.545,-0.5303,-0.4933,-0.4038,-0.2592,-0.2372,-0.1503,0.0245,0.0307,0.0371,0.0506,-0.0135,-0.0571,-0.084,-0.228,-0.3049,-0.3251,-0.3964,-0.4433,-0.469,-0.4692,-0.4832,-0.5018,-0.5018,-0.5018,-0.5018,-0.5018,-0.5018,-0.5018,-0.5018,-0.5132,-0.5321,-0.5521,-0.5912,-0.63,-0.63,-0.63,-0.63,-0.63,-0.63,-0.63,-0.63,-0.63,-0.63,-0.63,-0.63,-0.63,-0.63,-0.63,-0.63,-0.63,-0.63,-0.63,-0.63,-0.6412,-0.646,-0.6323,-0.63,-0.63,-0.63,-0.63,-0.63,-0.63,-0.63,-0.63,-0.63,-0.63,-0.63,-0.63,-0.63,-0.63,-0.63,-0.63,-0.63,-0.63,-0.6486,-0.6714,-0.6903,-0.7103,-0.7296,-0.7484,-0.7484,-0.7484,-0.7484,-0.7484,-0.7484,-0.5956,-0.603,-0.6057,-0.5854,-0.58,-0.5749,-0.5555,-0.5552,-0.5589,-0.5589,-0.5701,-0.58,-0.58,-0.58,-0.5755,-0.5613,-0.5589,-0.5555,0.0,0.0,0.0,0.0,0.0,0.0,0.0,0.0,-0.5598,-0.538,-0.5113,-0.4487,-0.3434,-0.2785,-0.1847,-0.0596,0.0,0.0377,0.0506,-0.0303,-0.0974,-0.1543,-0.2613,-0.3418,-0.3928,-0.4197,-0.4384,-0.4572,-0.4654,-0.4783,-0.4863,-0.4944,-0.5018,-0.5018,-0.5018,-0.5018,-0.5018,-0.5018,-0.5132,-0.5359,-0.567,-0.6025,-0.63,-0.63,-0.63,-0.63,-0.63,-0.63,-0.63,-0.63,-0.63,-0.63,-0.63,-0.6371,-0.6416,-0.6323,-0.645,-0.6525,-0.6463,-0.6521,-0.6552,-0.6552,-0.659,-0.6607,-0.6559,-0.6508,-0.6409,-0.6313,-0.63,-0.63,-0.63,-0.63,-0.63,-0.63,-0.63,-0.63,-0.63,-0.63,-0.63,-0.63,-0.63,-0.63,-0.63,-0.649,-0.6676,-0.6903,-0.7103,-0.7296,-0.7484,-0.7484,-0.7484,-0.7484,-0.7484,-0.7484,-0.58,-0.5874,-0.5911,-0.5766,-0.5725,-0.5701,-0.561,-0.563,-0.5681,-0.5735,-0.5864,-0.5962,-0.5962,-0.5918,-0.5833,-0.5688,-0.5623,-0.5538,0.0,-0.5395,0.0,0.0,0.0,0.0,0.0,0.0,-0.5659,-0.5569,-0.5266,-0.4769,0.0,-0.2996,-0.2083,-0.1153,-0.0248,0.0244,0.0308,-0.0507,-0.1276,-0.1978,-0.2815,-0.3587,-0.43,-0.43,-0.4363,-0.4512,-0.4635,-0.4722,-0.4806,-0.4928,-0.5018,-0.5018,-0.5018,-0.5018,-0.5018,-0.5018,-0.5171,-0.5437,-0.5709,-0.6025,-0.63,-0.63,-0.63,-0.63,-0.63,-0.63,-0.63,-0.63,-0.63,-0.63,-0.63,-0.6405,-0.6491,-0.6399,-0.6522,-0.6675,-0.6573,-0.663,-0.6702,-0.6702,-0.6746,-0.6763,-0.6709,-0.6664,-0.6566,-0.6405,-0.633,-0.63,-0.63,-0.63,-0.63,-0.63,-0.63,-0.63,-0.63,-0.6347,-0.6354,-0.6303,-0.63,-0.63,-0.63,-0.6412,-0.6637,-0.6903,-0.7022,-0.7215,-0.7484,-0.7484,-0.7484,-0.7484,-0.7484,-0.7484]}]]